GEFSGL_prec_meanprecacc_012.txt.gz
Total_Precipitation_Accumulation
0.00 0.00 0.00 0.00 0.00 0.00 0.00 0.00 0.00 0.00 0.00 0.00 0.00 0.01 0.02 0.02 0.03 0.04 0.04 0.03 0.03 0.03 0.03 0.03 0.03 0.04 0.05 0.06 0.08 0.10 0.12 0.14 0.14 0.09 0.08 0.12 0.15 0.14 0.13 0.10 0.09 0.15 0.29
0.00 0.00 0.00 0.00 0.00 0.00 0.00 0.00 0.00 0.00 0.01 0.01 0.01 0.02 0.03 0.03 0.03 0.04 0.04 0.04 0.04 0.04 0.05 0.06 0.06 0.07 0.07 0.08 0.11 0.12 0.13 0.17 0.22 0.20 0.18 0.24 0.26 0.23 0.23 0.19 0.14 0.14 0.22
0.00 0.00 0.00 0.00 0.00 0.00 0.01 0.01 0.01 0.01 0.01 0.02 0.03 0.04 0.04 0.03 0.03 0.04 0.05 0.05 0.05 0.06 0.07 0.08 0.09 0.11 0.12 0.13 0.17 0.20 0.21 0.23 0.29 0.30 0.28 0.34 0.39 0.38 0.35 0.26 0.18 0.14 0.14
0.00 0.00 0.00 0.01 0.01 0.01 0.01 0.01 0.01 0.02 0.03 0.04 0.04 0.04 0.03 0.03 0.04 0.05 0.04 0.04 0.05 0.07 0.10 0.13 0.15 0.18 0.19 0.20 0.22 0.22 0.23 0.26 0.29 0.33 0.35 0.41 0.45 0.43 0.33 0.28 0.21 0.16 0.17
0.00 0.00 0.01 0.01 0.02 0.02 0.02 0.02 0.02 0.03 0.04 0.04 0.03 0.03 0.03 0.03 0.03 0.03 0.03 0.04 0.07 0.09 0.10 0.11 0.14 0.18 0.19 0.20 0.20 0.19 0.22 0.27 0.28 0.34 0.38 0.40 0.38 0.36 0.28 0.20 0.15 0.13 0.17
0.01 0.01 0.01 0.02 0.02 0.02 0.03 0.03 0.05 0.04 0.03 0.03 0.03 0.02 0.02 0.02 0.03 0.05 0.05 0.06 0.10 0.11 0.11 0.09 0.08 0.10 0.12 0.14 0.19 0.19 0.20 0.29 0.43 0.50 0.42 0.34 0.25 0.19 0.14 0.10 0.11 0.12 0.13
0.01 0.02 0.02 0.02 0.02 0.03 0.04 0.06 0.05 0.04 0.03 0.02 0.01 0.01 0.01 0.02 0.03 0.04 0.05 0.07 0.10 0.11 0.11 0.08 0.05 0.04 0.07 0.08 0.13 0.16 0.20 0.26 0.35 0.51 0.48 0.29 0.24 0.16 0.12 0.11 0.15 0.20 0.19
0.02 0.02 0.02 0.02 0.03 0.04 0.05 0.05 0.03 0.02 0.02 0.01 0.01 0.00 0.01 0.01 0.02 0.02 0.03 0.05 0.07 0.10 0.09 0.06 0.05 0.04 0.07 0.14 0.13 0.12 0.15 0.19 0.25 0.33 0.49 0.35 0.22 0.21 0.18 0.16 0.20 0.23 0.20
0.02 0.02 0.02 0.03 0.03 0.03 0.03 0.02 0.02 0.02 0.02 0.01 0.00 0.00 0.01 0.01 0.01 0.01 0.02 0.02 0.04 0.07 0.06 0.05 0.04 0.04 0.11 0.20 0.21 0.20 0.22 0.27 0.34 0.50 0.59 0.55 0.44 0.39 0.31 0.24 0.21 0.15 0.12
0.03 0.03 0.03 0.03 0.02 0.01 0.01 0.01 0.02 0.02 0.02 0.01 0.00 0.00 0.00 0.00 0.00 0.00 0.01 0.02 0.03 0.03 0.03 0.03 0.05 0.08 0.14 0.23 0.28 0.26 0.24 0.30 0.29 0.40 0.54 0.58 0.50 0.52 0.50 0.34 0.20 0.09 0.08
0.02 0.03 0.02 0.02 0.01 0.00 0.01 0.01 0.01 0.01 0.00 0.00 0.00 0.00 0.00 0.00 0.00 0.00 0.00 0.00 0.00 0.01 0.01 0.03 0.08 0.11 0.14 0.25 0.31 0.26 0.28 0.31 0.29 0.28 0.29 0.33 0.37 0.40 0.41 0.38 0.25 0.11 0.07
0.01 0.01 0.00 0.00 0.00 0.00 0.00 0.00 0.00 0.00 0.00 0.00 0.00 0.00 0.00 0.00 0.00 0.00 0.00 0.00 0.00 0.00 0.01 0.05 0.12 0.11 0.10 0.18 0.23 0.28 0.37 0.39 0.29 0.25 0.21 0.19 0.20 0.24 0.27 0.24 0.18 0.13 0.09
0.00 0.00 0.00 0.00 0.00 0.00 0.00 0.00 0.00 0.00 0.00 0.00 0.00 0.00 0.00 0.00 0.00 0.00 0.00 0.00 0.00 0.00 0.01 0.06 0.11 0.09 0.09 0.15 0.24 0.32 0.37 0.35 0.31 0.25 0.20 0.19 0.18 0.17 0.18 0.20 0.20 0.15 0.10
0.00 0.00 0.00 0.00 0.00 0.00 0.00 0.00 0.00 0.00 0.00 0.00 0.00 0.00 0.00 0.01 0.00 0.00 0.00 0.00 0.00 0.00 0.01 0.06 0.10 0.10 0.09 0.13 0.20 0.24 0.26 0.26 0.23 0.22 0.22 0.23 0.21 0.17 0.16 0.16 0.14 0.10 0.07
0.00 0.00 0.00 0.00 0.00 0.00 0.00 0.00 0.00 0.00 0.00 0.00 0.00 0.00 0.01 0.01 0.00 0.00 0.00 0.00 0.00 0.00 0.01 0.04 0.07 0.09 0.09 0.12 0.17 0.19 0.18 0.16 0.14 0.12 0.15 0.21 0.24 0.20 0.17 0.14 0.10 0.05 0.02
0.00 0.00 0.00 0.00 0.00 0.00 0.00 0.00 0.00 0.00 0.00 0.00 0.00 0.00 0.00 0.00 0.00 0.00 0.00 0.00 0.00 0.00 0.00 0.01 0.02 0.04 0.09 0.17 0.22 0.20 0.15 0.10 0.07 0.07 0.09 0.13 0.16 0.14 0.13 0.11 0.06 0.03 0.02
0.00 0.00 0.00 0.00 0.00 0.00 0.00 0.00 0.00 0.00 0.00 0.00 0.00 0.00 0.00 0.00 0.00 0.00 0.00 0.00 0.00 0.01 0.01 0.01 0.01 0.03 0.08 0.17 0.24 0.25 0.19 0.12 0.07 0.06 0.07 0.08 0.08 0.08 0.07 0.06 0.05 0.03 0.02
0.00 0.00 0.00 0.00 0.00 0.00 0.00 0.00 0.00 0.00 0.00 0.00 0.00 0.00 0.00 0.00 0.00 0.00 0.00 0.01 0.01 0.01 0.02 0.02 0.02 0.02 0.04 0.10 0.18 0.23 0.24 0.18 0.12 0.10 0.09 0.09 0.08 0.07 0.06 0.03 0.02 0.02 0.01
0.00 0.00 0.00 0.00 0.00 0.00 0.00 0.00 0.00 0.00 0.00 0.00 0.00 0.00 0.00 0.00 0.01 0.02 0.01 0.02 0.03 0.03 0.03 0.03 0.03 0.03 0.03 0.04 0.09 0.15 0.19 0.19 0.15 0.12 0.10 0.11 0.10 0.07 0.04 0.02 0.01 0.01 0.00
0.00 0.00 0.00 0.00 0.00 0.00 0.00 0.00 0.00 0.00 0.00 0.00 0.01 0.01 0.01 0.01 0.01 0.03 0.03 0.03 0.04 0.04 0.04 0.04 0.03 0.03 0.03 0.03 0.05 0.09 0.14 0.16 0.16 0.14 0.13 0.12 0.10 0.05 0.03 0.01 0.01 0.01 0.01
0.00 0.00 0.00 0.00 0.00 0.00 0.00 0.00 0.00 0.00 0.00 0.00 0.01 0.01 0.01 0.01 0.02 0.03 0.04 0.04 0.05 0.06 0.05 0.04 0.04 0.03 0.03 0.03 0.04 0.07 0.12 0.14 0.16 0.18 0.18 0.15 0.09 0.04 0.03 0.02 0.01 0.01 0.00
0.00 0.00 0.00 0.00 0.00 0.00 0.00 0.00 0.00 0.00 0.00 0.00 0.00 0.00 0.00 0.01 0.01 0.02 0.04 0.05 0.06 0.07 0.06 0.05 0.04 0.04 0.04 0.04 0.04 0.05 0.09 0.12 0.17 0.22 0.21 0.16 0.09 0.04 0.02 0.02 0.01 0.01 0.01
0.00 0.00 0.00 0.00 0.00 0.00 0.00 0.00 0.00 0.00 0.00 0.00 0.00 0.00 0.00 0.01 0.01 0.02 0.04 0.05 0.07 0.08 0.07 0.06 0.05 0.05 0.04 0.04 0.04 0.05 0.07 0.11 0.16 0.21 0.20 0.14 0.07 0.03 0.02 0.02 0.01 0.01 0.00
0.00 0.00 0.00 0.00 0.00 0.00 0.00 0.00 0.00 0.00 0.00 0.00 0.00 0.00 0.00 0.01 0.01 0.03 0.04 0.06 0.07 0.08 0.07 0.07 0.06 0.06 0.05 0.04 0.05 0.06 0.06 0.09 0.15 0.18 0.15 0.10 0.07 0.04 0.02 0.02 0.01 0.01 0.00
0.00 0.00 0.00 0.00 0.00 0.00 0.00 0.00 0.00 0.00 0.00 0.00 0.00 0.00 0.00 0.01 0.02 0.03 0.05 0.06 0.08 0.09 0.09 0.09 0.08 0.08 0.07 0.06 0.05 0.05 0.08 0.13 0.16 0.16 0.13 0.09 0.07 0.04 0.03 0.02 0.02 0.01 0.00
0.00 0.00 0.00 0.00 0.00 0.00 0.00 0.00 0.00 0.00 0.00 0.00 0.00 0.00 0.00 0.01 0.02 0.04 0.06 0.08 0.10 0.12 0.13 0.14 0.14 0.12 0.10 0.09 0.08 0.10 0.12 0.13 0.14 0.13 0.10 0.07 0.05 0.04 0.04 0.05 0.02 0.01 0.01

GEFSGL_prec_meanprecacc_018.txt.gz
Total_Precipitation_Accumulation
0.00 0.00 0.00 0.00 0.01 0.01 0.01 0.01 0.02 0.02 0.02 0.02 0.03 0.03 0.04 0.05 0.06 0.08 0.08 0.07 0.07 0.06 0.06 0.06 0.07 0.08 0.10 0.10 0.12 0.15 0.18 0.23 0.24 0.13 0.10 0.15 0.19 0.21 0.26 0.29 0.28 0.29 0.38
0.00 0.00 0.00 0.01 0.01 0.02 0.02 0.02 0.02 0.03 0.04 0.04 0.04 0.06 0.06 0.07 0.08 0.09 0.08 0.06 0.07 0.07 0.08 0.09 0.10 0.10 0.11 0.12 0.15 0.17 0.19 0.24 0.32 0.26 0.21 0.27 0.31 0.32 0.41 0.40 0.36 0.30 0.35
0.00 0.00 0.01 0.01 0.02 0.03 0.03 0.04 0.04 0.05 0.05 0.06 0.08 0.09 0.08 0.07 0.07 0.07 0.07 0.07 0.07 0.08 0.10 0.12 0.12 0.15 0.16 0.18 0.23 0.25 0.26 0.30 0.37 0.37 0.32 0.38 0.45 0.51 0.55 0.47 0.37 0.30 0.28
0.00 0.01 0.01 0.02 0.04 0.04 0.05 0.05 0.05 0.06 0.07 0.09 0.09 0.08 0.07 0.06 0.05 0.05 0.05 0.05 0.07 0.09 0.13 0.17 0.20 0.23 0.24 0.26 0.28 0.27 0.29 0.33 0.37 0.42 0.41 0.48 0.54 0.58 0.50 0.46 0.38 0.31 0.30
0.01 0.01 0.02 0.03 0.05 0.05 0.05 0.06 0.07 0.08 0.07 0.08 0.07 0.05 0.05 0.04 0.03 0.03 0.03 0.05 0.08 0.11 0.14 0.16 0.20 0.24 0.25 0.25 0.23 0.23 0.28 0.34 0.36 0.42 0.46 0.48 0.48 0.49 0.43 0.34 0.28 0.26 0.26
0.02 0.02 0.02 0.03 0.04 0.05 0.06 0.07 0.09 0.08 0.07 0.06 0.05 0.04 0.04 0.03 0.03 0.05 0.05 0.06 0.11 0.15 0.16 0.15 0.14 0.15 0.15 0.16 0.21 0.23 0.26 0.36 0.50 0.56 0.49 0.41 0.33 0.27 0.23 0.21 0.23 0.21 0.20
0.02 0.02 0.03 0.03 0.04 0.06 0.07 0.09 0.08 0.06 0.06 0.05 0.04 0.03 0.03 0.03 0.03 0.04 0.05 0.07 0.12 0.17 0.18 0.15 0.10 0.07 0.08 0.09 0.15 0.20 0.26 0.34 0.42 0.57 0.55 0.35 0.30 0.21 0.18 0.21 0.25 0.27 0.23
0.02 0.03 0.03 0.03 0.04 0.06 0.08 0.08 0.06 0.06 0.06 0.05 0.03 0.02 0.03 0.03 0.02 0.02 0.03 0.05 0.09 0.13 0.14 0.12 0.09 0.06 0.08 0.15 0.17 0.17 0.21 0.25 0.31 0.38 0.54 0.41 0.28 0.25 0.23 0.22 0.24 0.27 0.23
0.02 0.02 0.02 0.03 0.04 0.05 0.05 0.05 0.06 0.06 0.06 0.04 0.02 0.02 0.02 0.02 0.01 0.01 0.02 0.03 0.05 0.08 0.09 0.08 0.05 0.05 0.12 0.25 0.29 0.30 0.31 0.35 0.41 0.56 0.70 0.67 0.55 0.48 0.38 0.30 0.25 0.18 0.14
0.03 0.03 0.03 0.03 0.02 0.02 0.03 0.05 0.06 0.05 0.04 0.03 0.01 0.01 0.01 0.01 0.00 0.00 0.01 0.02 0.03 0.03 0.04 0.05 0.06 0.09 0.17 0.29 0.38 0.38 0.37 0.43 0.38 0.47 0.66 0.74 0.63 0.64 0.64 0.45 0.28 0.14 0.10
0.03 0.03 0.03 0.02 0.01 0.01 0.02 0.04 0.04 0.03 0.02 0.02 0.01 0.01 0.01 0.01 0.00 0.00 0.00 0.00 0.01 0.01 0.02 0.04 0.09 0.13 0.18 0.31 0.42 0.39 0.45 0.49 0.43 0.40 0.44 0.50 0.56 0.57 0.55 0.52 0.36 0.19 0.10
0.01 0.01 0.01 0.01 0.00 0.00 0.01 0.02 0.02 0.01 0.01 0.00 0.00 0.00 0.00 0.00 0.00 0.00 0.00 0.00 0.00 0.01 0.02 0.07 0.15 0.15 0.17 0.28 0.35 0.44 0.58 0.62 0.49 0.43 0.35 0.32 0.33 0.37 0.40 0.37 0.29 0.19 0.12
0.01 0.01 0.01 0.00 0.00 0.00 0.01 0.01 0.01 0.00 0.00 0.00 0.00 0.00 0.00 0.01 0.00 0.00 0.00 0.00 0.00 0.01 0.04 0.11 0.16 0.13 0.18 0.29 0.41 0.52 0.60 0.58 0.54 0.45 0.33 0.29 0.26 0.25 0.28 0.31 0.28 0.19 0.13
0.01 0.01 0.00 0.00 0.00 0.00 0.00 0.00 0.00 0.00 0.00 0.00 0.00 0.00 0.01 0.01 0.01 0.01 0.01 0.00 0.00 0.01 0.04 0.11 0.15 0.14 0.18 0.30 0.40 0.46 0.49 0.50 0.49 0.42 0.36 0.34 0.29 0.26 0.25 0.23 0.19 0.13 0.10
0.01 0.00 0.00 0.00 0.00 0.00 0.00 0.00 0.00 0.00 0.00 0.00 0.00 0.00 0.01 0.01 0.01 0.00 0.01 0.01 0.00 0.01 0.04 0.07 0.09 0.12 0.17 0.26 0.35 0.40 0.40 0.39 0.41 0.33 0.29 0.32 0.33 0.29 0.25 0.19 0.13 0.07 0.05
0.00 0.00 0.00 0.00 0.00 0.00 0.00 0.00 0.00 0.00 0.00 0.00 0.00 0.00 0.00 0.01 0.00 0.00 0.00 0.00 0.00 0.01 0.02 0.02 0.04 0.09 0.17 0.28 0.37 0.38 0.34 0.31 0.29 0.26 0.23 0.23 0.23 0.20 0.19 0.15 0.09 0.05 0.03
0.00 0.00 0.00 0.00 0.00 0.00 0.00 0.00 0.00 0.00 0.01 0.01 0.00 0.00 0.00 0.00 0.00 0.00 0.00 0.00 0.01 0.01 0.02 0.03 0.04 0.07 0.16 0.27 0.35 0.36 0.33 0.27 0.22 0.21 0.20 0.18 0.15 0.13 0.11 0.09 0.06 0.04 0.02
0.00 0.00 0.00 0.00 0.00 0.00 0.00 0.00 0.00 0.01 0.02 0.03 0.01 0.00 0.00 0.00 0.01 0.00 0.01 0.02 0.02 0.02 0.03 0.04 0.05 0.07 0.11 0.19 0.26 0.32 0.33 0.28 0.22 0.21 0.20 0.18 0.13 0.11 0.08 0.05 0.04 0.02 0.01
0.00 0.00 0.00 0.00 0.00 0.00 0.00 0.00 0.00 0.00 0.01 0.01 0.01 0.00 0.00 0.00 0.01 0.02 0.02 0.03 0.04 0.04 0.04 0.05 0.06 0.08 0.09 0.12 0.16 0.22 0.25 0.25 0.22 0.20 0.19 0.19 0.16 0.11 0.07 0.04 0.03 0.02 0.02
0.00 0.00 0.00 0.00 0.00 0.00 0.00 0.00 0.00 0.00 0.01 0.02 0.02 0.01 0.01 0.02 0.02 0.04 0.04 0.05 0.06 0.06 0.05 0.06 0.07 0.09 0.09 0.10 0.12 0.16 0.19 0.20 0.21 0.19 0.18 0.18 0.15 0.09 0.05 0.03 0.03 0.03 0.02
0.00 0.00 0.00 0.00 0.00 0.00 0.00 0.00 0.00 0.00 0.01 0.02 0.02 0.01 0.02 0.03 0.04 0.05 0.06 0.07 0.08 0.08 0.07 0.06 0.07 0.09 0.09 0.10 0.10 0.13 0.18 0.20 0.21 0.22 0.22 0.19 0.13 0.08 0.06 0.05 0.03 0.02 0.01
0.00 0.00 0.00 0.00 0.00 0.00 0.00 0.00 0.00 0.00 0.01 0.01 0.01 0.01 0.02 0.03 0.04 0.05 0.07 0.08 0.09 0.09 0.08 0.07 0.07 0.07 0.08 0.08 0.09 0.11 0.15 0.20 0.25 0.27 0.26 0.20 0.12 0.07 0.06 0.04 0.03 0.02 0.01
0.00 0.00 0.00 0.00 0.00 0.00 0.00 0.00 0.00 0.00 0.00 0.01 0.01 0.01 0.02 0.04 0.06 0.08 0.09 0.10 0.10 0.10 0.09 0.07 0.07 0.07 0.07 0.06 0.08 0.10 0.13 0.19 0.25 0.28 0.26 0.18 0.11 0.07 0.05 0.04 0.03 0.02 0.01
0.00 0.00 0.00 0.00 0.00 0.00 0.00 0.00 0.00 0.00 0.00 0.00 0.01 0.01 0.02 0.04 0.07 0.10 0.13 0.13 0.12 0.11 0.11 0.10 0.09 0.09 0.07 0.07 0.07 0.08 0.09 0.14 0.23 0.27 0.22 0.14 0.10 0.07 0.05 0.04 0.03 0.02 0.01
0.00 0.00 0.00 0.00 0.00 0.00 0.00 0.00 0.00 0.00 0.00 0.00 0.00 0.01 0.02 0.03 0.06 0.10 0.13 0.16 0.17 0.17 0.16 0.15 0.15 0.14 0.11 0.08 0.07 0.06 0.10 0.15 0.21 0.22 0.21 0.14 0.09 0.06 0.04 0.04 0.03 0.01 0.01
0.00 0.00 0.00 0.00 0.00 0.00 0.00 0.00 0.00 0.00 0.00 0.00 0.00 0.00 0.01 0.02 0.05 0.08 0.12 0.17 0.20 0.22 0.24 0.26 0.25 0.21 0.17 0.13 0.11 0.12 0.13 0.14 0.15 0.15 0.16 0.12 0.08 0.06 0.06 0.06 0.03 0.01 0.01

GEFSGL_prec_meanprecacc_024.txt.gz
Total_Precipitation_Accumulation
0.00 0.00 0.00 0.00 0.01 0.01 0.01 0.01 0.02 0.02 0.02 0.03 0.03 0.04 0.05 0.06 0.07 0.09 0.09 0.08 0.07 0.06 0.06 0.07 0.07 0.08 0.10 0.11 0.13 0.17 0.20 0.27 0.29 0.16 0.11 0.15 0.20 0.22 0.26 0.31 0.32 0.34 0.45
0.00 0.00 0.00 0.01 0.01 0.02 0.02 0.02 0.03 0.04 0.04 0.04 0.05 0.06 0.07 0.07 0.08 0.09 0.08 0.06 0.07 0.07 0.08 0.10 0.10 0.10 0.11 0.13 0.17 0.20 0.22 0.28 0.36 0.30 0.22 0.27 0.31 0.33 0.42 0.44 0.42 0.38 0.41
0.00 0.00 0.01 0.01 0.02 0.03 0.03 0.04 0.05 0.05 0.05 0.06 0.08 0.09 0.09 0.08 0.07 0.07 0.07 0.07 0.07 0.08 0.10 0.12 0.12 0.15 0.17 0.19 0.26 0.29 0.30 0.32 0.40 0.40 0.34 0.39 0.46 0.53 0.60 0.55 0.44 0.37 0.33
0.00 0.01 0.01 0.02 0.04 0.04 0.05 0.05 0.05 0.06 0.07 0.09 0.09 0.08 0.07 0.06 0.05 0.05 0.05 0.05 0.07 0.09 0.13 0.17 0.20 0.25 0.27 0.30 0.31 0.29 0.31 0.35 0.39 0.44 0.43 0.50 0.56 0.62 0.58 0.55 0.44 0.35 0.33
0.01 0.01 0.02 0.03 0.05 0.05 0.06 0.06 0.07 0.08 0.08 0.08 0.07 0.06 0.05 0.04 0.03 0.03 0.03 0.05 0.08 0.11 0.14 0.16 0.21 0.28 0.31 0.28 0.25 0.24 0.29 0.37 0.39 0.46 0.50 0.50 0.51 0.55 0.50 0.39 0.32 0.29 0.28
0.02 0.02 0.02 0.03 0.04 0.06 0.07 0.08 0.09 0.08 0.07 0.06 0.05 0.04 0.04 0.03 0.03 0.05 0.05 0.06 0.11 0.15 0.17 0.16 0.15 0.17 0.17 0.17 0.22 0.24 0.28 0.40 0.56 0.63 0.53 0.44 0.36 0.32 0.29 0.26 0.27 0.25 0.24
0.02 0.02 0.03 0.03 0.04 0.06 0.07 0.09 0.08 0.07 0.06 0.06 0.05 0.03 0.03 0.03 0.03 0.04 0.05 0.07 0.12 0.17 0.18 0.15 0.10 0.07 0.08 0.09 0.15 0.21 0.29 0.41 0.51 0.65 0.60 0.37 0.33 0.25 0.23 0.26 0.28 0.30 0.27
0.02 0.03 0.03 0.03 0.04 0.06 0.08 0.08 0.06 0.06 0.06 0.05 0.04 0.02 0.03 0.03 0.02 0.02 0.03 0.05 0.09 0.13 0.14 0.12 0.09 0.06 0.08 0.16 0.18 0.19 0.24 0.31 0.38 0.43 0.58 0.44 0.31 0.29 0.27 0.25 0.26 0.29 0.25
0.02 0.02 0.02 0.03 0.04 0.05 0.05 0.06 0.06 0.06 0.06 0.04 0.02 0.02 0.02 0.02 0.01 0.01 0.02 0.03 0.05 0.08 0.09 0.08 0.06 0.05 0.13 0.26 0.30 0.33 0.38 0.44 0.48 0.61 0.75 0.74 0.62 0.54 0.42 0.33 0.28 0.21 0.16
0.03 0.03 0.03 0.03 0.02 0.02 0.03 0.05 0.06 0.06 0.05 0.03 0.01 0.01 0.02 0.01 0.00 0.00 0.01 0.02 0.03 0.03 0.04 0.05 0.06 0.09 0.18 0.32 0.42 0.45 0.48 0.57 0.49 0.54 0.73 0.83 0.72 0.72 0.72 0.52 0.33 0.17 0.12
0.03 0.03 0.03 0.02 0.01 0.01 0.02 0.04 0.04 0.03 0.02 0.02 0.01 0.01 0.01 0.01 0.00 0.00 0.00 0.00 0.01 0.01 0.02 0.05 0.10 0.15 0.21 0.36 0.49 0.50 0.61 0.68 0.59 0.48 0.50 0.57 0.64 0.65 0.62 0.58 0.40 0.20 0.11
0.02 0.02 0.01 0.01 0.00 0.00 0.02 0.02 0.02 0.02 0.01 0.00 0.00 0.00 0.00 0.00 0.00 0.00 0.00 0.00 0.00 0.02 0.04 0.10 0.18 0.19 0.21 0.35 0.47 0.62 0.79 0.84 0.64 0.50 0.39 0.35 0.37 0.41 0.45 0.41 0.31 0.20 0.12
0.02 0.02 0.01 0.00 0.00 0.00 0.01 0.01 0.01 0.01 0.00 0.00 0.00 0.00 0.00 0.01 0.00 0.00 0.00 0.00 0.00 0.03 0.08 0.16 0.20 0.18 0.23 0.40 0.59 0.76 0.86 0.80 0.69 0.53 0.37 0.32 0.29 0.28 0.30 0.33 0.29 0.20 0.13
0.01 0.01 0.00 0.00 0.00 0.00 0.00 0.00 0.00 0.00 0.00 0.00 0.00 0.00 0.01 0.01 0.01 0.01 0.01 0.00 0.00 0.02 0.07 0.14 0.18 0.19 0.27 0.45 0.61 0.72 0.75 0.74 0.66 0.52 0.41 0.38 0.34 0.29 0.28 0.24 0.20 0.15 0.11
0.01 0.00 0.00 0.00 0.00 0.00 0.00 0.00 0.00 0.00 0.00 0.00 0.00 0.01 0.01 0.02 0.01 0.00 0.01 0.01 0.01 0.03 0.06 0.08 0.11 0.17 0.28 0.42 0.56 0.63 0.64 0.63 0.61 0.45 0.35 0.37 0.39 0.33 0.29 0.22 0.15 0.10 0.07
0.00 0.00 0.00 0.00 0.00 0.00 0.00 0.00 0.00 0.00 0.00 0.00 0.00 0.00 0.01 0.01 0.00 0.00 0.00 0.01 0.02 0.03 0.04 0.05 0.08 0.16 0.29 0.45 0.57 0.60 0.56 0.51 0.46 0.36 0.29 0.29 0.29 0.26 0.25 0.19 0.11 0.07 0.05
0.00 0.00 0.00 0.00 0.00 0.00 0.00 0.00 0.00 0.00 0.01 0.02 0.01 0.00 0.00 0.00 0.00 0.00 0.00 0.01 0.01 0.03 0.04 0.06 0.10 0.17 0.28 0.41 0.51 0.54 0.51 0.44 0.36 0.31 0.26 0.23 0.20 0.19 0.16 0.12 0.08 0.05 0.03
0.00 0.00 0.00 0.00 0.00 0.00 0.00 0.00 0.00 0.01 0.02 0.03 0.01 0.00 0.00 0.00 0.01 0.01 0.01 0.02 0.03 0.03 0.06 0.10 0.14 0.18 0.23 0.31 0.39 0.46 0.49 0.43 0.35 0.30 0.27 0.23 0.18 0.14 0.11 0.07 0.04 0.03 0.02
0.00 0.00 0.00 0.00 0.00 0.00 0.00 0.00 0.00 0.00 0.01 0.02 0.01 0.01 0.01 0.02 0.02 0.03 0.03 0.04 0.06 0.07 0.09 0.12 0.16 0.20 0.21 0.23 0.27 0.33 0.38 0.37 0.33 0.29 0.26 0.24 0.19 0.13 0.08 0.05 0.03 0.02 0.02
0.00 0.00 0.00 0.00 0.00 0.00 0.00 0.00 0.00 0.00 0.01 0.02 0.03 0.03 0.03 0.04 0.05 0.06 0.06 0.06 0.08 0.09 0.10 0.13 0.17 0.20 0.20 0.19 0.20 0.23 0.27 0.29 0.28 0.26 0.24 0.22 0.17 0.10 0.06 0.04 0.03 0.03 0.03
0.00 0.00 0.00 0.00 0.00 0.00 0.00 0.00 0.00 0.01 0.01 0.02 0.03 0.03 0.05 0.07 0.08 0.09 0.10 0.10 0.10 0.11 0.11 0.12 0.15 0.18 0.19 0.18 0.17 0.18 0.22 0.25 0.25 0.26 0.25 0.21 0.15 0.09 0.07 0.05 0.04 0.02 0.01
0.00 0.00 0.00 0.00 0.00 0.00 0.00 0.00 0.00 0.00 0.01 0.01 0.02 0.03 0.05 0.07 0.09 0.10 0.11 0.12 0.12 0.12 0.11 0.11 0.13 0.15 0.16 0.17 0.16 0.16 0.19 0.22 0.27 0.30 0.28 0.23 0.15 0.09 0.07 0.06 0.03 0.02 0.02
0.00 0.00 0.00 0.00 0.00 0.00 0.00 0.00 0.00 0.00 0.01 0.01 0.01 0.02 0.04 0.08 0.11 0.14 0.14 0.14 0.14 0.13 0.11 0.10 0.11 0.13 0.14 0.13 0.14 0.16 0.19 0.23 0.27 0.30 0.28 0.21 0.14 0.09 0.07 0.05 0.03 0.03 0.02
0.00 0.00 0.00 0.00 0.00 0.00 0.00 0.00 0.00 0.00 0.00 0.00 0.01 0.02 0.04 0.07 0.11 0.16 0.18 0.19 0.17 0.16 0.15 0.14 0.14 0.14 0.13 0.11 0.12 0.13 0.14 0.18 0.25 0.29 0.24 0.16 0.12 0.08 0.06 0.05 0.04 0.03 0.01
0.00 0.00 0.00 0.00 0.00 0.00 0.00 0.00 0.00 0.00 0.00 0.00 0.00 0.01 0.02 0.05 0.09 0.14 0.19 0.22 0.24 0.23 0.21 0.21 0.21 0.19 0.15 0.12 0.10 0.10 0.13 0.19 0.24 0.25 0.23 0.15 0.11 0.08 0.07 0.06 0.04 0.02 0.01
0.00 0.00 0.00 0.00 0.00 0.00 0.00 0.00 0.00 0.00 0.00 0.00 0.00 0.01 0.01 0.03 0.06 0.10 0.15 0.21 0.24 0.28 0.31 0.34 0.33 0.26 0.19 0.15 0.14 0.14 0.16 0.16 0.17 0.17 0.18 0.14 0.10 0.08 0.09 0.08 0.04 0.01 0.01

GEFSGL_prec_meanprecacc_030.txt.gz
Total_Precipitation_Accumulation
0.00 0.00 0.00 0.00 0.01 0.01 0.01 0.01 0.02 0.02 0.02 0.03 0.03 0.04 0.05 0.06 0.07 0.09 0.09 0.08 0.07 0.06 0.06 0.07 0.07 0.08 0.10 0.11 0.13 0.17 0.21 0.29 0.32 0.18 0.12 0.15 0.20 0.22 0.27 0.31 0.33 0.35 0.46
0.00 0.00 0.00 0.01 0.01 0.02 0.02 0.02 0.03 0.04 0.04 0.04 0.05 0.06 0.07 0.07 0.08 0.09 0.08 0.06 0.07 0.07 0.08 0.10 0.10 0.10 0.11 0.13 0.17 0.20 0.23 0.30 0.40 0.33 0.24 0.28 0.31 0.33 0.42 0.44 0.42 0.38 0.42
0.00 0.00 0.01 0.01 0.02 0.03 0.03 0.04 0.05 0.05 0.05 0.06 0.08 0.09 0.09 0.08 0.07 0.07 0.07 0.07 0.07 0.08 0.10 0.12 0.12 0.15 0.17 0.20 0.26 0.30 0.31 0.34 0.43 0.43 0.35 0.39 0.46 0.53 0.61 0.56 0.46 0.38 0.34
0.00 0.01 0.01 0.02 0.04 0.04 0.05 0.05 0.05 0.06 0.07 0.09 0.09 0.08 0.07 0.06 0.05 0.05 0.05 0.05 0.07 0.09 0.13 0.17 0.20 0.25 0.28 0.31 0.32 0.31 0.33 0.36 0.40 0.45 0.44 0.50 0.57 0.62 0.59 0.57 0.47 0.37 0.35
0.01 0.01 0.02 0.03 0.05 0.05 0.06 0.06 0.07 0.08 0.08 0.08 0.07 0.06 0.05 0.04 0.03 0.03 0.03 0.05 0.08 0.11 0.14 0.16 0.21 0.28 0.33 0.30 0.27 0.26 0.31 0.39 0.41 0.48 0.52 0.52 0.52 0.56 0.53 0.42 0.35 0.31 0.30
0.02 0.02 0.02 0.03 0.04 0.06 0.07 0.08 0.09 0.08 0.07 0.06 0.05 0.04 0.04 0.03 0.03 0.05 0.05 0.06 0.11 0.15 0.17 0.16 0.15 0.17 0.17 0.17 0.23 0.25 0.30 0.42 0.60 0.68 0.58 0.47 0.38 0.35 0.33 0.30 0.31 0.28 0.26
0.02 0.02 0.03 0.03 0.04 0.06 0.07 0.09 0.08 0.07 0.06 0.06 0.05 0.03 0.03 0.03 0.03 0.04 0.05 0.07 0.12 0.17 0.18 0.15 0.10 0.08 0.08 0.10 0.15 0.21 0.30 0.44 0.58 0.74 0.68 0.42 0.37 0.30 0.28 0.29 0.31 0.32 0.29
0.02 0.03 0.03 0.03 0.04 0.06 0.08 0.08 0.06 0.06 0.06 0.05 0.04 0.02 0.03 0.03 0.02 0.02 0.03 0.05 0.09 0.13 0.14 0.12 0.10 0.06 0.09 0.16 0.18 0.20 0.26 0.36 0.45 0.51 0.67 0.50 0.37 0.34 0.32 0.29 0.30 0.32 0.28
0.02 0.02 0.02 0.03 0.04 0.05 0.05 0.06 0.06 0.06 0.06 0.04 0.02 0.02 0.02 0.02 0.01 0.01 0.02 0.03 0.05 0.08 0.09 0.08 0.06 0.05 0.13 0.27 0.32 0.36 0.43 0.54 0.61 0.73 0.86 0.83 0.70 0.60 0.47 0.37 0.33 0.25 0.19
0.03 0.03 0.03 0.03 0.02 0.02 0.03 0.05 0.06 0.06 0.05 0.03 0.02 0.02 0.02 0.01 0.00 0.00 0.01 0.02 0.03 0.04 0.04 0.05 0.07 0.10 0.19 0.33 0.45 0.51 0.58 0.72 0.66 0.69 0.84 0.90 0.76 0.75 0.77 0.58 0.38 0.20 0.14
0.03 0.03 0.03 0.02 0.01 0.01 0.02 0.05 0.04 0.03 0.02 0.02 0.01 0.01 0.01 0.01 0.00 0.00 0.00 0.01 0.01 0.02 0.03 0.05 0.11 0.17 0.23 0.40 0.56 0.60 0.75 0.85 0.77 0.63 0.59 0.61 0.66 0.67 0.65 0.61 0.42 0.22 0.11
0.02 0.02 0.01 0.01 0.00 0.00 0.02 0.02 0.02 0.02 0.01 0.00 0.00 0.00 0.00 0.00 0.00 0.00 0.00 0.00 0.02 0.04 0.07 0.12 0.20 0.22 0.25 0.43 0.59 0.78 0.97 1.03 0.80 0.61 0.45 0.39 0.39 0.43 0.46 0.42 0.31 0.20 0.12
0.02 0.02 0.01 0.00 0.00 0.00 0.01 0.01 0.01 0.01 0.00 0.00 0.00 0.00 0.01 0.01 0.01 0.00 0.00 0.00 0.02 0.05 0.11 0.19 0.23 0.22 0.32 0.53 0.80 1.00 1.08 0.99 0.82 0.59 0.41 0.35 0.31 0.29 0.31 0.33 0.30 0.21 0.15
0.01 0.01 0.00 0.00 0.00 0.00 0.00 0.00 0.00 0.00 0.00 0.00 0.00 0.01 0.01 0.02 0.01 0.01 0.01 0.01 0.02 0.03 0.09 0.16 0.21 0.26 0.40 0.65 0.87 1.00 1.00 0.92 0.76 0.55 0.44 0.41 0.35 0.31 0.29 0.25 0.22 0.16 0.13
0.01 0.00 0.00 0.00 0.00 0.00 0.00 0.00 0.00 0.00 0.00 0.01 0.01 0.02 0.03 0.03 0.02 0.02 0.03 0.03 0.04 0.05 0.08 0.10 0.15 0.25 0.42 0.62 0.79 0.87 0.86 0.80 0.69 0.47 0.37 0.39 0.41 0.35 0.30 0.24 0.17 0.11 0.09
0.00 0.00 0.00 0.00 0.00 0.00 0.00 0.00 0.00 0.00 0.00 0.01 0.01 0.02 0.02 0.02 0.02 0.01 0.02 0.03 0.05 0.06 0.07 0.09 0.15 0.27 0.44 0.63 0.77 0.79 0.73 0.64 0.54 0.40 0.32 0.31 0.31 0.28 0.27 0.21 0.13 0.09 0.08
0.00 0.00 0.00 0.00 0.00 0.00 0.00 0.00 0.00 0.00 0.01 0.02 0.01 0.01 0.01 0.01 0.01 0.01 0.02 0.03 0.04 0.06 0.08 0.13 0.20 0.29 0.43 0.59 0.69 0.71 0.66 0.56 0.45 0.35 0.29 0.26 0.24 0.22 0.18 0.14 0.10 0.07 0.06
0.00 0.00 0.00 0.00 0.00 0.00 0.00 0.00 0.00 0.01 0.03 0.03 0.02 0.01 0.01 0.01 0.02 0.02 0.03 0.03 0.05 0.08 0.13 0.21 0.27 0.31 0.38 0.47 0.54 0.61 0.63 0.56 0.45 0.36 0.31 0.27 0.22 0.18 0.14 0.09 0.06 0.04 0.03
0.00 0.00 0.00 0.00 0.00 0.00 0.00 0.00 0.00 0.01 0.02 0.03 0.02 0.02 0.02 0.03 0.03 0.04 0.05 0.06 0.10 0.14 0.19 0.25 0.30 0.33 0.34 0.35 0.40 0.46 0.50 0.49 0.43 0.36 0.32 0.29 0.23 0.15 0.10 0.06 0.04 0.03 0.03
0.00 0.00 0.00 0.00 0.00 0.00 0.00 0.00 0.00 0.01 0.02 0.03 0.04 0.04 0.04 0.06 0.07 0.08 0.07 0.08 0.11 0.15 0.20 0.25 0.30 0.33 0.31 0.30 0.30 0.33 0.37 0.38 0.36 0.33 0.30 0.27 0.20 0.12 0.07 0.05 0.04 0.03 0.03
0.00 0.00 0.00 0.00 0.00 0.00 0.00 0.00 0.00 0.01 0.02 0.03 0.04 0.05 0.08 0.09 0.10 0.11 0.12 0.13 0.15 0.17 0.19 0.21 0.24 0.27 0.27 0.25 0.23 0.24 0.28 0.31 0.32 0.32 0.30 0.25 0.17 0.11 0.08 0.06 0.04 0.03 0.02
0.00 0.00 0.00 0.00 0.00 0.00 0.00 0.00 0.00 0.00 0.01 0.02 0.03 0.04 0.08 0.09 0.11 0.13 0.15 0.16 0.17 0.18 0.17 0.18 0.20 0.22 0.23 0.23 0.21 0.21 0.23 0.27 0.31 0.33 0.31 0.25 0.17 0.10 0.08 0.06 0.04 0.02 0.02
0.00 0.00 0.00 0.00 0.00 0.00 0.00 0.00 0.00 0.00 0.01 0.01 0.02 0.03 0.06 0.10 0.14 0.17 0.18 0.18 0.18 0.18 0.16 0.15 0.17 0.20 0.20 0.18 0.18 0.20 0.23 0.26 0.30 0.32 0.30 0.23 0.16 0.10 0.07 0.05 0.04 0.03 0.02
0.00 0.00 0.00 0.00 0.00 0.00 0.00 0.00 0.00 0.00 0.00 0.01 0.01 0.03 0.05 0.09 0.14 0.19 0.22 0.22 0.21 0.20 0.19 0.19 0.20 0.20 0.18 0.15 0.14 0.15 0.16 0.20 0.27 0.31 0.26 0.19 0.14 0.10 0.07 0.06 0.05 0.03 0.02
0.00 0.00 0.00 0.00 0.00 0.00 0.00 0.00 0.00 0.00 0.00 0.00 0.01 0.01 0.03 0.05 0.10 0.16 0.22 0.25 0.27 0.26 0.25 0.26 0.26 0.24 0.20 0.16 0.12 0.11 0.15 0.21 0.26 0.26 0.24 0.17 0.13 0.09 0.08 0.07 0.05 0.02 0.01
0.00 0.00 0.00 0.00 0.00 0.00 0.00 0.00 0.00 0.00 0.00 0.00 0.00 0.01 0.02 0.03 0.07 0.11 0.16 0.22 0.27 0.31 0.35 0.39 0.38 0.30 0.22 0.17 0.15 0.16 0.17 0.17 0.18 0.18 0.18 0.15 0.11 0.09 0.09 0.09 0.04 0.02 0.01

GEFSGL_prec_meanprecacc_036.txt.gz
Total_Precipitation_Accumulation
0.01 0.01 0.00 0.00 0.01 0.01 0.01 0.01 0.02 0.02 0.02 0.03 0.03 0.04 0.05 0.06 0.07 0.09 0.09 0.08 0.07 0.07 0.06 0.07 0.07 0.09 0.10 0.11 0.14 0.18 0.22 0.31 0.35 0.20 0.13 0.17 0.22 0.25 0.29 0.34 0.35 0.38 0.50
0.01 0.01 0.01 0.01 0.01 0.02 0.02 0.02 0.03 0.04 0.04 0.05 0.05 0.06 0.07 0.07 0.09 0.09 0.08 0.07 0.07 0.07 0.08 0.10 0.10 0.11 0.12 0.13 0.17 0.21 0.25 0.33 0.44 0.37 0.27 0.30 0.33 0.36 0.45 0.47 0.45 0.40 0.46
0.03 0.02 0.02 0.02 0.02 0.03 0.03 0.04 0.05 0.05 0.06 0.07 0.08 0.09 0.09 0.08 0.07 0.08 0.08 0.07 0.07 0.09 0.11 0.12 0.13 0.16 0.17 0.20 0.27 0.31 0.33 0.37 0.47 0.48 0.39 0.42 0.48 0.55 0.64 0.59 0.49 0.42 0.37
0.03 0.02 0.02 0.02 0.04 0.04 0.05 0.05 0.06 0.06 0.08 0.09 0.09 0.09 0.08 0.07 0.06 0.06 0.06 0.06 0.07 0.10 0.14 0.17 0.20 0.25 0.28 0.31 0.34 0.33 0.36 0.41 0.45 0.50 0.48 0.53 0.59 0.64 0.63 0.62 0.51 0.42 0.40
0.02 0.02 0.02 0.03 0.05 0.05 0.06 0.06 0.07 0.08 0.08 0.08 0.07 0.06 0.06 0.05 0.04 0.03 0.03 0.05 0.09 0.12 0.14 0.16 0.21 0.28 0.33 0.31 0.29 0.29 0.35 0.44 0.46 0.53 0.56 0.55 0.55 0.59 0.58 0.49 0.41 0.37 0.34
0.03 0.03 0.03 0.03 0.04 0.06 0.07 0.08 0.10 0.09 0.08 0.07 0.06 0.05 0.04 0.03 0.04 0.05 0.05 0.06 0.11 0.15 0.17 0.16 0.15 0.17 0.17 0.18 0.24 0.27 0.33 0.47 0.65 0.74 0.64 0.52 0.41 0.39 0.39 0.38 0.38 0.34 0.30
0.04 0.03 0.03 0.03 0.04 0.06 0.07 0.10 0.09 0.08 0.07 0.06 0.05 0.04 0.04 0.03 0.03 0.04 0.05 0.07 0.12 0.17 0.19 0.16 0.11 0.08 0.09 0.11 0.16 0.23 0.31 0.46 0.64 0.83 0.78 0.50 0.42 0.36 0.36 0.38 0.38 0.38 0.34
0.04 0.03 0.03 0.03 0.05 0.07 0.09 0.09 0.07 0.06 0.06 0.06 0.04 0.03 0.03 0.03 0.02 0.02 0.03 0.05 0.10 0.13 0.15 0.13 0.11 0.07 0.10 0.18 0.20 0.21 0.28 0.40 0.53 0.61 0.78 0.60 0.45 0.42 0.40 0.37 0.38 0.38 0.31
0.03 0.03 0.03 0.03 0.05 0.05 0.05 0.06 0.06 0.06 0.06 0.04 0.03 0.02 0.02 0.02 0.01 0.01 0.02 0.03 0.05 0.08 0.09 0.09 0.07 0.07 0.15 0.29 0.34 0.39 0.47 0.60 0.71 0.86 0.99 0.94 0.80 0.67 0.53 0.43 0.37 0.28 0.23
0.03 0.04 0.04 0.03 0.03 0.02 0.03 0.05 0.06 0.06 0.05 0.03 0.02 0.02 0.02 0.02 0.01 0.00 0.01 0.02 0.03 0.04 0.05 0.05 0.07 0.11 0.20 0.36 0.49 0.56 0.64 0.79 0.76 0.82 0.97 1.00 0.83 0.80 0.80 0.62 0.41 0.24 0.16
0.03 0.03 0.03 0.02 0.01 0.01 0.02 0.05 0.04 0.03 0.02 0.02 0.01 0.01 0.01 0.01 0.01 0.00 0.00 0.01 0.02 0.03 0.04 0.07 0.12 0.19 0.27 0.45 0.63 0.66 0.82 0.95 0.87 0.74 0.67 0.67 0.70 0.70 0.67 0.63 0.44 0.23 0.13
0.02 0.02 0.01 0.01 0.00 0.00 0.02 0.02 0.02 0.02 0.01 0.01 0.01 0.01 0.01 0.01 0.01 0.00 0.00 0.01 0.02 0.05 0.09 0.15 0.23 0.28 0.33 0.52 0.68 0.86 1.07 1.13 0.89 0.70 0.50 0.43 0.42 0.45 0.49 0.44 0.33 0.22 0.14
0.02 0.02 0.01 0.00 0.00 0.00 0.01 0.01 0.01 0.01 0.00 0.01 0.01 0.01 0.01 0.01 0.01 0.01 0.00 0.01 0.02 0.06 0.13 0.23 0.30 0.32 0.45 0.67 0.93 1.12 1.19 1.07 0.89 0.65 0.44 0.38 0.34 0.32 0.35 0.37 0.33 0.24 0.17
0.01 0.01 0.00 0.00 0.00 0.00 0.00 0.00 0.00 0.01 0.01 0.01 0.02 0.02 0.02 0.02 0.02 0.02 0.02 0.02 0.03 0.05 0.11 0.22 0.32 0.40 0.56 0.81 1.01 1.11 1.09 0.99 0.80 0.58 0.46 0.44 0.39 0.35 0.34 0.30 0.26 0.19 0.16
0.01 0.00 0.00 0.00 0.00 0.00 0.00 0.00 0.00 0.01 0.01 0.02 0.03 0.03 0.04 0.05 0.03 0.04 0.05 0.05 0.05 0.07 0.12 0.17 0.24 0.36 0.55 0.74 0.88 0.95 0.92 0.84 0.72 0.50 0.41 0.43 0.45 0.40 0.36 0.29 0.21 0.14 0.12
0.00 0.00 0.00 0.00 0.00 0.00 0.00 0.00 0.00 0.00 0.01 0.01 0.02 0.03 0.03 0.03 0.03 0.03 0.04 0.05 0.07 0.10 0.12 0.17 0.26 0.39 0.57 0.74 0.85 0.85 0.77 0.68 0.57 0.43 0.36 0.35 0.36 0.33 0.32 0.26 0.17 0.12 0.11
0.00 0.00 0.00 0.00 0.00 0.00 0.00 0.01 0.01 0.01 0.01 0.02 0.02 0.02 0.02 0.02 0.02 0.02 0.03 0.05 0.06 0.10 0.13 0.21 0.31 0.42 0.56 0.69 0.76 0.75 0.70 0.60 0.48 0.39 0.33 0.31 0.28 0.27 0.23 0.19 0.15 0.11 0.09
0.00 0.00 0.00 0.00 0.00 0.00 0.00 0.01 0.01 0.02 0.04 0.05 0.03 0.02 0.02 0.02 0.02 0.03 0.04 0.05 0.07 0.11 0.19 0.30 0.37 0.43 0.49 0.56 0.62 0.66 0.68 0.60 0.49 0.40 0.36 0.32 0.27 0.23 0.19 0.14 0.11 0.09 0.07
0.00 0.00 0.00 0.00 0.00 0.00 0.00 0.01 0.01 0.02 0.03 0.05 0.04 0.03 0.03 0.03 0.04 0.05 0.06 0.07 0.13 0.19 0.26 0.34 0.39 0.42 0.43 0.44 0.47 0.52 0.55 0.54 0.47 0.41 0.37 0.34 0.29 0.21 0.15 0.10 0.08 0.05 0.05
0.00 0.00 0.00 0.00 0.00 0.00 0.00 0.00 0.01 0.02 0.03 0.05 0.06 0.05 0.05 0.07 0.08 0.09 0.09 0.09 0.14 0.20 0.26 0.32 0.37 0.40 0.38 0.37 0.37 0.39 0.42 0.43 0.41 0.38 0.35 0.32 0.26 0.17 0.12 0.09 0.07 0.06 0.04
0.00 0.00 0.00 0.00 0.00 0.00 0.00 0.00 0.01 0.01 0.03 0.05 0.06 0.06 0.09 0.10 0.12 0.14 0.15 0.16 0.19 0.22 0.24 0.26 0.28 0.32 0.33 0.31 0.29 0.30 0.33 0.36 0.37 0.37 0.35 0.30 0.22 0.16 0.12 0.09 0.07 0.04 0.03
0.00 0.00 0.00 0.00 0.00 0.00 0.00 0.00 0.00 0.01 0.02 0.03 0.04 0.05 0.09 0.10 0.13 0.15 0.18 0.21 0.22 0.24 0.23 0.22 0.23 0.25 0.26 0.27 0.25 0.25 0.28 0.31 0.36 0.38 0.36 0.30 0.21 0.15 0.12 0.09 0.06 0.04 0.03
0.00 0.00 0.00 0.00 0.00 0.00 0.00 0.00 0.00 0.00 0.01 0.02 0.03 0.04 0.07 0.11 0.16 0.19 0.21 0.22 0.23 0.22 0.20 0.19 0.21 0.24 0.23 0.21 0.22 0.24 0.27 0.30 0.35 0.37 0.35 0.28 0.20 0.15 0.11 0.08 0.06 0.04 0.03
0.00 0.00 0.00 0.00 0.00 0.00 0.00 0.00 0.00 0.00 0.00 0.01 0.01 0.03 0.05 0.10 0.16 0.22 0.26 0.26 0.25 0.24 0.23 0.23 0.24 0.24 0.21 0.18 0.17 0.17 0.19 0.23 0.31 0.36 0.31 0.24 0.18 0.13 0.10 0.08 0.06 0.04 0.02
0.00 0.00 0.00 0.00 0.00 0.00 0.00 0.00 0.00 0.00 0.00 0.00 0.01 0.01 0.03 0.06 0.11 0.18 0.25 0.30 0.32 0.31 0.29 0.29 0.30 0.28 0.23 0.17 0.14 0.12 0.16 0.23 0.28 0.30 0.29 0.22 0.16 0.12 0.10 0.09 0.06 0.03 0.02
0.00 0.00 0.00 0.00 0.00 0.00 0.00 0.00 0.00 0.00 0.00 0.00 0.00 0.01 0.02 0.04 0.07 0.12 0.18 0.25 0.31 0.36 0.40 0.44 0.43 0.33 0.25 0.19 0.17 0.17 0.18 0.18 0.18 0.19 0.22 0.20 0.15 0.13 0.12 0.10 0.05 0.02 0.02

GEFSGL_prec_meanprecacc_042.txt.gz
Total_Precipitation_Accumulation
0.05 0.03 0.03 0.03 0.02 0.02 0.02 0.02 0.02 0.02 0.02 0.03 0.04 0.04 0.05 0.06 0.08 0.10 0.10 0.09 0.09 0.09 0.08 0.09 0.10 0.11 0.13 0.13 0.15 0.19 0.23 0.32 0.37 0.21 0.14 0.18 0.24 0.27 0.31 0.37 0.38 0.41 0.53
0.04 0.04 0.03 0.03 0.03 0.02 0.02 0.02 0.03 0.04 0.04 0.05 0.05 0.06 0.07 0.08 0.09 0.11 0.10 0.09 0.10 0.10 0.11 0.13 0.12 0.13 0.14 0.15 0.19 0.22 0.26 0.35 0.47 0.40 0.29 0.32 0.36 0.38 0.48 0.50 0.46 0.42 0.49
0.06 0.05 0.04 0.03 0.03 0.04 0.04 0.04 0.05 0.05 0.06 0.07 0.08 0.10 0.10 0.09 0.09 0.10 0.11 0.10 0.10 0.11 0.13 0.15 0.15 0.18 0.19 0.22 0.29 0.33 0.35 0.39 0.50 0.52 0.42 0.44 0.50 0.57 0.67 0.62 0.53 0.48 0.42
0.07 0.05 0.04 0.05 0.05 0.06 0.06 0.06 0.06 0.07 0.08 0.10 0.11 0.10 0.10 0.09 0.08 0.08 0.07 0.07 0.09 0.11 0.15 0.19 0.22 0.27 0.30 0.34 0.36 0.35 0.38 0.44 0.49 0.55 0.52 0.56 0.62 0.67 0.69 0.68 0.57 0.49 0.47
0.07 0.06 0.06 0.07 0.08 0.07 0.07 0.08 0.09 0.10 0.10 0.10 0.10 0.09 0.09 0.08 0.05 0.03 0.03 0.05 0.09 0.12 0.15 0.17 0.22 0.30 0.34 0.33 0.31 0.32 0.39 0.48 0.50 0.58 0.60 0.59 0.57 0.63 0.63 0.55 0.47 0.42 0.38
0.12 0.11 0.10 0.10 0.09 0.10 0.10 0.10 0.13 0.13 0.12 0.11 0.09 0.07 0.06 0.04 0.04 0.05 0.05 0.06 0.11 0.15 0.18 0.17 0.16 0.19 0.19 0.19 0.25 0.30 0.37 0.51 0.70 0.78 0.68 0.56 0.44 0.43 0.44 0.43 0.44 0.39 0.35
0.20 0.16 0.13 0.11 0.10 0.10 0.10 0.13 0.13 0.11 0.09 0.08 0.06 0.04 0.04 0.04 0.03 0.04 0.05 0.07 0.12 0.18 0.20 0.18 0.12 0.09 0.11 0.14 0.20 0.26 0.34 0.49 0.68 0.89 0.84 0.56 0.48 0.41 0.43 0.44 0.44 0.45 0.41
0.20 0.15 0.11 0.08 0.08 0.10 0.12 0.12 0.09 0.07 0.07 0.06 0.04 0.03 0.04 0.03 0.02 0.02 0.03 0.05 0.10 0.14 0.16 0.15 0.14 0.10 0.13 0.21 0.22 0.23 0.30 0.42 0.57 0.65 0.83 0.66 0.51 0.48 0.46 0.43 0.44 0.44 0.36
0.16 0.12 0.08 0.07 0.08 0.08 0.07 0.07 0.07 0.07 0.07 0.05 0.03 0.02 0.03 0.03 0.02 0.01 0.02 0.03 0.06 0.09 0.10 0.10 0.09 0.09 0.17 0.30 0.36 0.41 0.49 0.62 0.74 0.90 1.04 0.99 0.86 0.74 0.58 0.48 0.44 0.35 0.29
0.11 0.08 0.07 0.06 0.05 0.03 0.04 0.06 0.06 0.06 0.05 0.03 0.02 0.02 0.03 0.04 0.01 0.00 0.01 0.03 0.04 0.05 0.05 0.06 0.09 0.13 0.22 0.38 0.51 0.59 0.67 0.82 0.79 0.86 1.03 1.07 0.89 0.86 0.86 0.67 0.47 0.31 0.24
0.06 0.06 0.05 0.03 0.02 0.01 0.03 0.05 0.05 0.03 0.03 0.02 0.02 0.02 0.03 0.02 0.01 0.00 0.00 0.01 0.02 0.03 0.05 0.08 0.15 0.22 0.30 0.48 0.66 0.69 0.85 0.97 0.91 0.78 0.71 0.71 0.75 0.74 0.71 0.67 0.49 0.30 0.20
0.03 0.03 0.02 0.01 0.00 0.01 0.02 0.03 0.02 0.02 0.02 0.01 0.02 0.02 0.02 0.03 0.02 0.01 0.00 0.01 0.02 0.06 0.11 0.17 0.26 0.32 0.37 0.57 0.71 0.89 1.10 1.17 0.93 0.74 0.54 0.47 0.45 0.49 0.53 0.49 0.39 0.28 0.21
0.02 0.02 0.01 0.01 0.01 0.01 0.02 0.02 0.01 0.01 0.01 0.01 0.01 0.02 0.02 0.03 0.02 0.01 0.01 0.01 0.03 0.07 0.15 0.27 0.34 0.38 0.51 0.73 0.96 1.15 1.22 1.11 0.93 0.68 0.48 0.42 0.38 0.37 0.40 0.42 0.39 0.29 0.22
0.02 0.01 0.01 0.01 0.01 0.00 0.01 0.01 0.01 0.01 0.01 0.02 0.03 0.03 0.04 0.04 0.03 0.03 0.03 0.03 0.04 0.06 0.14 0.27 0.40 0.47 0.62 0.85 1.04 1.15 1.12 1.02 0.84 0.62 0.51 0.49 0.44 0.39 0.38 0.34 0.29 0.23 0.20
0.01 0.01 0.00 0.01 0.01 0.01 0.01 0.00 0.01 0.01 0.01 0.02 0.04 0.05 0.06 0.06 0.04 0.05 0.06 0.06 0.07 0.10 0.16 0.22 0.30 0.42 0.61 0.78 0.93 0.99 0.96 0.88 0.77 0.55 0.46 0.49 0.50 0.44 0.40 0.32 0.24 0.17 0.15
0.01 0.01 0.00 0.00 0.00 0.00 0.01 0.01 0.01 0.00 0.01 0.01 0.02 0.03 0.04 0.04 0.03 0.03 0.05 0.07 0.10 0.15 0.18 0.22 0.31 0.45 0.63 0.79 0.90 0.90 0.82 0.73 0.62 0.49 0.42 0.41 0.41 0.38 0.36 0.30 0.20 0.15 0.13
0.00 0.00 0.00 0.00 0.00 0.00 0.01 0.02 0.03 0.03 0.02 0.03 0.02 0.02 0.02 0.02 0.02 0.03 0.04 0.07 0.10 0.15 0.17 0.26 0.37 0.48 0.62 0.75 0.82 0.80 0.75 0.65 0.54 0.45 0.39 0.37 0.34 0.32 0.28 0.23 0.18 0.14 0.12
0.00 0.00 0.00 0.00 0.00 0.01 0.01 0.02 0.04 0.05 0.08 0.09 0.05 0.02 0.02 0.02 0.03 0.03 0.04 0.06 0.08 0.13 0.22 0.34 0.42 0.48 0.55 0.62 0.68 0.72 0.73 0.66 0.55 0.46 0.42 0.39 0.33 0.28 0.23 0.18 0.14 0.11 0.09
0.00 0.00 0.01 0.00 0.00 0.00 0.01 0.02 0.03 0.04 0.06 0.07 0.06 0.04 0.03 0.04 0.04 0.06 0.07 0.08 0.15 0.22 0.29 0.37 0.43 0.47 0.49 0.50 0.53 0.58 0.60 0.59 0.53 0.47 0.44 0.42 0.35 0.26 0.19 0.13 0.10 0.07 0.06
0.00 0.00 0.00 0.00 0.00 0.00 0.01 0.01 0.02 0.04 0.06 0.08 0.08 0.06 0.06 0.08 0.09 0.10 0.10 0.11 0.16 0.23 0.29 0.36 0.41 0.44 0.43 0.43 0.43 0.45 0.47 0.48 0.47 0.44 0.42 0.39 0.32 0.22 0.16 0.12 0.09 0.07 0.06
0.00 0.00 0.00 0.00 0.00 0.00 0.00 0.01 0.02 0.03 0.04 0.06 0.08 0.07 0.10 0.12 0.14 0.16 0.17 0.18 0.21 0.25 0.27 0.28 0.31 0.35 0.36 0.35 0.34 0.35 0.39 0.42 0.43 0.44 0.42 0.37 0.28 0.20 0.16 0.11 0.08 0.05 0.03
0.00 0.00 0.00 0.00 0.00 0.00 0.00 0.01 0.01 0.02 0.03 0.04 0.05 0.06 0.11 0.12 0.14 0.17 0.21 0.23 0.25 0.26 0.25 0.24 0.26 0.28 0.29 0.30 0.29 0.30 0.33 0.36 0.41 0.44 0.43 0.37 0.27 0.19 0.14 0.10 0.06 0.04 0.03
0.00 0.00 0.00 0.00 0.00 0.00 0.00 0.00 0.00 0.01 0.02 0.02 0.03 0.05 0.08 0.13 0.18 0.22 0.24 0.25 0.25 0.25 0.22 0.20 0.23 0.26 0.27 0.25 0.25 0.27 0.30 0.34 0.39 0.43 0.42 0.35 0.25 0.18 0.14 0.09 0.06 0.05 0.03
0.00 0.00 0.00 0.00 0.00 0.00 0.00 0.00 0.00 0.00 0.01 0.01 0.02 0.03 0.06 0.11 0.19 0.26 0.30 0.29 0.28 0.26 0.25 0.24 0.25 0.26 0.23 0.20 0.19 0.19 0.20 0.25 0.33 0.40 0.37 0.31 0.24 0.17 0.12 0.09 0.06 0.04 0.02
0.00 0.00 0.00 0.00 0.00 0.00 0.00 0.00 0.00 0.00 0.00 0.00 0.01 0.02 0.04 0.07 0.12 0.20 0.28 0.33 0.34 0.33 0.31 0.31 0.31 0.28 0.24 0.18 0.14 0.12 0.17 0.24 0.29 0.32 0.34 0.29 0.21 0.16 0.13 0.10 0.07 0.03 0.02
0.00 0.00 0.00 0.00 0.00 0.00 0.00 0.00 0.00 0.00 0.00 0.00 0.00 0.01 0.02 0.04 0.08 0.13 0.20 0.27 0.33 0.38 0.42 0.45 0.44 0.34 0.25 0.19 0.17 0.17 0.18 0.18 0.19 0.20 0.25 0.26 0.19 0.15 0.14 0.11 0.06 0.03 0.02

GEFSGL_prec_meanprecacc_048.txt.gz
Total_Precipitation_Accumulation
0.06 0.05 0.05 0.05 0.05 0.04 0.04 0.04 0.04 0.03 0.03 0.03 0.04 0.04 0.05 0.07 0.08 0.10 0.10 0.09 0.09 0.09 0.09 0.09 0.10 0.11 0.13 0.13 0.15 0.19 0.23 0.33 0.37 0.21 0.14 0.18 0.24 0.27 0.31 0.37 0.38 0.41 0.53
0.06 0.05 0.05 0.05 0.05 0.05 0.04 0.04 0.05 0.05 0.05 0.05 0.06 0.07 0.08 0.08 0.10 0.11 0.10 0.09 0.10 0.10 0.11 0.13 0.13 0.13 0.14 0.15 0.19 0.22 0.26 0.35 0.48 0.40 0.29 0.32 0.36 0.38 0.48 0.50 0.47 0.42 0.50
0.07 0.06 0.05 0.05 0.06 0.06 0.06 0.07 0.07 0.07 0.08 0.09 0.10 0.11 0.10 0.10 0.10 0.10 0.11 0.10 0.10 0.11 0.13 0.15 0.15 0.18 0.19 0.22 0.29 0.33 0.35 0.40 0.51 0.53 0.42 0.45 0.50 0.57 0.68 0.63 0.53 0.48 0.43
0.08 0.07 0.07 0.08 0.09 0.09 0.09 0.10 0.10 0.11 0.12 0.13 0.12 0.12 0.11 0.10 0.09 0.08 0.07 0.07 0.09 0.11 0.15 0.19 0.22 0.27 0.30 0.34 0.36 0.35 0.39 0.44 0.49 0.55 0.52 0.56 0.62 0.68 0.69 0.69 0.58 0.49 0.47
0.09 0.09 0.10 0.12 0.13 0.13 0.14 0.14 0.14 0.15 0.14 0.14 0.13 0.11 0.10 0.08 0.05 0.03 0.03 0.05 0.09 0.12 0.15 0.17 0.22 0.30 0.35 0.34 0.32 0.32 0.40 0.49 0.52 0.59 0.61 0.60 0.58 0.64 0.64 0.56 0.49 0.43 0.39
0.18 0.19 0.18 0.17 0.17 0.17 0.17 0.17 0.19 0.18 0.16 0.13 0.11 0.08 0.07 0.04 0.04 0.05 0.05 0.06 0.11 0.15 0.18 0.17 0.16 0.19 0.19 0.20 0.27 0.32 0.40 0.54 0.73 0.81 0.71 0.58 0.46 0.45 0.46 0.46 0.46 0.42 0.37
0.31 0.28 0.25 0.22 0.21 0.19 0.18 0.20 0.19 0.15 0.11 0.09 0.07 0.04 0.04 0.04 0.03 0.04 0.05 0.07 0.12 0.18 0.20 0.18 0.13 0.09 0.12 0.15 0.21 0.27 0.35 0.51 0.71 0.93 0.88 0.59 0.51 0.44 0.47 0.49 0.48 0.49 0.44
0.34 0.31 0.25 0.20 0.17 0.18 0.19 0.17 0.12 0.09 0.08 0.06 0.05 0.03 0.04 0.03 0.02 0.02 0.03 0.05 0.10 0.14 0.16 0.15 0.14 0.10 0.14 0.21 0.23 0.24 0.30 0.43 0.58 0.67 0.85 0.68 0.53 0.51 0.51 0.48 0.49 0.49 0.39
0.29 0.23 0.16 0.13 0.13 0.12 0.10 0.09 0.08 0.08 0.07 0.05 0.03 0.02 0.03 0.03 0.02 0.01 0.02 0.03 0.06 0.09 0.10 0.10 0.09 0.10 0.17 0.31 0.37 0.42 0.50 0.63 0.75 0.92 1.06 1.02 0.89 0.78 0.63 0.53 0.49 0.41 0.34
0.17 0.14 0.11 0.10 0.07 0.05 0.05 0.07 0.07 0.07 0.06 0.04 0.02 0.02 0.03 0.04 0.01 0.00 0.01 0.03 0.04 0.05 0.05 0.06 0.10 0.14 0.23 0.40 0.52 0.60 0.68 0.83 0.80 0.88 1.04 1.09 0.92 0.89 0.91 0.72 0.53 0.37 0.30
0.09 0.08 0.06 0.04 0.02 0.02 0.03 0.05 0.05 0.04 0.03 0.02 0.02 0.03 0.03 0.03 0.01 0.00 0.00 0.01 0.03 0.04 0.05 0.09 0.16 0.23 0.31 0.50 0.67 0.70 0.86 0.99 0.92 0.80 0.73 0.72 0.76 0.76 0.74 0.71 0.54 0.36 0.26
0.04 0.03 0.02 0.01 0.01 0.01 0.02 0.03 0.02 0.02 0.02 0.01 0.02 0.02 0.02 0.03 0.02 0.01 0.00 0.01 0.03 0.06 0.12 0.18 0.28 0.34 0.39 0.58 0.72 0.90 1.12 1.18 0.94 0.75 0.56 0.48 0.47 0.52 0.56 0.52 0.43 0.32 0.26
0.03 0.03 0.01 0.01 0.01 0.01 0.02 0.02 0.01 0.01 0.01 0.01 0.02 0.02 0.03 0.03 0.02 0.01 0.01 0.01 0.03 0.08 0.17 0.29 0.36 0.39 0.52 0.74 0.98 1.16 1.23 1.12 0.95 0.70 0.50 0.45 0.40 0.39 0.42 0.45 0.42 0.32 0.26
0.02 0.02 0.01 0.01 0.01 0.01 0.01 0.01 0.01 0.01 0.01 0.02 0.03 0.03 0.04 0.04 0.03 0.03 0.03 0.03 0.05 0.08 0.16 0.29 0.41 0.49 0.63 0.87 1.06 1.16 1.14 1.04 0.86 0.64 0.54 0.52 0.47 0.42 0.41 0.37 0.32 0.25 0.23
0.01 0.01 0.01 0.01 0.01 0.01 0.01 0.00 0.01 0.01 0.01 0.02 0.04 0.05 0.07 0.06 0.04 0.05 0.07 0.07 0.08 0.11 0.18 0.23 0.31 0.44 0.62 0.80 0.94 1.01 0.98 0.91 0.80 0.59 0.49 0.52 0.53 0.47 0.43 0.35 0.26 0.18 0.17
0.01 0.01 0.01 0.00 0.01 0.01 0.01 0.02 0.01 0.00 0.01 0.01 0.02 0.04 0.04 0.04 0.04 0.04 0.06 0.08 0.12 0.17 0.20 0.23 0.33 0.47 0.66 0.82 0.92 0.93 0.85 0.77 0.66 0.53 0.46 0.44 0.44 0.41 0.39 0.32 0.22 0.16 0.15
0.00 0.01 0.00 0.00 0.00 0.01 0.02 0.03 0.04 0.03 0.03 0.03 0.02 0.02 0.03 0.03 0.03 0.03 0.05 0.09 0.12 0.16 0.18 0.28 0.39 0.51 0.66 0.79 0.85 0.83 0.78 0.69 0.59 0.49 0.43 0.40 0.36 0.34 0.29 0.25 0.20 0.16 0.14
0.00 0.00 0.00 0.00 0.00 0.01 0.02 0.03 0.04 0.06 0.09 0.10 0.05 0.02 0.02 0.03 0.04 0.04 0.05 0.07 0.09 0.14 0.24 0.37 0.46 0.52 0.58 0.66 0.71 0.75 0.77 0.70 0.59 0.50 0.46 0.41 0.35 0.29 0.23 0.19 0.15 0.13 0.11
0.00 0.00 0.01 0.00 0.00 0.00 0.01 0.02 0.04 0.05 0.07 0.08 0.06 0.04 0.03 0.05 0.05 0.07 0.08 0.09 0.16 0.24 0.31 0.40 0.47 0.51 0.52 0.53 0.57 0.62 0.65 0.64 0.57 0.51 0.47 0.44 0.36 0.27 0.19 0.13 0.10 0.08 0.07
0.00 0.00 0.00 0.00 0.00 0.00 0.01 0.02 0.03 0.04 0.06 0.08 0.08 0.06 0.06 0.09 0.09 0.11 0.11 0.12 0.18 0.25 0.32 0.39 0.44 0.47 0.46 0.46 0.46 0.48 0.51 0.52 0.50 0.47 0.44 0.41 0.33 0.23 0.16 0.12 0.09 0.08 0.06
0.01 0.00 0.00 0.00 0.00 0.00 0.00 0.01 0.02 0.03 0.05 0.07 0.09 0.08 0.12 0.13 0.15 0.17 0.19 0.20 0.23 0.27 0.30 0.32 0.35 0.38 0.38 0.37 0.37 0.38 0.41 0.44 0.46 0.47 0.44 0.39 0.29 0.21 0.16 0.12 0.08 0.05 0.03
0.00 0.00 0.00 0.00 0.00 0.00 0.00 0.01 0.01 0.02 0.03 0.04 0.06 0.08 0.13 0.14 0.16 0.19 0.23 0.26 0.28 0.29 0.28 0.28 0.29 0.30 0.31 0.31 0.31 0.32 0.34 0.38 0.43 0.46 0.45 0.38 0.28 0.20 0.14 0.10 0.06 0.04 0.03
0.00 0.00 0.00 0.00 0.00 0.00 0.00 0.00 0.00 0.01 0.02 0.03 0.04 0.06 0.10 0.15 0.20 0.25 0.27 0.28 0.28 0.27 0.24 0.23 0.25 0.28 0.28 0.26 0.26 0.28 0.31 0.35 0.41 0.44 0.43 0.36 0.26 0.19 0.14 0.09 0.06 0.05 0.03
0.00 0.00 0.00 0.00 0.00 0.00 0.00 0.00 0.00 0.00 0.01 0.01 0.02 0.04 0.08 0.14 0.21 0.28 0.32 0.32 0.30 0.28 0.26 0.26 0.27 0.27 0.24 0.21 0.19 0.19 0.21 0.26 0.34 0.41 0.38 0.32 0.24 0.17 0.12 0.09 0.06 0.04 0.02
0.00 0.00 0.00 0.00 0.00 0.00 0.00 0.00 0.00 0.00 0.00 0.01 0.01 0.02 0.05 0.08 0.14 0.22 0.30 0.35 0.36 0.35 0.32 0.32 0.31 0.29 0.24 0.18 0.14 0.12 0.17 0.24 0.29 0.32 0.34 0.29 0.22 0.16 0.13 0.10 0.07 0.03 0.02
0.00 0.00 0.00 0.00 0.00 0.00 0.00 0.00 0.00 0.00 0.00 0.00 0.00 0.01 0.02 0.05 0.08 0.14 0.21 0.28 0.33 0.38 0.42 0.46 0.44 0.34 0.25 0.19 0.17 0.17 0.18 0.19 0.19 0.20 0.25 0.26 0.19 0.15 0.14 0.11 0.06 0.03 0.02

GEFSGL_prec_meanprecacc_054.txt.gz
Total_Precipitation_Accumulation
0.10 0.08 0.07 0.07 0.06 0.05 0.05 0.05 0.05 0.05 0.05 0.05 0.06 0.06 0.07 0.08 0.10 0.12 0.11 0.10 0.10 0.09 0.09 0.10 0.10 0.11 0.13 0.13 0.15 0.19 0.23 0.33 0.38 0.21 0.14 0.18 0.24 0.27 0.31 0.37 0.38 0.41 0.53
0.07 0.06 0.06 0.06 0.05 0.05 0.05 0.05 0.05 0.06 0.07 0.07 0.08 0.10 0.10 0.10 0.11 0.12 0.11 0.10 0.10 0.10 0.11 0.13 0.13 0.13 0.14 0.15 0.19 0.22 0.26 0.35 0.48 0.40 0.29 0.32 0.36 0.38 0.48 0.50 0.47 0.42 0.50
0.07 0.06 0.05 0.06 0.06 0.07 0.07 0.08 0.08 0.09 0.10 0.11 0.13 0.14 0.12 0.11 0.11 0.11 0.11 0.11 0.11 0.12 0.14 0.15 0.15 0.18 0.19 0.22 0.29 0.33 0.35 0.40 0.51 0.53 0.42 0.45 0.50 0.57 0.68 0.63 0.53 0.48 0.43
0.08 0.07 0.07 0.08 0.10 0.11 0.11 0.12 0.13 0.14 0.15 0.16 0.15 0.14 0.13 0.11 0.10 0.09 0.09 0.08 0.10 0.12 0.16 0.19 0.22 0.27 0.30 0.34 0.36 0.35 0.39 0.45 0.49 0.56 0.53 0.56 0.62 0.68 0.69 0.69 0.58 0.50 0.47
0.10 0.10 0.12 0.14 0.16 0.17 0.17 0.17 0.18 0.19 0.17 0.17 0.15 0.13 0.12 0.10 0.06 0.04 0.04 0.06 0.09 0.12 0.15 0.17 0.22 0.30 0.36 0.35 0.33 0.33 0.41 0.50 0.53 0.60 0.63 0.61 0.59 0.65 0.65 0.57 0.50 0.43 0.39
0.21 0.24 0.23 0.22 0.22 0.22 0.22 0.22 0.23 0.21 0.19 0.15 0.12 0.09 0.08 0.05 0.04 0.05 0.05 0.07 0.11 0.15 0.18 0.17 0.16 0.19 0.19 0.20 0.27 0.33 0.41 0.56 0.74 0.83 0.73 0.61 0.48 0.46 0.48 0.47 0.48 0.44 0.38
0.35 0.33 0.30 0.27 0.26 0.25 0.22 0.24 0.22 0.18 0.14 0.11 0.08 0.05 0.05 0.04 0.03 0.04 0.05 0.07 0.12 0.18 0.20 0.18 0.13 0.09 0.12 0.15 0.21 0.27 0.36 0.52 0.73 0.95 0.90 0.62 0.53 0.46 0.49 0.52 0.51 0.52 0.47
0.38 0.35 0.30 0.24 0.22 0.21 0.22 0.20 0.14 0.10 0.08 0.07 0.05 0.03 0.04 0.03 0.02 0.02 0.03 0.05 0.10 0.14 0.16 0.15 0.14 0.10 0.14 0.22 0.23 0.24 0.31 0.43 0.59 0.68 0.86 0.70 0.55 0.53 0.53 0.52 0.52 0.51 0.41
0.34 0.27 0.20 0.16 0.16 0.14 0.11 0.09 0.08 0.08 0.07 0.05 0.03 0.02 0.03 0.03 0.02 0.01 0.02 0.03 0.06 0.09 0.10 0.10 0.09 0.10 0.18 0.32 0.38 0.43 0.50 0.63 0.76 0.93 1.08 1.03 0.91 0.81 0.66 0.56 0.53 0.44 0.36
0.20 0.16 0.13 0.11 0.08 0.05 0.05 0.07 0.07 0.07 0.06 0.04 0.02 0.02 0.03 0.04 0.01 0.00 0.01 0.03 0.04 0.05 0.05 0.06 0.10 0.14 0.24 0.40 0.53 0.61 0.69 0.83 0.81 0.88 1.05 1.10 0.93 0.91 0.94 0.76 0.57 0.42 0.34
0.10 0.08 0.07 0.05 0.03 0.02 0.03 0.05 0.05 0.04 0.03 0.02 0.02 0.03 0.03 0.03 0.01 0.00 0.00 0.02 0.03 0.04 0.05 0.09 0.16 0.24 0.31 0.50 0.68 0.71 0.87 1.00 0.93 0.81 0.74 0.73 0.77 0.78 0.76 0.73 0.57 0.39 0.31
0.04 0.04 0.03 0.01 0.01 0.01 0.02 0.03 0.02 0.02 0.02 0.01 0.02 0.02 0.02 0.03 0.02 0.01 0.00 0.01 0.03 0.07 0.12 0.19 0.28 0.34 0.39 0.59 0.73 0.91 1.12 1.19 0.95 0.76 0.58 0.51 0.49 0.54 0.58 0.54 0.45 0.35 0.29
0.03 0.03 0.01 0.01 0.01 0.01 0.02 0.02 0.01 0.01 0.01 0.01 0.02 0.02 0.03 0.03 0.02 0.01 0.01 0.02 0.04 0.09 0.18 0.30 0.37 0.40 0.53 0.74 0.99 1.17 1.24 1.13 0.96 0.73 0.53 0.48 0.44 0.42 0.45 0.47 0.44 0.35 0.28
0.03 0.02 0.01 0.01 0.01 0.01 0.01 0.01 0.01 0.01 0.01 0.02 0.03 0.03 0.04 0.04 0.03 0.03 0.03 0.04 0.05 0.08 0.17 0.30 0.42 0.50 0.64 0.87 1.07 1.17 1.15 1.05 0.88 0.67 0.56 0.55 0.49 0.44 0.43 0.39 0.34 0.26 0.24
0.02 0.01 0.01 0.01 0.01 0.01 0.01 0.00 0.01 0.01 0.01 0.02 0.04 0.05 0.07 0.06 0.05 0.06 0.08 0.08 0.09 0.12 0.19 0.24 0.31 0.45 0.64 0.81 0.96 1.03 1.00 0.93 0.82 0.60 0.51 0.54 0.55 0.49 0.44 0.37 0.28 0.19 0.18
0.01 0.01 0.01 0.01 0.01 0.01 0.02 0.02 0.01 0.00 0.01 0.02 0.03 0.04 0.05 0.05 0.04 0.05 0.07 0.10 0.14 0.19 0.21 0.25 0.34 0.49 0.68 0.84 0.95 0.95 0.87 0.79 0.68 0.54 0.46 0.45 0.45 0.42 0.40 0.33 0.24 0.18 0.17
0.00 0.01 0.00 0.00 0.01 0.01 0.02 0.03 0.04 0.03 0.03 0.03 0.02 0.03 0.03 0.03 0.03 0.04 0.07 0.11 0.14 0.18 0.20 0.30 0.41 0.53 0.69 0.82 0.88 0.87 0.82 0.72 0.60 0.50 0.44 0.40 0.36 0.34 0.30 0.26 0.21 0.18 0.16
0.00 0.00 0.00 0.00 0.00 0.01 0.02 0.03 0.04 0.06 0.09 0.10 0.06 0.03 0.03 0.03 0.05 0.05 0.07 0.09 0.11 0.16 0.26 0.39 0.49 0.55 0.62 0.69 0.75 0.79 0.80 0.71 0.60 0.51 0.46 0.42 0.35 0.29 0.24 0.19 0.16 0.14 0.12
0.00 0.00 0.01 0.00 0.00 0.01 0.01 0.02 0.04 0.05 0.07 0.08 0.07 0.04 0.04 0.06 0.07 0.09 0.10 0.11 0.18 0.26 0.34 0.44 0.50 0.54 0.56 0.56 0.60 0.65 0.66 0.64 0.58 0.51 0.47 0.44 0.37 0.27 0.19 0.14 0.10 0.08 0.08
0.00 0.00 0.00 0.00 0.00 0.00 0.01 0.02 0.03 0.04 0.07 0.09 0.09 0.07 0.08 0.10 0.11 0.13 0.13 0.14 0.20 0.28 0.35 0.42 0.46 0.49 0.48 0.49 0.49 0.50 0.52 0.53 0.50 0.47 0.44 0.41 0.34 0.23 0.16 0.12 0.09 0.08 0.06
0.01 0.00 0.00 0.00 0.00 0.00 0.00 0.01 0.02 0.03 0.05 0.08 0.10 0.10 0.14 0.15 0.17 0.20 0.21 0.22 0.25 0.30 0.34 0.35 0.37 0.40 0.40 0.39 0.38 0.39 0.42 0.45 0.46 0.47 0.44 0.39 0.29 0.21 0.16 0.12 0.08 0.05 0.03
0.00 0.00 0.00 0.00 0.00 0.00 0.00 0.01 0.01 0.02 0.04 0.06 0.08 0.10 0.16 0.16 0.18 0.22 0.26 0.29 0.31 0.32 0.31 0.31 0.31 0.32 0.33 0.33 0.32 0.32 0.35 0.38 0.43 0.46 0.45 0.38 0.28 0.20 0.14 0.10 0.06 0.04 0.03
0.00 0.00 0.00 0.00 0.00 0.00 0.00 0.00 0.01 0.01 0.02 0.03 0.05 0.08 0.12 0.17 0.23 0.27 0.30 0.31 0.31 0.31 0.27 0.25 0.27 0.30 0.29 0.27 0.26 0.29 0.32 0.36 0.41 0.44 0.43 0.36 0.26 0.19 0.14 0.09 0.06 0.05 0.03
0.00 0.00 0.00 0.00 0.00 0.00 0.00 0.00 0.00 0.00 0.01 0.02 0.03 0.06 0.10 0.16 0.24 0.32 0.36 0.34 0.32 0.31 0.29 0.28 0.29 0.28 0.25 0.21 0.20 0.19 0.21 0.26 0.34 0.41 0.38 0.32 0.24 0.17 0.12 0.09 0.06 0.04 0.02
0.00 0.00 0.00 0.00 0.00 0.00 0.00 0.00 0.00 0.00 0.00 0.01 0.01 0.03 0.06 0.10 0.16 0.25 0.33 0.38 0.39 0.38 0.35 0.34 0.33 0.30 0.25 0.19 0.14 0.12 0.17 0.24 0.29 0.32 0.34 0.29 0.22 0.16 0.13 0.10 0.07 0.03 0.02
0.00 0.00 0.00 0.00 0.00 0.00 0.00 0.00 0.00 0.00 0.00 0.00 0.01 0.01 0.03 0.05 0.09 0.15 0.22 0.30 0.35 0.40 0.43 0.46 0.45 0.35 0.25 0.19 0.17 0.17 0.18 0.19 0.19 0.20 0.25 0.26 0.19 0.15 0.14 0.11 0.06 0.03 0.02

GEFSGL_prec_meanprecacc_060.txt.gz
Total_Precipitation_Accumulation
0.11 0.10 0.09 0.09 0.08 0.07 0.06 0.06 0.06 0.05 0.05 0.06 0.06 0.06 0.07 0.09 0.10 0.12 0.12 0.11 0.10 0.10 0.09 0.10 0.11 0.12 0.13 0.13 0.16 0.19 0.24 0.33 0.38 0.22 0.14 0.18 0.24 0.27 0.32 0.37 0.38 0.42 0.54
0.07 0.06 0.06 0.06 0.06 0.06 0.06 0.06 0.06 0.07 0.07 0.07 0.08 0.10 0.11 0.11 0.12 0.13 0.12 0.11 0.11 0.11 0.12 0.14 0.13 0.14 0.15 0.16 0.20 0.23 0.27 0.36 0.49 0.41 0.29 0.33 0.36 0.40 0.49 0.52 0.47 0.43 0.50
0.07 0.06 0.05 0.06 0.07 0.07 0.08 0.08 0.09 0.09 0.11 0.12 0.14 0.15 0.14 0.13 0.12 0.12 0.12 0.12 0.11 0.13 0.14 0.16 0.16 0.19 0.20 0.23 0.30 0.34 0.36 0.41 0.53 0.55 0.44 0.45 0.51 0.58 0.70 0.64 0.54 0.50 0.44
0.08 0.07 0.08 0.09 0.10 0.11 0.12 0.13 0.14 0.15 0.17 0.18 0.17 0.16 0.14 0.12 0.11 0.10 0.09 0.09 0.10 0.12 0.16 0.19 0.22 0.27 0.31 0.35 0.37 0.37 0.41 0.47 0.52 0.59 0.55 0.58 0.64 0.69 0.72 0.72 0.60 0.52 0.49
0.10 0.10 0.13 0.15 0.17 0.18 0.19 0.19 0.19 0.20 0.19 0.19 0.16 0.14 0.13 0.10 0.07 0.05 0.04 0.06 0.10 0.13 0.15 0.18 0.22 0.30 0.36 0.36 0.34 0.36 0.44 0.55 0.57 0.64 0.66 0.63 0.61 0.67 0.68 0.60 0.53 0.46 0.41
0.22 0.24 0.25 0.24 0.24 0.24 0.24 0.23 0.24 0.23 0.20 0.16 0.13 0.10 0.08 0.05 0.05 0.05 0.05 0.07 0.11 0.16 0.18 0.17 0.16 0.19 0.20 0.21 0.27 0.34 0.43 0.60 0.79 0.88 0.77 0.65 0.51 0.50 0.52 0.51 0.52 0.48 0.41
0.36 0.35 0.32 0.29 0.28 0.27 0.24 0.25 0.23 0.19 0.14 0.11 0.08 0.05 0.05 0.04 0.03 0.04 0.05 0.07 0.13 0.18 0.21 0.19 0.13 0.10 0.13 0.16 0.22 0.28 0.37 0.54 0.75 0.98 0.95 0.67 0.58 0.51 0.55 0.57 0.56 0.57 0.50
0.40 0.37 0.32 0.26 0.23 0.23 0.23 0.21 0.15 0.11 0.09 0.07 0.05 0.03 0.04 0.04 0.02 0.02 0.03 0.05 0.11 0.15 0.17 0.16 0.15 0.13 0.16 0.23 0.24 0.26 0.33 0.46 0.62 0.71 0.91 0.74 0.59 0.57 0.58 0.57 0.57 0.54 0.43
0.35 0.29 0.21 0.17 0.16 0.15 0.12 0.10 0.09 0.09 0.08 0.06 0.04 0.03 0.04 0.04 0.02 0.01 0.02 0.04 0.06 0.10 0.12 0.12 0.11 0.12 0.19 0.32 0.39 0.45 0.53 0.67 0.78 0.94 1.09 1.05 0.92 0.82 0.68 0.60 0.58 0.48 0.39
0.21 0.17 0.13 0.11 0.08 0.06 0.06 0.07 0.08 0.07 0.06 0.04 0.02 0.03 0.04 0.05 0.01 0.00 0.01 0.03 0.05 0.05 0.06 0.08 0.11 0.15 0.24 0.41 0.54 0.64 0.73 0.86 0.83 0.90 1.08 1.12 0.96 0.94 0.97 0.79 0.62 0.47 0.38
0.11 0.09 0.07 0.05 0.03 0.02 0.04 0.06 0.06 0.04 0.04 0.03 0.03 0.03 0.04 0.03 0.02 0.00 0.01 0.02 0.03 0.04 0.06 0.11 0.19 0.24 0.31 0.50 0.69 0.73 0.90 1.01 0.96 0.85 0.78 0.77 0.81 0.82 0.80 0.77 0.61 0.44 0.35
0.05 0.04 0.03 0.02 0.01 0.01 0.03 0.04 0.03 0.03 0.03 0.02 0.03 0.03 0.03 0.04 0.03 0.01 0.00 0.01 0.03 0.08 0.15 0.21 0.30 0.34 0.39 0.59 0.74 0.92 1.13 1.21 1.00 0.81 0.62 0.54 0.53 0.58 0.62 0.58 0.49 0.39 0.33
0.04 0.04 0.02 0.01 0.02 0.02 0.03 0.03 0.03 0.03 0.02 0.02 0.03 0.03 0.03 0.04 0.03 0.01 0.01 0.02 0.04 0.10 0.20 0.31 0.37 0.40 0.54 0.77 1.00 1.18 1.26 1.17 1.01 0.77 0.57 0.52 0.47 0.45 0.48 0.50 0.47 0.38 0.31
0.04 0.04 0.03 0.03 0.03 0.02 0.02 0.02 0.02 0.03 0.03 0.03 0.04 0.05 0.05 0.05 0.04 0.03 0.04 0.04 0.06 0.09 0.19 0.32 0.44 0.51 0.66 0.91 1.11 1.22 1.20 1.10 0.92 0.72 0.60 0.58 0.52 0.47 0.46 0.41 0.36 0.29 0.27
0.03 0.03 0.03 0.02 0.02 0.02 0.02 0.01 0.02 0.03 0.02 0.03 0.06 0.07 0.08 0.08 0.05 0.07 0.09 0.09 0.10 0.13 0.21 0.27 0.36 0.49 0.67 0.85 1.00 1.08 1.06 0.97 0.86 0.64 0.54 0.56 0.57 0.51 0.47 0.39 0.30 0.22 0.20
0.03 0.02 0.02 0.02 0.02 0.02 0.03 0.04 0.01 0.01 0.01 0.02 0.03 0.04 0.06 0.06 0.05 0.05 0.08 0.12 0.15 0.20 0.23 0.28 0.39 0.53 0.71 0.88 0.98 0.99 0.91 0.82 0.71 0.58 0.50 0.47 0.47 0.44 0.42 0.35 0.26 0.20 0.19
0.02 0.02 0.02 0.02 0.02 0.02 0.04 0.06 0.06 0.04 0.03 0.03 0.03 0.03 0.04 0.04 0.04 0.05 0.09 0.13 0.15 0.20 0.22 0.33 0.45 0.58 0.72 0.85 0.91 0.89 0.85 0.74 0.63 0.53 0.47 0.42 0.38 0.36 0.32 0.28 0.23 0.20 0.18
0.01 0.01 0.01 0.01 0.02 0.02 0.04 0.05 0.06 0.08 0.10 0.11 0.07 0.04 0.04 0.04 0.06 0.06 0.09 0.11 0.13 0.18 0.29 0.43 0.53 0.59 0.66 0.72 0.77 0.81 0.82 0.73 0.62 0.53 0.49 0.44 0.37 0.31 0.25 0.20 0.17 0.15 0.14
0.02 0.02 0.02 0.01 0.01 0.01 0.02 0.03 0.04 0.06 0.08 0.10 0.09 0.06 0.06 0.07 0.09 0.11 0.12 0.13 0.19 0.28 0.36 0.47 0.55 0.59 0.59 0.59 0.63 0.67 0.68 0.66 0.59 0.52 0.49 0.46 0.39 0.29 0.21 0.15 0.11 0.09 0.09
0.02 0.01 0.01 0.01 0.00 0.01 0.01 0.02 0.03 0.05 0.08 0.11 0.11 0.09 0.10 0.12 0.13 0.15 0.15 0.15 0.22 0.30 0.37 0.45 0.50 0.53 0.51 0.50 0.51 0.52 0.54 0.54 0.51 0.48 0.45 0.43 0.35 0.24 0.17 0.13 0.10 0.08 0.07
0.01 0.01 0.00 0.01 0.01 0.01 0.01 0.02 0.02 0.04 0.07 0.10 0.12 0.12 0.17 0.18 0.20 0.22 0.24 0.25 0.28 0.33 0.36 0.38 0.40 0.43 0.42 0.40 0.39 0.40 0.43 0.46 0.47 0.48 0.45 0.40 0.31 0.22 0.16 0.12 0.08 0.05 0.04
0.00 0.01 0.01 0.01 0.01 0.00 0.01 0.01 0.02 0.03 0.05 0.07 0.10 0.12 0.19 0.19 0.21 0.25 0.30 0.33 0.35 0.36 0.34 0.34 0.34 0.34 0.34 0.34 0.33 0.33 0.35 0.39 0.44 0.47 0.46 0.40 0.29 0.20 0.15 0.10 0.06 0.05 0.03
0.00 0.00 0.00 0.00 0.00 0.00 0.00 0.01 0.01 0.02 0.03 0.05 0.07 0.10 0.15 0.20 0.26 0.31 0.33 0.34 0.35 0.34 0.30 0.28 0.29 0.31 0.30 0.27 0.27 0.29 0.32 0.36 0.41 0.45 0.45 0.38 0.27 0.19 0.14 0.09 0.06 0.05 0.03
0.00 0.00 0.00 0.00 0.00 0.00 0.00 0.00 0.01 0.01 0.02 0.03 0.05 0.08 0.13 0.19 0.27 0.35 0.39 0.38 0.36 0.34 0.31 0.30 0.30 0.29 0.25 0.21 0.20 0.19 0.21 0.26 0.34 0.41 0.39 0.34 0.26 0.18 0.13 0.09 0.07 0.04 0.02
0.00 0.00 0.00 0.00 0.00 0.00 0.00 0.00 0.00 0.01 0.01 0.01 0.02 0.04 0.08 0.12 0.18 0.27 0.36 0.40 0.40 0.39 0.36 0.34 0.33 0.30 0.25 0.19 0.14 0.12 0.17 0.24 0.29 0.32 0.35 0.31 0.23 0.17 0.13 0.11 0.07 0.04 0.02
0.00 0.00 0.00 0.00 0.00 0.00 0.00 0.00 0.00 0.00 0.00 0.01 0.01 0.02 0.03 0.06 0.10 0.16 0.24 0.31 0.36 0.40 0.43 0.46 0.45 0.35 0.25 0.19 0.17 0.17 0.18 0.19 0.19 0.20 0.25 0.27 0.19 0.16 0.15 0.12 0.06 0.03 0.03

GEFSGL_prec_meanprecacc_066.txt.gz
Total_Precipitation_Accumulation
0.16 0.14 0.14 0.13 0.12 0.12 0.12 0.10 0.09 0.08 0.07 0.07 0.07 0.07 0.08 0.09 0.11 0.13 0.12 0.11 0.11 0.11 0.10 0.11 0.11 0.12 0.14 0.14 0.16 0.20 0.25 0.35 0.39 0.22 0.15 0.18 0.25 0.28 0.32 0.38 0.39 0.42 0.54
0.09 0.08 0.08 0.07 0.07 0.07 0.07 0.07 0.07 0.08 0.08 0.08 0.08 0.10 0.11 0.11 0.13 0.13 0.12 0.11 0.11 0.11 0.12 0.14 0.14 0.14 0.16 0.17 0.21 0.24 0.28 0.38 0.50 0.42 0.30 0.33 0.37 0.40 0.50 0.53 0.48 0.43 0.51
0.08 0.07 0.06 0.07 0.07 0.08 0.08 0.09 0.09 0.10 0.11 0.13 0.14 0.16 0.14 0.13 0.12 0.13 0.13 0.12 0.12 0.13 0.15 0.16 0.17 0.19 0.21 0.24 0.31 0.35 0.38 0.42 0.54 0.57 0.45 0.47 0.52 0.59 0.71 0.66 0.56 0.52 0.44
0.09 0.08 0.08 0.09 0.10 0.12 0.12 0.13 0.14 0.15 0.17 0.18 0.18 0.16 0.14 0.13 0.11 0.10 0.09 0.09 0.11 0.13 0.16 0.20 0.23 0.28 0.32 0.36 0.38 0.38 0.43 0.49 0.54 0.61 0.57 0.60 0.65 0.71 0.75 0.75 0.62 0.53 0.50
0.11 0.11 0.13 0.16 0.17 0.18 0.19 0.19 0.20 0.20 0.19 0.19 0.17 0.14 0.13 0.10 0.07 0.05 0.04 0.06 0.10 0.13 0.16 0.18 0.23 0.31 0.37 0.36 0.35 0.36 0.46 0.57 0.59 0.67 0.68 0.65 0.63 0.71 0.72 0.64 0.56 0.48 0.42
0.22 0.25 0.25 0.25 0.25 0.25 0.24 0.24 0.25 0.23 0.20 0.17 0.13 0.10 0.09 0.05 0.05 0.05 0.05 0.07 0.12 0.16 0.19 0.19 0.18 0.21 0.21 0.21 0.28 0.34 0.44 0.61 0.81 0.91 0.80 0.68 0.55 0.54 0.58 0.55 0.56 0.52 0.43
0.38 0.36 0.33 0.30 0.29 0.27 0.25 0.26 0.24 0.20 0.15 0.12 0.09 0.06 0.06 0.05 0.03 0.04 0.05 0.07 0.13 0.20 0.23 0.21 0.15 0.12 0.15 0.19 0.24 0.29 0.39 0.56 0.78 1.02 1.00 0.72 0.64 0.58 0.61 0.61 0.60 0.62 0.53
0.42 0.39 0.33 0.27 0.24 0.24 0.24 0.22 0.16 0.13 0.11 0.09 0.07 0.05 0.07 0.04 0.02 0.02 0.03 0.06 0.12 0.17 0.20 0.20 0.19 0.17 0.18 0.23 0.24 0.27 0.36 0.52 0.67 0.76 0.97 0.80 0.64 0.61 0.62 0.60 0.61 0.58 0.45
0.37 0.30 0.22 0.17 0.17 0.16 0.14 0.12 0.11 0.11 0.10 0.07 0.04 0.04 0.06 0.06 0.02 0.01 0.02 0.04 0.08 0.12 0.14 0.15 0.14 0.16 0.20 0.32 0.39 0.47 0.57 0.73 0.81 0.95 1.10 1.06 0.93 0.83 0.69 0.62 0.61 0.52 0.42
0.22 0.17 0.14 0.12 0.09 0.08 0.08 0.09 0.10 0.09 0.08 0.05 0.03 0.04 0.06 0.07 0.02 0.00 0.01 0.03 0.06 0.06 0.08 0.12 0.14 0.16 0.24 0.41 0.55 0.66 0.77 0.90 0.86 0.93 1.12 1.17 1.01 0.98 0.99 0.83 0.67 0.52 0.43
0.11 0.09 0.08 0.06 0.04 0.04 0.06 0.08 0.08 0.07 0.07 0.06 0.05 0.06 0.07 0.05 0.02 0.00 0.01 0.02 0.04 0.05 0.08 0.16 0.24 0.24 0.31 0.50 0.69 0.75 0.92 1.02 0.97 0.89 0.84 0.82 0.86 0.87 0.85 0.82 0.67 0.49 0.41
0.06 0.05 0.04 0.03 0.02 0.02 0.06 0.08 0.07 0.08 0.08 0.07 0.06 0.05 0.05 0.06 0.04 0.01 0.00 0.01 0.04 0.09 0.18 0.26 0.33 0.34 0.39 0.59 0.74 0.92 1.13 1.22 1.04 0.88 0.68 0.59 0.57 0.61 0.65 0.62 0.54 0.44 0.37
0.07 0.06 0.04 0.03 0.03 0.03 0.06 0.07 0.07 0.08 0.07 0.06 0.05 0.05 0.05 0.06 0.05 0.01 0.01 0.02 0.04 0.10 0.22 0.33 0.38 0.40 0.54 0.80 1.02 1.18 1.28 1.22 1.08 0.84 0.63 0.56 0.51 0.48 0.50 0.54 0.51 0.41 0.34
0.08 0.07 0.05 0.05 0.06 0.05 0.06 0.05 0.05 0.06 0.05 0.05 0.06 0.06 0.07 0.07 0.06 0.04 0.04 0.04 0.06 0.11 0.21 0.35 0.46 0.53 0.69 0.95 1.16 1.29 1.28 1.17 0.98 0.78 0.65 0.61 0.55 0.49 0.49 0.44 0.39 0.32 0.29
0.07 0.05 0.05 0.04 0.06 0.07 0.07 0.03 0.02 0.03 0.02 0.03 0.06 0.07 0.10 0.09 0.06 0.07 0.09 0.09 0.10 0.14 0.22 0.30 0.40 0.53 0.72 0.91 1.07 1.16 1.14 1.04 0.92 0.71 0.59 0.59 0.60 0.53 0.49 0.42 0.33 0.24 0.22
0.06 0.05 0.04 0.03 0.04 0.05 0.09 0.08 0.02 0.01 0.01 0.02 0.03 0.05 0.06 0.06 0.05 0.06 0.09 0.12 0.15 0.20 0.25 0.32 0.42 0.56 0.74 0.91 1.02 1.03 0.95 0.88 0.77 0.63 0.54 0.51 0.50 0.47 0.45 0.38 0.28 0.22 0.21
0.04 0.04 0.04 0.03 0.04 0.05 0.08 0.12 0.11 0.06 0.03 0.04 0.03 0.03 0.04 0.04 0.04 0.05 0.09 0.14 0.16 0.21 0.24 0.35 0.48 0.60 0.74 0.88 0.95 0.93 0.89 0.79 0.68 0.58 0.51 0.46 0.42 0.39 0.34 0.29 0.24 0.21 0.19
0.04 0.02 0.02 0.03 0.03 0.05 0.07 0.09 0.10 0.12 0.14 0.14 0.08 0.04 0.04 0.05 0.06 0.06 0.09 0.12 0.14 0.20 0.31 0.45 0.55 0.61 0.68 0.76 0.82 0.86 0.86 0.77 0.66 0.57 0.53 0.48 0.41 0.34 0.27 0.22 0.18 0.16 0.15
0.04 0.05 0.03 0.02 0.02 0.03 0.05 0.06 0.06 0.09 0.11 0.12 0.11 0.07 0.07 0.08 0.10 0.12 0.13 0.14 0.21 0.30 0.39 0.50 0.57 0.61 0.62 0.63 0.68 0.72 0.73 0.70 0.63 0.57 0.53 0.50 0.42 0.32 0.22 0.15 0.12 0.09 0.10
0.02 0.01 0.01 0.02 0.01 0.02 0.03 0.04 0.04 0.07 0.10 0.12 0.13 0.10 0.10 0.13 0.15 0.17 0.17 0.17 0.24 0.32 0.39 0.46 0.52 0.56 0.54 0.54 0.55 0.57 0.59 0.59 0.56 0.53 0.50 0.47 0.38 0.26 0.18 0.13 0.10 0.09 0.08
0.02 0.01 0.00 0.01 0.01 0.02 0.02 0.02 0.03 0.05 0.08 0.12 0.14 0.13 0.18 0.19 0.22 0.25 0.26 0.27 0.30 0.34 0.38 0.39 0.42 0.45 0.44 0.43 0.43 0.44 0.47 0.50 0.51 0.53 0.49 0.43 0.32 0.23 0.17 0.13 0.09 0.06 0.04
0.01 0.01 0.01 0.01 0.01 0.01 0.01 0.02 0.02 0.04 0.06 0.09 0.12 0.14 0.21 0.21 0.23 0.27 0.32 0.35 0.37 0.37 0.36 0.35 0.36 0.37 0.37 0.36 0.36 0.36 0.38 0.41 0.47 0.51 0.51 0.43 0.30 0.21 0.16 0.11 0.08 0.05 0.04
0.00 0.00 0.00 0.00 0.00 0.00 0.00 0.01 0.01 0.03 0.04 0.06 0.09 0.12 0.16 0.22 0.28 0.33 0.36 0.36 0.37 0.36 0.32 0.30 0.31 0.34 0.33 0.30 0.29 0.31 0.33 0.36 0.42 0.48 0.50 0.42 0.30 0.21 0.15 0.11 0.08 0.07 0.05
0.00 0.00 0.00 0.00 0.00 0.00 0.00 0.00 0.01 0.01 0.02 0.04 0.06 0.10 0.14 0.21 0.29 0.37 0.41 0.40 0.38 0.37 0.34 0.33 0.32 0.31 0.27 0.23 0.21 0.20 0.21 0.26 0.34 0.42 0.42 0.38 0.28 0.20 0.13 0.11 0.09 0.07 0.05
0.00 0.00 0.00 0.00 0.00 0.00 0.00 0.00 0.01 0.01 0.01 0.02 0.04 0.06 0.10 0.14 0.20 0.29 0.37 0.42 0.43 0.42 0.39 0.37 0.36 0.32 0.26 0.19 0.14 0.12 0.17 0.24 0.29 0.32 0.36 0.34 0.25 0.19 0.14 0.12 0.09 0.05 0.05
0.00 0.00 0.00 0.00 0.00 0.00 0.00 0.00 0.00 0.01 0.01 0.01 0.02 0.03 0.04 0.07 0.12 0.18 0.25 0.32 0.37 0.41 0.45 0.48 0.46 0.36 0.26 0.19 0.17 0.17 0.18 0.19 0.19 0.20 0.25 0.28 0.20 0.16 0.15 0.12 0.07 0.04 0.05

GEFSGL_prec_meanprecacc_072.txt.gz
Total_Precipitation_Accumulation
0.22 0.21 0.22 0.21 0.21 0.21 0.20 0.18 0.15 0.14 0.14 0.13 0.12 0.11 0.11 0.11 0.12 0.13 0.13 0.11 0.11 0.11 0.10 0.11 0.11 0.12 0.14 0.14 0.16 0.20 0.25 0.35 0.39 0.22 0.15 0.18 0.25 0.28 0.32 0.38 0.39 0.42 0.54
0.14 0.12 0.13 0.13 0.13 0.12 0.12 0.13 0.12 0.11 0.11 0.11 0.11 0.12 0.12 0.12 0.13 0.13 0.12 0.11 0.11 0.11 0.12 0.14 0.14 0.14 0.16 0.17 0.21 0.24 0.28 0.38 0.50 0.42 0.30 0.33 0.37 0.40 0.50 0.53 0.48 0.43 0.51
0.11 0.10 0.09 0.10 0.10 0.10 0.10 0.10 0.11 0.11 0.12 0.14 0.15 0.17 0.15 0.13 0.13 0.13 0.13 0.12 0.12 0.13 0.15 0.16 0.17 0.20 0.21 0.24 0.31 0.35 0.38 0.42 0.54 0.57 0.45 0.47 0.52 0.59 0.71 0.66 0.56 0.52 0.44
0.11 0.09 0.10 0.10 0.11 0.12 0.13 0.14 0.15 0.16 0.17 0.19 0.18 0.16 0.15 0.13 0.11 0.10 0.09 0.09 0.11 0.13 0.16 0.20 0.23 0.28 0.32 0.37 0.38 0.38 0.43 0.49 0.54 0.61 0.57 0.60 0.65 0.71 0.75 0.75 0.62 0.53 0.50
0.13 0.13 0.15 0.17 0.18 0.19 0.20 0.20 0.20 0.21 0.20 0.19 0.17 0.14 0.13 0.10 0.07 0.05 0.04 0.06 0.10 0.13 0.16 0.19 0.23 0.32 0.38 0.37 0.35 0.36 0.46 0.57 0.59 0.67 0.68 0.66 0.64 0.71 0.73 0.65 0.56 0.48 0.42
0.25 0.27 0.27 0.26 0.25 0.25 0.25 0.24 0.25 0.23 0.20 0.17 0.13 0.10 0.09 0.05 0.05 0.05 0.05 0.07 0.12 0.16 0.19 0.19 0.19 0.21 0.21 0.22 0.29 0.34 0.44 0.61 0.82 0.92 0.81 0.69 0.56 0.55 0.58 0.56 0.56 0.52 0.44
0.40 0.38 0.34 0.31 0.30 0.28 0.25 0.26 0.24 0.20 0.16 0.12 0.09 0.06 0.06 0.05 0.03 0.04 0.05 0.07 0.13 0.20 0.24 0.22 0.16 0.13 0.15 0.19 0.24 0.29 0.39 0.56 0.79 1.04 1.01 0.73 0.65 0.59 0.62 0.62 0.60 0.62 0.54
0.44 0.41 0.35 0.28 0.25 0.24 0.25 0.23 0.17 0.13 0.11 0.09 0.07 0.05 0.07 0.04 0.02 0.02 0.03 0.06 0.12 0.17 0.20 0.20 0.20 0.18 0.19 0.23 0.24 0.27 0.36 0.52 0.68 0.77 0.98 0.81 0.65 0.62 0.62 0.61 0.61 0.58 0.46
0.41 0.33 0.24 0.19 0.18 0.17 0.15 0.12 0.11 0.11 0.10 0.07 0.04 0.04 0.06 0.06 0.02 0.01 0.02 0.04 0.08 0.12 0.14 0.15 0.15 0.16 0.20 0.32 0.39 0.47 0.57 0.73 0.81 0.95 1.10 1.06 0.94 0.84 0.70 0.63 0.62 0.53 0.43
0.23 0.18 0.15 0.13 0.09 0.08 0.08 0.09 0.10 0.09 0.08 0.05 0.03 0.05 0.07 0.08 0.02 0.00 0.01 0.03 0.06 0.06 0.08 0.13 0.14 0.16 0.24 0.41 0.55 0.66 0.77 0.90 0.86 0.93 1.13 1.18 1.02 0.99 1.00 0.83 0.68 0.54 0.45
0.12 0.10 0.08 0.06 0.04 0.04 0.06 0.09 0.08 0.07 0.07 0.06 0.05 0.06 0.07 0.05 0.02 0.00 0.01 0.02 0.04 0.05 0.08 0.16 0.24 0.25 0.31 0.51 0.69 0.75 0.92 1.02 0.98 0.90 0.84 0.84 0.87 0.87 0.85 0.83 0.67 0.51 0.42
0.06 0.05 0.04 0.03 0.02 0.03 0.06 0.08 0.08 0.08 0.08 0.07 0.06 0.06 0.06 0.06 0.04 0.01 0.00 0.01 0.04 0.09 0.18 0.26 0.33 0.34 0.40 0.60 0.74 0.93 1.13 1.22 1.04 0.89 0.70 0.61 0.58 0.61 0.66 0.62 0.54 0.45 0.38
0.07 0.07 0.04 0.03 0.03 0.04 0.06 0.08 0.07 0.08 0.07 0.06 0.05 0.05 0.05 0.07 0.06 0.01 0.01 0.02 0.04 0.11 0.23 0.33 0.38 0.40 0.55 0.81 1.03 1.19 1.29 1.23 1.10 0.86 0.64 0.57 0.52 0.49 0.51 0.54 0.51 0.42 0.34
0.09 0.07 0.06 0.06 0.07 0.05 0.06 0.05 0.05 0.06 0.05 0.05 0.06 0.06 0.07 0.07 0.06 0.04 0.04 0.04 0.06 0.11 0.21 0.35 0.46 0.54 0.70 0.96 1.17 1.30 1.29 1.19 1.00 0.80 0.67 0.63 0.56 0.50 0.49 0.44 0.39 0.32 0.30
0.07 0.06 0.05 0.06 0.07 0.08 0.07 0.03 0.02 0.04 0.02 0.04 0.06 0.07 0.10 0.09 0.06 0.07 0.09 0.09 0.10 0.14 0.22 0.31 0.41 0.54 0.73 0.92 1.09 1.17 1.15 1.06 0.94 0.72 0.60 0.61 0.60 0.54 0.50 0.42 0.33 0.24 0.22
0.06 0.05 0.04 0.04 0.06 0.06 0.09 0.08 0.02 0.01 0.01 0.02 0.03 0.05 0.06 0.06 0.05 0.06 0.09 0.12 0.16 0.21 0.25 0.32 0.43 0.57 0.76 0.93 1.04 1.04 0.97 0.89 0.79 0.64 0.55 0.52 0.50 0.47 0.45 0.38 0.28 0.22 0.21
0.04 0.04 0.04 0.04 0.05 0.06 0.09 0.13 0.11 0.06 0.03 0.04 0.03 0.03 0.04 0.04 0.04 0.06 0.10 0.14 0.17 0.22 0.25 0.36 0.48 0.61 0.76 0.90 0.96 0.95 0.90 0.81 0.70 0.60 0.53 0.47 0.42 0.39 0.34 0.29 0.24 0.21 0.19
0.04 0.03 0.02 0.04 0.04 0.05 0.08 0.09 0.10 0.12 0.14 0.14 0.08 0.04 0.04 0.05 0.07 0.07 0.10 0.13 0.15 0.21 0.32 0.46 0.56 0.63 0.70 0.78 0.84 0.87 0.87 0.79 0.67 0.59 0.54 0.49 0.42 0.34 0.27 0.22 0.18 0.16 0.15
0.04 0.06 0.04 0.03 0.03 0.03 0.05 0.06 0.06 0.09 0.11 0.12 0.11 0.07 0.07 0.09 0.10 0.12 0.13 0.15 0.21 0.30 0.39 0.50 0.58 0.64 0.65 0.66 0.70 0.74 0.74 0.71 0.64 0.58 0.54 0.51 0.43 0.32 0.22 0.16 0.12 0.09 0.10
0.03 0.01 0.01 0.02 0.02 0.02 0.03 0.04 0.05 0.07 0.10 0.12 0.13 0.10 0.11 0.14 0.16 0.18 0.17 0.18 0.24 0.33 0.39 0.47 0.54 0.58 0.56 0.55 0.56 0.58 0.60 0.60 0.57 0.54 0.50 0.47 0.38 0.26 0.19 0.14 0.11 0.09 0.08
0.02 0.01 0.00 0.01 0.02 0.02 0.02 0.02 0.03 0.05 0.08 0.12 0.14 0.13 0.18 0.20 0.23 0.25 0.27 0.28 0.30 0.35 0.39 0.40 0.43 0.46 0.45 0.44 0.43 0.44 0.48 0.51 0.52 0.53 0.50 0.44 0.33 0.23 0.17 0.13 0.09 0.06 0.05
0.01 0.01 0.01 0.01 0.01 0.01 0.01 0.02 0.02 0.04 0.06 0.09 0.12 0.14 0.21 0.22 0.24 0.28 0.33 0.36 0.37 0.38 0.36 0.36 0.37 0.38 0.37 0.37 0.36 0.36 0.38 0.42 0.47 0.52 0.51 0.44 0.31 0.22 0.16 0.12 0.08 0.06 0.05
0.00 0.00 0.00 0.00 0.00 0.00 0.00 0.01 0.02 0.03 0.04 0.06 0.09 0.12 0.16 0.22 0.28 0.33 0.36 0.37 0.37 0.37 0.33 0.30 0.32 0.34 0.33 0.30 0.29 0.31 0.33 0.36 0.42 0.48 0.50 0.42 0.30 0.22 0.16 0.12 0.09 0.08 0.06
0.00 0.00 0.00 0.00 0.00 0.00 0.00 0.00 0.01 0.02 0.03 0.04 0.07 0.10 0.15 0.21 0.29 0.37 0.42 0.40 0.39 0.38 0.35 0.33 0.32 0.31 0.27 0.23 0.21 0.20 0.21 0.26 0.35 0.42 0.43 0.39 0.29 0.21 0.14 0.12 0.10 0.08 0.07
0.00 0.00 0.00 0.00 0.00 0.00 0.00 0.00 0.01 0.01 0.02 0.02 0.04 0.06 0.10 0.14 0.21 0.29 0.38 0.43 0.43 0.43 0.39 0.37 0.36 0.32 0.26 0.19 0.14 0.12 0.17 0.24 0.29 0.33 0.36 0.34 0.26 0.19 0.15 0.13 0.09 0.06 0.06
0.00 0.00 0.00 0.00 0.00 0.00 0.00 0.00 0.00 0.01 0.01 0.01 0.02 0.03 0.05 0.07 0.12 0.18 0.25 0.32 0.37 0.42 0.46 0.49 0.46 0.36 0.26 0.19 0.17 0.17 0.18 0.19 0.19 0.20 0.25 0.28 0.21 0.17 0.15 0.13 0.07 0.05 0.05

GEFSGL_prec_meanprecacc_078.txt.gz
Total_Precipitation_Accumulation
0.33 0.34 0.35 0.35 0.33 0.31 0.29 0.26 0.23 0.21 0.20 0.20 0.20 0.19 0.19 0.19 0.20 0.21 0.20 0.17 0.15 0.14 0.13 0.13 0.13 0.13 0.14 0.14 0.16 0.20 0.25 0.35 0.40 0.23 0.15 0.18 0.25 0.28 0.33 0.38 0.39 0.42 0.54
0.21 0.20 0.22 0.22 0.21 0.19 0.19 0.19 0.17 0.15 0.15 0.15 0.15 0.16 0.16 0.16 0.16 0.15 0.14 0.12 0.13 0.12 0.13 0.15 0.14 0.15 0.16 0.17 0.21 0.24 0.28 0.38 0.50 0.43 0.30 0.33 0.37 0.40 0.50 0.53 0.48 0.43 0.51
0.16 0.14 0.13 0.13 0.13 0.14 0.14 0.14 0.13 0.12 0.13 0.15 0.16 0.18 0.16 0.14 0.13 0.13 0.13 0.12 0.12 0.13 0.15 0.17 0.17 0.20 0.21 0.24 0.31 0.36 0.38 0.42 0.54 0.57 0.45 0.47 0.52 0.59 0.71 0.66 0.56 0.52 0.44
0.14 0.12 0.12 0.13 0.14 0.14 0.15 0.15 0.16 0.16 0.18 0.20 0.19 0.17 0.15 0.13 0.11 0.10 0.09 0.09 0.11 0.13 0.16 0.20 0.23 0.28 0.32 0.37 0.39 0.38 0.43 0.49 0.54 0.61 0.57 0.60 0.65 0.71 0.75 0.75 0.62 0.53 0.50
0.16 0.15 0.17 0.19 0.20 0.20 0.21 0.20 0.20 0.21 0.20 0.20 0.17 0.15 0.13 0.11 0.07 0.05 0.04 0.06 0.10 0.13 0.16 0.19 0.24 0.32 0.39 0.37 0.36 0.37 0.46 0.57 0.59 0.67 0.69 0.66 0.64 0.71 0.73 0.65 0.56 0.48 0.42
0.28 0.31 0.30 0.29 0.28 0.28 0.27 0.26 0.26 0.24 0.21 0.17 0.13 0.10 0.09 0.05 0.05 0.05 0.05 0.07 0.12 0.16 0.19 0.19 0.19 0.21 0.22 0.22 0.29 0.35 0.44 0.61 0.82 0.92 0.81 0.69 0.56 0.55 0.59 0.56 0.57 0.52 0.44
0.43 0.41 0.37 0.34 0.32 0.30 0.27 0.28 0.25 0.20 0.16 0.13 0.09 0.06 0.06 0.05 0.03 0.04 0.05 0.07 0.13 0.20 0.24 0.22 0.16 0.13 0.15 0.19 0.24 0.29 0.39 0.57 0.80 1.04 1.02 0.74 0.65 0.59 0.63 0.62 0.61 0.63 0.55
0.46 0.43 0.36 0.30 0.26 0.26 0.26 0.23 0.17 0.13 0.11 0.09 0.07 0.05 0.07 0.04 0.02 0.02 0.03 0.06 0.12 0.17 0.20 0.20 0.20 0.18 0.19 0.23 0.24 0.27 0.36 0.53 0.68 0.77 0.98 0.81 0.65 0.62 0.63 0.62 0.63 0.60 0.47
0.42 0.34 0.25 0.19 0.19 0.17 0.15 0.13 0.11 0.11 0.10 0.07 0.04 0.04 0.06 0.06 0.02 0.01 0.02 0.04 0.08 0.12 0.14 0.15 0.15 0.16 0.20 0.32 0.40 0.47 0.57 0.73 0.82 0.96 1.10 1.07 0.94 0.85 0.71 0.64 0.63 0.55 0.45
0.24 0.19 0.15 0.13 0.10 0.08 0.08 0.09 0.10 0.09 0.08 0.05 0.03 0.05 0.07 0.08 0.02 0.00 0.01 0.03 0.06 0.06 0.08 0.13 0.15 0.16 0.25 0.41 0.56 0.67 0.78 0.91 0.87 0.94 1.13 1.18 1.03 1.01 1.02 0.85 0.69 0.56 0.47
0.13 0.10 0.08 0.06 0.04 0.04 0.06 0.09 0.08 0.07 0.07 0.06 0.05 0.06 0.07 0.05 0.02 0.00 0.01 0.02 0.04 0.05 0.08 0.16 0.24 0.25 0.32 0.52 0.70 0.76 0.94 1.04 0.99 0.92 0.86 0.85 0.89 0.90 0.87 0.84 0.69 0.52 0.43
0.07 0.05 0.04 0.03 0.02 0.03 0.06 0.08 0.08 0.08 0.08 0.07 0.06 0.06 0.06 0.06 0.04 0.01 0.00 0.01 0.04 0.09 0.18 0.26 0.34 0.35 0.41 0.61 0.76 0.95 1.15 1.24 1.06 0.91 0.71 0.62 0.60 0.63 0.67 0.63 0.54 0.45 0.38
0.07 0.07 0.04 0.03 0.03 0.04 0.06 0.08 0.07 0.08 0.07 0.06 0.05 0.05 0.05 0.07 0.06 0.01 0.01 0.02 0.04 0.11 0.23 0.33 0.38 0.41 0.56 0.82 1.04 1.21 1.31 1.24 1.11 0.88 0.66 0.59 0.53 0.49 0.51 0.54 0.51 0.42 0.35
0.09 0.07 0.06 0.06 0.07 0.06 0.06 0.05 0.05 0.06 0.05 0.05 0.06 0.06 0.07 0.07 0.06 0.04 0.04 0.04 0.06 0.11 0.22 0.36 0.48 0.55 0.71 0.98 1.18 1.31 1.31 1.20 1.01 0.81 0.68 0.64 0.56 0.50 0.49 0.44 0.39 0.32 0.30
0.07 0.06 0.05 0.06 0.07 0.08 0.07 0.03 0.02 0.04 0.02 0.04 0.06 0.07 0.10 0.09 0.06 0.07 0.09 0.09 0.11 0.15 0.23 0.32 0.42 0.55 0.75 0.94 1.10 1.18 1.16 1.07 0.94 0.72 0.60 0.61 0.61 0.54 0.50 0.42 0.33 0.24 0.22
0.06 0.05 0.04 0.04 0.06 0.06 0.09 0.08 0.02 0.01 0.01 0.02 0.03 0.05 0.06 0.06 0.05 0.06 0.10 0.13 0.17 0.22 0.27 0.34 0.44 0.59 0.78 0.95 1.06 1.05 0.97 0.90 0.79 0.65 0.56 0.52 0.51 0.48 0.45 0.38 0.28 0.22 0.21
0.04 0.04 0.04 0.04 0.05 0.06 0.09 0.13 0.11 0.06 0.04 0.04 0.03 0.03 0.04 0.04 0.05 0.07 0.11 0.15 0.18 0.23 0.25 0.37 0.50 0.63 0.78 0.92 0.97 0.95 0.91 0.81 0.70 0.60 0.53 0.47 0.42 0.40 0.35 0.30 0.25 0.21 0.19
0.04 0.03 0.02 0.04 0.04 0.05 0.08 0.09 0.10 0.12 0.14 0.14 0.08 0.04 0.04 0.05 0.07 0.07 0.11 0.13 0.16 0.21 0.32 0.47 0.57 0.64 0.72 0.78 0.84 0.88 0.88 0.79 0.67 0.59 0.54 0.49 0.42 0.34 0.27 0.22 0.19 0.16 0.15
0.04 0.06 0.04 0.03 0.03 0.03 0.05 0.06 0.06 0.09 0.11 0.13 0.11 0.08 0.07 0.09 0.11 0.13 0.14 0.15 0.22 0.31 0.40 0.51 0.59 0.65 0.66 0.66 0.70 0.74 0.75 0.72 0.64 0.58 0.54 0.51 0.43 0.32 0.22 0.16 0.13 0.10 0.10
0.03 0.01 0.01 0.02 0.02 0.02 0.03 0.04 0.05 0.07 0.10 0.13 0.13 0.10 0.11 0.15 0.16 0.19 0.18 0.18 0.25 0.33 0.40 0.48 0.54 0.58 0.56 0.55 0.56 0.58 0.60 0.60 0.57 0.54 0.50 0.47 0.38 0.26 0.19 0.14 0.11 0.09 0.08
0.02 0.01 0.01 0.01 0.02 0.02 0.02 0.02 0.03 0.05 0.08 0.12 0.14 0.13 0.19 0.21 0.24 0.26 0.28 0.29 0.31 0.36 0.39 0.41 0.43 0.46 0.45 0.44 0.43 0.44 0.48 0.51 0.52 0.53 0.50 0.44 0.33 0.23 0.18 0.13 0.09 0.07 0.05
0.01 0.01 0.01 0.01 0.01 0.01 0.01 0.02 0.03 0.04 0.06 0.09 0.12 0.14 0.22 0.22 0.24 0.28 0.33 0.36 0.38 0.38 0.36 0.36 0.37 0.38 0.37 0.37 0.36 0.36 0.38 0.42 0.47 0.52 0.51 0.44 0.31 0.22 0.16 0.12 0.08 0.06 0.05
0.00 0.00 0.00 0.00 0.00 0.00 0.00 0.01 0.02 0.03 0.04 0.06 0.09 0.12 0.17 0.23 0.29 0.34 0.36 0.37 0.37 0.37 0.33 0.30 0.32 0.34 0.33 0.30 0.29 0.31 0.33 0.36 0.42 0.48 0.50 0.43 0.30 0.22 0.16 0.12 0.09 0.08 0.06
0.00 0.00 0.00 0.00 0.00 0.00 0.00 0.01 0.01 0.02 0.03 0.05 0.07 0.10 0.15 0.21 0.30 0.37 0.42 0.40 0.39 0.38 0.35 0.33 0.32 0.31 0.27 0.23 0.21 0.20 0.21 0.26 0.35 0.43 0.43 0.39 0.29 0.21 0.14 0.12 0.10 0.08 0.07
0.00 0.00 0.00 0.00 0.00 0.00 0.00 0.00 0.01 0.01 0.02 0.03 0.04 0.06 0.10 0.14 0.21 0.29 0.38 0.43 0.43 0.43 0.39 0.37 0.36 0.32 0.26 0.19 0.14 0.12 0.17 0.24 0.29 0.33 0.36 0.34 0.26 0.19 0.15 0.13 0.09 0.06 0.06
0.00 0.00 0.00 0.00 0.00 0.00 0.00 0.00 0.00 0.01 0.01 0.01 0.02 0.03 0.05 0.07 0.12 0.18 0.25 0.32 0.37 0.42 0.46 0.49 0.46 0.36 0.26 0.19 0.17 0.17 0.18 0.19 0.19 0.20 0.25 0.28 0.21 0.17 0.15 0.13 0.07 0.05 0.05

GEFSGL_prec_meanprecacc_084.txt.gz
Total_Precipitation_Accumulation
0.36 0.38 0.41 0.42 0.42 0.43 0.41 0.38 0.35 0.34 0.34 0.33 0.31 0.29 0.27 0.26 0.25 0.25 0.22 0.19 0.17 0.15 0.14 0.14 0.14 0.15 0.16 0.16 0.18 0.22 0.26 0.37 0.42 0.25 0.17 0.20 0.26 0.29 0.34 0.39 0.40 0.43 0.55
0.24 0.23 0.25 0.27 0.27 0.26 0.28 0.30 0.28 0.27 0.27 0.26 0.23 0.23 0.21 0.19 0.18 0.17 0.15 0.13 0.13 0.13 0.14 0.15 0.15 0.15 0.17 0.18 0.22 0.25 0.29 0.39 0.52 0.44 0.31 0.34 0.38 0.41 0.51 0.54 0.49 0.44 0.52
0.19 0.18 0.18 0.19 0.19 0.19 0.20 0.20 0.20 0.20 0.20 0.20 0.19 0.20 0.17 0.15 0.14 0.14 0.14 0.12 0.12 0.13 0.15 0.17 0.17 0.20 0.22 0.25 0.33 0.37 0.40 0.44 0.56 0.59 0.47 0.48 0.53 0.60 0.73 0.68 0.57 0.54 0.45
0.17 0.15 0.15 0.16 0.17 0.17 0.17 0.18 0.18 0.19 0.20 0.21 0.19 0.18 0.16 0.13 0.11 0.10 0.09 0.09 0.11 0.13 0.16 0.20 0.24 0.29 0.34 0.39 0.40 0.41 0.46 0.52 0.57 0.64 0.60 0.62 0.67 0.73 0.78 0.78 0.65 0.56 0.52
0.17 0.17 0.19 0.21 0.23 0.23 0.23 0.23 0.22 0.23 0.21 0.20 0.18 0.15 0.13 0.11 0.07 0.05 0.04 0.06 0.10 0.13 0.16 0.19 0.24 0.33 0.39 0.38 0.37 0.39 0.49 0.60 0.63 0.70 0.71 0.68 0.67 0.75 0.77 0.68 0.59 0.50 0.44
0.30 0.32 0.32 0.31 0.30 0.30 0.29 0.28 0.28 0.26 0.22 0.18 0.14 0.11 0.09 0.05 0.05 0.05 0.05 0.07 0.12 0.17 0.20 0.20 0.19 0.22 0.22 0.22 0.29 0.35 0.45 0.63 0.84 0.94 0.84 0.73 0.60 0.60 0.63 0.60 0.60 0.55 0.46
0.45 0.42 0.38 0.35 0.34 0.31 0.28 0.29 0.27 0.22 0.17 0.13 0.10 0.07 0.07 0.05 0.03 0.04 0.05 0.07 0.14 0.21 0.24 0.22 0.17 0.13 0.16 0.20 0.25 0.30 0.41 0.58 0.80 1.06 1.05 0.78 0.69 0.64 0.67 0.66 0.65 0.67 0.59
0.47 0.44 0.37 0.30 0.27 0.26 0.27 0.24 0.18 0.14 0.12 0.10 0.07 0.05 0.07 0.04 0.02 0.02 0.03 0.06 0.12 0.18 0.21 0.21 0.21 0.20 0.20 0.24 0.25 0.29 0.39 0.56 0.70 0.79 1.02 0.84 0.67 0.65 0.66 0.65 0.67 0.63 0.50
0.42 0.34 0.25 0.20 0.19 0.18 0.16 0.13 0.12 0.12 0.11 0.08 0.05 0.05 0.07 0.06 0.02 0.01 0.02 0.04 0.08 0.12 0.15 0.16 0.15 0.18 0.21 0.32 0.40 0.50 0.60 0.77 0.83 0.96 1.12 1.08 0.96 0.86 0.72 0.67 0.67 0.59 0.49
0.25 0.19 0.16 0.14 0.10 0.08 0.09 0.10 0.10 0.10 0.08 0.06 0.04 0.05 0.07 0.08 0.02 0.00 0.01 0.03 0.06 0.07 0.10 0.15 0.16 0.16 0.25 0.41 0.57 0.70 0.81 0.94 0.89 0.97 1.17 1.22 1.07 1.04 1.04 0.88 0.74 0.60 0.52
0.13 0.11 0.09 0.07 0.05 0.04 0.07 0.09 0.09 0.07 0.07 0.07 0.06 0.06 0.07 0.05 0.03 0.00 0.01 0.02 0.04 0.05 0.09 0.18 0.26 0.25 0.32 0.52 0.71 0.79 0.96 1.04 1.01 0.96 0.91 0.90 0.95 0.95 0.91 0.87 0.72 0.56 0.47
0.07 0.06 0.04 0.03 0.02 0.03 0.07 0.09 0.08 0.09 0.09 0.07 0.07 0.06 0.06 0.07 0.04 0.01 0.00 0.01 0.04 0.09 0.19 0.27 0.35 0.35 0.41 0.61 0.77 0.96 1.16 1.25 1.09 0.96 0.77 0.67 0.65 0.67 0.69 0.65 0.57 0.47 0.41
0.08 0.07 0.05 0.04 0.04 0.04 0.07 0.08 0.08 0.09 0.08 0.06 0.06 0.05 0.05 0.07 0.06 0.01 0.01 0.02 0.04 0.11 0.24 0.34 0.39 0.41 0.57 0.84 1.05 1.21 1.32 1.28 1.16 0.93 0.71 0.64 0.57 0.53 0.54 0.57 0.54 0.45 0.39
0.09 0.08 0.07 0.07 0.07 0.06 0.07 0.05 0.06 0.06 0.06 0.06 0.06 0.07 0.07 0.08 0.06 0.04 0.04 0.05 0.07 0.12 0.24 0.38 0.49 0.56 0.73 1.00 1.20 1.34 1.36 1.24 1.04 0.86 0.73 0.69 0.61 0.54 0.53 0.47 0.42 0.36 0.35
0.08 0.07 0.06 0.07 0.08 0.08 0.07 0.03 0.02 0.04 0.02 0.04 0.07 0.08 0.10 0.09 0.06 0.07 0.09 0.09 0.11 0.15 0.24 0.35 0.46 0.58 0.78 0.97 1.14 1.22 1.21 1.11 0.98 0.77 0.65 0.66 0.65 0.58 0.54 0.45 0.36 0.28 0.27
0.08 0.07 0.05 0.05 0.06 0.07 0.10 0.08 0.02 0.01 0.01 0.02 0.03 0.05 0.06 0.06 0.05 0.07 0.10 0.13 0.17 0.22 0.29 0.37 0.47 0.61 0.80 0.98 1.09 1.08 1.01 0.93 0.82 0.68 0.60 0.56 0.56 0.53 0.51 0.43 0.33 0.27 0.27
0.05 0.06 0.04 0.04 0.05 0.06 0.09 0.14 0.12 0.07 0.04 0.04 0.03 0.04 0.04 0.04 0.05 0.07 0.11 0.16 0.18 0.24 0.28 0.40 0.52 0.65 0.80 0.94 1.00 0.98 0.94 0.84 0.73 0.64 0.57 0.52 0.47 0.45 0.40 0.35 0.30 0.27 0.25
0.05 0.03 0.02 0.04 0.05 0.06 0.08 0.10 0.11 0.13 0.15 0.15 0.08 0.04 0.04 0.05 0.07 0.08 0.11 0.15 0.18 0.23 0.34 0.49 0.59 0.66 0.73 0.80 0.86 0.90 0.90 0.82 0.71 0.63 0.59 0.54 0.47 0.39 0.32 0.27 0.23 0.21 0.20
0.04 0.06 0.04 0.03 0.03 0.04 0.05 0.07 0.07 0.09 0.12 0.13 0.12 0.09 0.08 0.09 0.11 0.14 0.15 0.17 0.23 0.32 0.41 0.52 0.60 0.66 0.67 0.67 0.71 0.76 0.77 0.75 0.67 0.61 0.58 0.55 0.47 0.37 0.28 0.21 0.17 0.11 0.13
0.03 0.01 0.02 0.02 0.02 0.02 0.04 0.05 0.05 0.08 0.11 0.13 0.14 0.11 0.12 0.17 0.19 0.21 0.20 0.20 0.26 0.34 0.41 0.49 0.55 0.59 0.56 0.56 0.57 0.59 0.61 0.62 0.58 0.55 0.52 0.50 0.41 0.30 0.23 0.18 0.16 0.13 0.12
0.02 0.01 0.01 0.01 0.02 0.02 0.03 0.03 0.04 0.06 0.09 0.13 0.15 0.13 0.19 0.23 0.26 0.28 0.30 0.30 0.32 0.36 0.40 0.41 0.43 0.46 0.45 0.44 0.43 0.45 0.48 0.52 0.53 0.54 0.51 0.45 0.35 0.26 0.21 0.16 0.13 0.10 0.09
0.01 0.01 0.01 0.01 0.01 0.01 0.01 0.02 0.03 0.04 0.07 0.10 0.13 0.14 0.22 0.24 0.26 0.30 0.34 0.37 0.38 0.38 0.37 0.36 0.37 0.38 0.37 0.37 0.36 0.36 0.39 0.42 0.48 0.52 0.52 0.44 0.32 0.24 0.18 0.14 0.11 0.09 0.08
0.00 0.00 0.00 0.00 0.00 0.00 0.00 0.01 0.02 0.03 0.05 0.07 0.10 0.13 0.18 0.24 0.30 0.35 0.37 0.37 0.38 0.37 0.33 0.30 0.32 0.34 0.33 0.30 0.29 0.31 0.33 0.36 0.42 0.48 0.50 0.43 0.31 0.22 0.17 0.14 0.11 0.10 0.07
0.00 0.00 0.00 0.00 0.00 0.00 0.00 0.01 0.01 0.02 0.03 0.05 0.08 0.11 0.16 0.22 0.30 0.38 0.42 0.41 0.39 0.38 0.35 0.33 0.32 0.31 0.27 0.23 0.21 0.20 0.21 0.26 0.35 0.43 0.43 0.39 0.30 0.21 0.14 0.12 0.11 0.09 0.08
0.00 0.00 0.00 0.00 0.00 0.00 0.00 0.01 0.01 0.02 0.02 0.03 0.05 0.07 0.11 0.15 0.21 0.30 0.38 0.43 0.43 0.43 0.39 0.37 0.36 0.32 0.26 0.19 0.14 0.12 0.17 0.24 0.29 0.33 0.37 0.34 0.26 0.19 0.15 0.13 0.10 0.06 0.06
0.00 0.00 0.00 0.00 0.00 0.00 0.00 0.00 0.00 0.01 0.01 0.01 0.02 0.03 0.05 0.08 0.12 0.18 0.25 0.32 0.37 0.42 0.46 0.49 0.46 0.36 0.26 0.19 0.17 0.17 0.18 0.19 0.19 0.20 0.25 0.28 0.21 0.17 0.15 0.13 0.07 0.05 0.05

GEFSGL_prec_meanprecacc_090.txt.gz
Total_Precipitation_Accumulation
0.38 0.40 0.43 0.45 0.45 0.46 0.45 0.43 0.40 0.39 0.39 0.39 0.37 0.35 0.34 0.34 0.33 0.33 0.30 0.26 0.23 0.21 0.18 0.17 0.17 0.17 0.18 0.17 0.19 0.23 0.28 0.39 0.44 0.27 0.19 0.22 0.28 0.31 0.35 0.41 0.41 0.45 0.57
0.25 0.24 0.27 0.29 0.28 0.28 0.30 0.32 0.31 0.31 0.31 0.30 0.28 0.28 0.26 0.25 0.24 0.22 0.20 0.18 0.17 0.16 0.16 0.17 0.16 0.16 0.18 0.19 0.23 0.26 0.31 0.41 0.54 0.46 0.33 0.36 0.40 0.43 0.54 0.57 0.50 0.45 0.53
0.21 0.20 0.20 0.20 0.21 0.21 0.22 0.22 0.23 0.23 0.23 0.23 0.22 0.22 0.20 0.18 0.17 0.16 0.16 0.15 0.14 0.15 0.16 0.18 0.18 0.21 0.23 0.27 0.35 0.39 0.42 0.45 0.59 0.61 0.49 0.50 0.55 0.62 0.75 0.70 0.59 0.57 0.46
0.20 0.17 0.17 0.18 0.19 0.19 0.19 0.20 0.20 0.20 0.21 0.21 0.20 0.18 0.16 0.14 0.12 0.11 0.10 0.10 0.11 0.14 0.17 0.21 0.24 0.30 0.35 0.40 0.41 0.43 0.47 0.53 0.59 0.66 0.63 0.65 0.70 0.76 0.81 0.81 0.67 0.59 0.55
0.19 0.18 0.20 0.22 0.24 0.24 0.24 0.24 0.24 0.24 0.22 0.21 0.19 0.16 0.14 0.11 0.08 0.05 0.05 0.07 0.11 0.14 0.17 0.20 0.25 0.33 0.39 0.38 0.37 0.39 0.50 0.62 0.64 0.72 0.74 0.71 0.69 0.78 0.80 0.71 0.62 0.52 0.47
0.31 0.33 0.33 0.32 0.31 0.31 0.30 0.29 0.29 0.27 0.23 0.18 0.15 0.11 0.09 0.06 0.05 0.05 0.05 0.07 0.13 0.18 0.21 0.21 0.20 0.23 0.22 0.23 0.29 0.35 0.46 0.64 0.85 0.95 0.86 0.76 0.63 0.64 0.67 0.62 0.62 0.58 0.49
0.46 0.43 0.40 0.36 0.35 0.32 0.29 0.30 0.29 0.24 0.19 0.15 0.12 0.08 0.08 0.05 0.03 0.04 0.05 0.07 0.15 0.22 0.26 0.24 0.19 0.15 0.17 0.22 0.26 0.31 0.43 0.59 0.81 1.07 1.08 0.81 0.73 0.67 0.70 0.68 0.68 0.70 0.62
0.49 0.46 0.39 0.32 0.28 0.27 0.28 0.26 0.20 0.16 0.14 0.12 0.09 0.07 0.09 0.05 0.02 0.02 0.03 0.06 0.14 0.19 0.22 0.22 0.24 0.23 0.21 0.24 0.25 0.31 0.45 0.61 0.73 0.80 1.04 0.87 0.69 0.66 0.68 0.67 0.69 0.66 0.54
0.45 0.37 0.28 0.23 0.22 0.20 0.19 0.16 0.14 0.14 0.13 0.09 0.06 0.07 0.09 0.07 0.02 0.02 0.02 0.05 0.10 0.14 0.17 0.18 0.16 0.20 0.21 0.32 0.41 0.53 0.66 0.83 0.85 0.97 1.12 1.08 0.96 0.86 0.72 0.67 0.70 0.64 0.54
0.28 0.22 0.19 0.16 0.13 0.11 0.12 0.12 0.12 0.12 0.10 0.07 0.05 0.06 0.09 0.09 0.02 0.00 0.01 0.04 0.07 0.10 0.15 0.20 0.17 0.17 0.25 0.41 0.57 0.73 0.85 0.97 0.91 1.00 1.22 1.28 1.13 1.09 1.05 0.89 0.77 0.65 0.58
0.17 0.14 0.12 0.09 0.07 0.07 0.09 0.11 0.11 0.10 0.10 0.08 0.07 0.08 0.09 0.06 0.03 0.00 0.01 0.02 0.04 0.08 0.15 0.25 0.30 0.25 0.32 0.52 0.71 0.80 0.97 1.05 1.02 1.01 0.99 0.99 1.05 1.04 0.99 0.94 0.79 0.62 0.53
0.10 0.08 0.06 0.05 0.03 0.04 0.09 0.11 0.11 0.12 0.11 0.09 0.09 0.08 0.08 0.09 0.04 0.01 0.00 0.01 0.04 0.11 0.25 0.31 0.36 0.35 0.41 0.61 0.77 0.96 1.16 1.25 1.14 1.05 0.87 0.77 0.72 0.73 0.75 0.71 0.64 0.54 0.48
0.10 0.09 0.07 0.05 0.05 0.05 0.08 0.10 0.10 0.10 0.09 0.07 0.07 0.08 0.08 0.11 0.08 0.01 0.01 0.02 0.04 0.12 0.26 0.34 0.39 0.41 0.57 0.86 1.06 1.21 1.33 1.34 1.24 1.03 0.81 0.73 0.64 0.59 0.59 0.62 0.60 0.52 0.45
0.12 0.10 0.09 0.10 0.10 0.08 0.08 0.06 0.07 0.07 0.06 0.07 0.08 0.09 0.10 0.12 0.08 0.05 0.05 0.06 0.08 0.13 0.26 0.40 0.51 0.57 0.74 1.02 1.23 1.39 1.42 1.30 1.09 0.93 0.80 0.76 0.67 0.59 0.59 0.52 0.48 0.44 0.43
0.11 0.09 0.09 0.09 0.10 0.10 0.09 0.04 0.03 0.04 0.02 0.04 0.07 0.08 0.11 0.11 0.06 0.07 0.09 0.10 0.11 0.16 0.25 0.39 0.53 0.65 0.83 1.03 1.19 1.28 1.27 1.17 1.03 0.82 0.70 0.72 0.71 0.65 0.61 0.51 0.42 0.35 0.36
0.11 0.09 0.06 0.07 0.07 0.08 0.12 0.10 0.02 0.01 0.01 0.02 0.03 0.05 0.06 0.06 0.05 0.07 0.10 0.13 0.17 0.22 0.30 0.42 0.54 0.66 0.84 1.01 1.13 1.13 1.06 0.98 0.86 0.72 0.64 0.62 0.62 0.60 0.58 0.50 0.40 0.34 0.35
0.08 0.07 0.05 0.05 0.05 0.07 0.11 0.17 0.15 0.08 0.04 0.04 0.03 0.04 0.04 0.04 0.05 0.07 0.11 0.16 0.18 0.24 0.31 0.46 0.59 0.69 0.85 0.98 1.04 1.02 0.99 0.90 0.79 0.70 0.64 0.58 0.53 0.50 0.46 0.40 0.35 0.33 0.31
0.06 0.04 0.03 0.05 0.05 0.07 0.09 0.11 0.13 0.16 0.18 0.17 0.09 0.04 0.04 0.05 0.07 0.08 0.11 0.15 0.20 0.25 0.38 0.53 0.63 0.70 0.77 0.84 0.90 0.94 0.95 0.87 0.76 0.68 0.65 0.59 0.51 0.44 0.36 0.31 0.28 0.25 0.25
0.05 0.07 0.05 0.04 0.04 0.04 0.06 0.08 0.09 0.11 0.14 0.16 0.15 0.10 0.08 0.10 0.12 0.14 0.16 0.19 0.27 0.34 0.44 0.54 0.62 0.67 0.69 0.69 0.74 0.79 0.81 0.79 0.71 0.65 0.62 0.59 0.51 0.42 0.33 0.26 0.21 0.14 0.16
0.03 0.01 0.02 0.02 0.02 0.02 0.04 0.05 0.07 0.09 0.13 0.16 0.17 0.14 0.14 0.21 0.25 0.27 0.24 0.22 0.27 0.35 0.42 0.50 0.55 0.59 0.57 0.57 0.58 0.61 0.64 0.64 0.61 0.58 0.55 0.52 0.44 0.34 0.27 0.22 0.18 0.16 0.17
0.03 0.01 0.01 0.01 0.02 0.03 0.03 0.03 0.05 0.07 0.11 0.16 0.16 0.13 0.20 0.27 0.32 0.34 0.33 0.31 0.33 0.37 0.40 0.42 0.44 0.46 0.45 0.44 0.44 0.45 0.49 0.53 0.54 0.55 0.52 0.46 0.37 0.28 0.23 0.18 0.14 0.12 0.11
0.01 0.01 0.01 0.01 0.01 0.01 0.01 0.02 0.04 0.06 0.08 0.11 0.14 0.15 0.22 0.26 0.30 0.33 0.36 0.38 0.38 0.38 0.37 0.36 0.37 0.38 0.37 0.37 0.36 0.36 0.39 0.42 0.48 0.52 0.52 0.45 0.34 0.25 0.19 0.14 0.11 0.10 0.09
0.00 0.00 0.00 0.01 0.00 0.00 0.01 0.02 0.03 0.04 0.07 0.08 0.11 0.14 0.19 0.27 0.33 0.37 0.39 0.38 0.38 0.37 0.33 0.30 0.32 0.34 0.33 0.30 0.29 0.31 0.33 0.36 0.42 0.48 0.51 0.44 0.32 0.23 0.17 0.14 0.13 0.11 0.07
0.00 0.00 0.00 0.00 0.00 0.00 0.01 0.01 0.01 0.02 0.04 0.07 0.09 0.13 0.17 0.25 0.32 0.39 0.43 0.41 0.39 0.38 0.35 0.33 0.32 0.31 0.27 0.23 0.21 0.20 0.21 0.26 0.35 0.43 0.43 0.40 0.30 0.21 0.14 0.12 0.11 0.09 0.08
0.00 0.00 0.00 0.00 0.00 0.00 0.01 0.01 0.01 0.02 0.02 0.04 0.06 0.08 0.12 0.16 0.22 0.30 0.38 0.43 0.43 0.43 0.39 0.37 0.36 0.32 0.26 0.19 0.14 0.12 0.17 0.24 0.29 0.33 0.37 0.35 0.26 0.20 0.15 0.13 0.10 0.06 0.06
0.00 0.00 0.00 0.00 0.00 0.00 0.00 0.01 0.01 0.01 0.01 0.02 0.03 0.04 0.05 0.08 0.12 0.18 0.25 0.32 0.37 0.42 0.46 0.49 0.46 0.36 0.26 0.19 0.17 0.17 0.18 0.19 0.19 0.20 0.25 0.28 0.21 0.17 0.15 0.13 0.07 0.05 0.05

GEFSGL_prec_meanprecacc_096.txt.gz
Total_Precipitation_Accumulation
0.42 0.44 0.47 0.48 0.49 0.49 0.48 0.46 0.43 0.42 0.42 0.42 0.40 0.37 0.36 0.36 0.36 0.36 0.33 0.29 0.26 0.24 0.21 0.19 0.19 0.18 0.19 0.18 0.21 0.25 0.30 0.40 0.47 0.29 0.21 0.23 0.29 0.32 0.36 0.41 0.42 0.45 0.57
0.28 0.27 0.29 0.31 0.30 0.30 0.32 0.35 0.34 0.33 0.33 0.33 0.30 0.29 0.27 0.26 0.25 0.23 0.21 0.19 0.18 0.17 0.17 0.18 0.17 0.18 0.19 0.20 0.24 0.28 0.32 0.42 0.55 0.48 0.34 0.37 0.41 0.44 0.54 0.57 0.50 0.45 0.53
0.24 0.23 0.22 0.22 0.23 0.23 0.23 0.24 0.24 0.24 0.24 0.24 0.23 0.23 0.21 0.19 0.18 0.17 0.17 0.15 0.15 0.16 0.17 0.18 0.18 0.22 0.24 0.28 0.36 0.40 0.42 0.46 0.59 0.62 0.49 0.51 0.55 0.62 0.75 0.70 0.59 0.57 0.46
0.22 0.18 0.18 0.19 0.21 0.20 0.20 0.21 0.21 0.20 0.21 0.22 0.20 0.18 0.16 0.14 0.12 0.11 0.11 0.10 0.12 0.14 0.17 0.21 0.25 0.30 0.35 0.40 0.42 0.43 0.48 0.54 0.60 0.67 0.63 0.65 0.71 0.76 0.81 0.82 0.67 0.59 0.55
0.20 0.19 0.21 0.23 0.25 0.25 0.25 0.25 0.25 0.25 0.23 0.22 0.19 0.16 0.14 0.11 0.08 0.06 0.05 0.07 0.11 0.14 0.17 0.20 0.25 0.33 0.40 0.39 0.37 0.39 0.50 0.62 0.65 0.73 0.74 0.71 0.69 0.78 0.81 0.71 0.62 0.52 0.47
0.33 0.34 0.34 0.33 0.32 0.32 0.31 0.30 0.29 0.27 0.23 0.19 0.15 0.12 0.10 0.06 0.05 0.05 0.05 0.07 0.13 0.18 0.21 0.22 0.20 0.23 0.22 0.23 0.29 0.35 0.46 0.64 0.85 0.96 0.87 0.76 0.63 0.64 0.67 0.63 0.63 0.58 0.49
0.48 0.45 0.40 0.37 0.35 0.33 0.30 0.31 0.29 0.24 0.19 0.15 0.12 0.08 0.08 0.05 0.03 0.04 0.05 0.07 0.15 0.22 0.26 0.24 0.19 0.15 0.18 0.22 0.26 0.31 0.43 0.59 0.81 1.07 1.08 0.81 0.73 0.67 0.70 0.68 0.68 0.71 0.62
0.51 0.47 0.39 0.32 0.29 0.28 0.29 0.27 0.21 0.16 0.15 0.13 0.10 0.07 0.09 0.05 0.02 0.02 0.03 0.06 0.14 0.19 0.22 0.23 0.24 0.24 0.21 0.24 0.25 0.31 0.45 0.61 0.73 0.80 1.04 0.87 0.69 0.66 0.68 0.67 0.69 0.66 0.54
0.47 0.38 0.29 0.23 0.23 0.22 0.20 0.17 0.15 0.15 0.14 0.09 0.06 0.07 0.09 0.07 0.02 0.02 0.02 0.05 0.10 0.14 0.17 0.18 0.16 0.20 0.21 0.32 0.41 0.53 0.66 0.83 0.85 0.97 1.12 1.08 0.96 0.87 0.73 0.67 0.70 0.64 0.54
0.30 0.24 0.20 0.17 0.14 0.12 0.13 0.13 0.13 0.13 0.11 0.07 0.05 0.06 0.09 0.09 0.02 0.00 0.01 0.04 0.07 0.10 0.15 0.20 0.17 0.17 0.25 0.41 0.57 0.73 0.85 0.97 0.91 1.00 1.22 1.28 1.13 1.09 1.06 0.89 0.77 0.66 0.58
0.18 0.15 0.12 0.09 0.08 0.07 0.10 0.12 0.12 0.10 0.10 0.08 0.07 0.08 0.09 0.06 0.03 0.00 0.01 0.02 0.04 0.08 0.15 0.25 0.30 0.25 0.32 0.52 0.71 0.80 0.97 1.05 1.02 1.01 0.99 0.99 1.05 1.04 0.99 0.94 0.79 0.63 0.54
0.11 0.08 0.07 0.06 0.04 0.05 0.10 0.11 0.11 0.12 0.11 0.09 0.09 0.08 0.09 0.09 0.04 0.01 0.00 0.01 0.04 0.11 0.25 0.31 0.36 0.35 0.41 0.61 0.77 0.96 1.16 1.25 1.14 1.06 0.87 0.77 0.73 0.74 0.76 0.71 0.64 0.54 0.48
0.10 0.10 0.08 0.06 0.06 0.05 0.09 0.10 0.10 0.10 0.09 0.07 0.07 0.08 0.08 0.11 0.08 0.01 0.01 0.02 0.04 0.12 0.26 0.35 0.39 0.42 0.57 0.86 1.06 1.21 1.33 1.34 1.24 1.03 0.81 0.73 0.65 0.59 0.59 0.62 0.61 0.52 0.46
0.12 0.11 0.10 0.11 0.10 0.08 0.08 0.06 0.07 0.07 0.06 0.07 0.08 0.09 0.11 0.12 0.08 0.05 0.05 0.06 0.08 0.13 0.26 0.40 0.51 0.58 0.74 1.02 1.23 1.39 1.42 1.30 1.09 0.94 0.81 0.76 0.67 0.60 0.59 0.52 0.49 0.44 0.43
0.11 0.10 0.09 0.10 0.11 0.11 0.09 0.04 0.03 0.04 0.02 0.04 0.07 0.09 0.11 0.11 0.06 0.07 0.09 0.10 0.11 0.16 0.25 0.40 0.54 0.66 0.84 1.04 1.20 1.29 1.28 1.18 1.04 0.83 0.71 0.72 0.72 0.65 0.61 0.51 0.43 0.36 0.37
0.11 0.09 0.07 0.07 0.07 0.08 0.13 0.10 0.02 0.01 0.01 0.02 0.03 0.05 0.06 0.06 0.05 0.07 0.10 0.13 0.17 0.23 0.30 0.43 0.54 0.66 0.84 1.02 1.13 1.14 1.07 0.99 0.87 0.73 0.65 0.62 0.63 0.61 0.58 0.50 0.40 0.35 0.35
0.08 0.07 0.05 0.05 0.05 0.07 0.12 0.17 0.15 0.08 0.04 0.04 0.03 0.04 0.04 0.04 0.05 0.07 0.11 0.16 0.18 0.24 0.31 0.47 0.59 0.70 0.85 0.98 1.04 1.03 1.00 0.90 0.79 0.70 0.64 0.58 0.53 0.50 0.46 0.40 0.35 0.33 0.31
0.06 0.04 0.03 0.05 0.05 0.07 0.09 0.11 0.13 0.16 0.18 0.17 0.09 0.04 0.04 0.05 0.07 0.08 0.11 0.16 0.21 0.25 0.38 0.53 0.64 0.70 0.78 0.84 0.90 0.95 0.96 0.87 0.76 0.68 0.65 0.59 0.52 0.44 0.36 0.31 0.28 0.25 0.25
0.05 0.07 0.05 0.04 0.04 0.04 0.06 0.08 0.09 0.11 0.15 0.16 0.15 0.10 0.08 0.10 0.12 0.14 0.16 0.19 0.27 0.35 0.44 0.55 0.62 0.67 0.69 0.69 0.74 0.79 0.82 0.79 0.71 0.65 0.62 0.59 0.52 0.43 0.33 0.26 0.21 0.14 0.16
0.03 0.01 0.02 0.02 0.02 0.02 0.04 0.05 0.07 0.09 0.13 0.17 0.17 0.14 0.14 0.21 0.26 0.28 0.25 0.23 0.27 0.35 0.43 0.50 0.55 0.59 0.57 0.57 0.58 0.61 0.64 0.64 0.61 0.58 0.55 0.53 0.45 0.34 0.28 0.22 0.19 0.17 0.17
0.03 0.01 0.01 0.01 0.02 0.03 0.03 0.03 0.05 0.08 0.12 0.16 0.16 0.13 0.20 0.27 0.33 0.34 0.33 0.31 0.33 0.37 0.40 0.42 0.44 0.46 0.45 0.44 0.44 0.45 0.49 0.53 0.54 0.55 0.52 0.46 0.37 0.29 0.23 0.18 0.14 0.12 0.11
0.01 0.01 0.01 0.01 0.01 0.01 0.01 0.02 0.04 0.06 0.08 0.12 0.14 0.15 0.22 0.26 0.30 0.33 0.36 0.38 0.38 0.38 0.37 0.36 0.37 0.38 0.37 0.37 0.36 0.36 0.39 0.42 0.48 0.52 0.52 0.45 0.34 0.25 0.19 0.14 0.12 0.10 0.09
0.00 0.00 0.00 0.01 0.00 0.00 0.01 0.02 0.03 0.05 0.07 0.08 0.11 0.14 0.19 0.27 0.33 0.37 0.39 0.38 0.38 0.37 0.33 0.30 0.32 0.34 0.33 0.30 0.29 0.31 0.33 0.36 0.42 0.48 0.51 0.44 0.32 0.23 0.17 0.15 0.13 0.11 0.07
0.00 0.00 0.00 0.00 0.00 0.00 0.01 0.01 0.02 0.03 0.04 0.07 0.09 0.13 0.18 0.25 0.32 0.39 0.43 0.41 0.39 0.38 0.35 0.33 0.32 0.31 0.27 0.23 0.21 0.20 0.21 0.26 0.35 0.43 0.43 0.40 0.30 0.21 0.14 0.12 0.11 0.09 0.08
0.00 0.00 0.00 0.00 0.00 0.00 0.01 0.01 0.01 0.02 0.02 0.04 0.06 0.08 0.12 0.16 0.22 0.30 0.38 0.43 0.43 0.43 0.39 0.37 0.36 0.32 0.26 0.19 0.14 0.12 0.17 0.24 0.29 0.33 0.37 0.35 0.26 0.20 0.15 0.13 0.10 0.06 0.06
0.00 0.00 0.00 0.00 0.00 0.00 0.00 0.01 0.01 0.01 0.01 0.02 0.03 0.04 0.05 0.08 0.12 0.18 0.25 0.32 0.37 0.42 0.46 0.49 0.46 0.36 0.26 0.19 0.17 0.17 0.18 0.19 0.19 0.20 0.25 0.28 0.21 0.17 0.15 0.13 0.07 0.05 0.05

GEFSGL_prec_meanprecacc_102.txt.gz
Total_Precipitation_Accumulation
0.53 0.53 0.53 0.53 0.54 0.55 0.53 0.49 0.46 0.44 0.44 0.45 0.42 0.40 0.39 0.39 0.37 0.37 0.34 0.30 0.27 0.25 0.21 0.20 0.19 0.18 0.19 0.19 0.21 0.25 0.30 0.41 0.48 0.32 0.23 0.26 0.32 0.35 0.38 0.43 0.42 0.46 0.58
0.39 0.36 0.35 0.35 0.33 0.33 0.35 0.37 0.35 0.35 0.36 0.36 0.33 0.31 0.29 0.26 0.25 0.24 0.22 0.19 0.19 0.18 0.18 0.19 0.18 0.18 0.20 0.21 0.25 0.28 0.32 0.43 0.56 0.49 0.36 0.39 0.43 0.46 0.56 0.58 0.51 0.46 0.53
0.33 0.30 0.27 0.26 0.25 0.25 0.25 0.25 0.25 0.25 0.26 0.25 0.24 0.24 0.22 0.20 0.18 0.18 0.17 0.16 0.15 0.16 0.18 0.19 0.19 0.22 0.24 0.28 0.36 0.40 0.43 0.46 0.60 0.63 0.51 0.53 0.58 0.64 0.76 0.71 0.60 0.57 0.46
0.28 0.24 0.22 0.23 0.23 0.22 0.21 0.21 0.21 0.21 0.22 0.22 0.20 0.19 0.17 0.14 0.13 0.12 0.11 0.10 0.12 0.14 0.17 0.21 0.25 0.31 0.35 0.41 0.43 0.44 0.49 0.55 0.60 0.67 0.64 0.67 0.72 0.77 0.82 0.82 0.68 0.60 0.55
0.25 0.24 0.25 0.26 0.26 0.26 0.26 0.25 0.25 0.25 0.23 0.22 0.19 0.16 0.14 0.12 0.08 0.06 0.05 0.07 0.11 0.15 0.17 0.20 0.25 0.33 0.40 0.39 0.37 0.40 0.50 0.63 0.66 0.74 0.75 0.71 0.70 0.79 0.81 0.72 0.62 0.53 0.47
0.35 0.36 0.36 0.35 0.33 0.32 0.31 0.30 0.30 0.27 0.24 0.19 0.15 0.12 0.10 0.06 0.05 0.06 0.05 0.08 0.13 0.18 0.22 0.22 0.20 0.23 0.22 0.23 0.29 0.35 0.46 0.64 0.85 0.96 0.87 0.77 0.64 0.65 0.68 0.63 0.63 0.58 0.49
0.50 0.47 0.42 0.37 0.36 0.33 0.30 0.31 0.29 0.24 0.19 0.15 0.12 0.08 0.08 0.05 0.04 0.04 0.05 0.07 0.15 0.22 0.26 0.24 0.19 0.15 0.18 0.22 0.26 0.31 0.43 0.59 0.81 1.07 1.08 0.82 0.73 0.67 0.70 0.68 0.68 0.71 0.62
0.53 0.49 0.40 0.32 0.29 0.28 0.29 0.27 0.21 0.16 0.15 0.13 0.10 0.07 0.09 0.05 0.02 0.02 0.03 0.06 0.14 0.19 0.22 0.23 0.24 0.24 0.21 0.24 0.25 0.31 0.45 0.61 0.73 0.80 1.04 0.87 0.69 0.66 0.68 0.67 0.69 0.66 0.54
0.48 0.38 0.29 0.23 0.23 0.22 0.20 0.17 0.15 0.15 0.14 0.09 0.06 0.07 0.09 0.07 0.02 0.02 0.02 0.05 0.10 0.14 0.17 0.18 0.16 0.20 0.21 0.32 0.41 0.54 0.67 0.84 0.85 0.97 1.12 1.08 0.96 0.87 0.73 0.67 0.70 0.64 0.54
0.31 0.24 0.20 0.18 0.14 0.13 0.13 0.13 0.13 0.13 0.11 0.07 0.05 0.06 0.09 0.09 0.02 0.00 0.01 0.04 0.07 0.10 0.15 0.20 0.17 0.17 0.25 0.41 0.57 0.73 0.85 0.97 0.91 1.00 1.22 1.28 1.13 1.09 1.06 0.89 0.77 0.66 0.58
0.20 0.16 0.13 0.10 0.08 0.07 0.10 0.12 0.12 0.10 0.10 0.08 0.07 0.08 0.09 0.06 0.03 0.00 0.01 0.02 0.04 0.08 0.15 0.25 0.30 0.25 0.32 0.52 0.71 0.80 0.97 1.05 1.02 1.01 0.99 0.99 1.05 1.04 0.99 0.94 0.79 0.63 0.54
0.13 0.10 0.08 0.06 0.04 0.05 0.10 0.11 0.11 0.12 0.11 0.09 0.09 0.08 0.09 0.09 0.04 0.01 0.00 0.01 0.04 0.11 0.25 0.31 0.36 0.35 0.41 0.61 0.77 0.96 1.16 1.25 1.14 1.06 0.87 0.77 0.73 0.74 0.76 0.71 0.64 0.54 0.49
0.11 0.10 0.08 0.06 0.06 0.05 0.09 0.11 0.10 0.10 0.09 0.07 0.07 0.08 0.08 0.11 0.08 0.01 0.01 0.02 0.04 0.12 0.26 0.35 0.39 0.42 0.57 0.86 1.06 1.21 1.33 1.34 1.24 1.03 0.82 0.73 0.65 0.59 0.59 0.62 0.61 0.52 0.46
0.13 0.11 0.10 0.11 0.11 0.08 0.08 0.06 0.07 0.07 0.06 0.07 0.08 0.10 0.11 0.12 0.08 0.05 0.05 0.06 0.08 0.13 0.26 0.41 0.52 0.58 0.75 1.02 1.23 1.39 1.43 1.31 1.09 0.94 0.81 0.77 0.67 0.60 0.59 0.52 0.49 0.44 0.43
0.12 0.10 0.09 0.10 0.11 0.11 0.09 0.04 0.03 0.04 0.02 0.04 0.07 0.09 0.11 0.11 0.07 0.07 0.09 0.10 0.11 0.16 0.26 0.40 0.54 0.66 0.85 1.05 1.21 1.29 1.28 1.18 1.04 0.83 0.71 0.72 0.72 0.65 0.61 0.51 0.43 0.36 0.37
0.11 0.09 0.07 0.07 0.07 0.08 0.13 0.10 0.02 0.01 0.01 0.02 0.03 0.05 0.06 0.06 0.05 0.07 0.10 0.13 0.17 0.23 0.30 0.43 0.55 0.67 0.84 1.02 1.14 1.14 1.07 0.99 0.87 0.73 0.65 0.62 0.63 0.61 0.58 0.50 0.40 0.35 0.35
0.09 0.07 0.05 0.05 0.05 0.07 0.12 0.17 0.15 0.08 0.04 0.04 0.03 0.04 0.04 0.04 0.05 0.07 0.11 0.16 0.19 0.25 0.31 0.47 0.59 0.70 0.85 0.98 1.04 1.03 1.00 0.90 0.79 0.70 0.64 0.58 0.53 0.50 0.46 0.40 0.35 0.33 0.31
0.06 0.04 0.03 0.05 0.05 0.07 0.09 0.11 0.13 0.16 0.18 0.17 0.09 0.04 0.04 0.06 0.07 0.08 0.11 0.16 0.21 0.25 0.38 0.53 0.64 0.70 0.78 0.84 0.90 0.95 0.96 0.87 0.76 0.68 0.65 0.59 0.52 0.44 0.36 0.31 0.28 0.25 0.25
0.05 0.07 0.05 0.04 0.04 0.05 0.06 0.08 0.09 0.11 0.15 0.16 0.15 0.10 0.08 0.10 0.12 0.15 0.16 0.20 0.27 0.35 0.44 0.55 0.62 0.67 0.69 0.69 0.74 0.79 0.82 0.79 0.71 0.65 0.62 0.59 0.52 0.43 0.33 0.26 0.21 0.14 0.16
0.03 0.01 0.02 0.02 0.02 0.03 0.04 0.05 0.07 0.09 0.13 0.17 0.17 0.14 0.14 0.21 0.26 0.28 0.25 0.23 0.27 0.35 0.43 0.50 0.55 0.59 0.57 0.57 0.58 0.61 0.64 0.64 0.61 0.58 0.55 0.53 0.45 0.34 0.28 0.22 0.19 0.17 0.17
0.03 0.01 0.01 0.01 0.02 0.03 0.03 0.03 0.05 0.08 0.12 0.16 0.16 0.13 0.20 0.27 0.33 0.34 0.33 0.31 0.33 0.37 0.40 0.42 0.44 0.46 0.45 0.44 0.44 0.45 0.49 0.53 0.54 0.55 0.52 0.46 0.37 0.29 0.23 0.18 0.14 0.12 0.11
0.01 0.01 0.01 0.01 0.01 0.01 0.01 0.02 0.04 0.06 0.08 0.12 0.14 0.15 0.22 0.26 0.30 0.33 0.36 0.38 0.38 0.38 0.37 0.36 0.37 0.38 0.37 0.37 0.36 0.36 0.39 0.42 0.48 0.52 0.52 0.45 0.34 0.25 0.19 0.14 0.12 0.10 0.09
0.00 0.00 0.00 0.01 0.00 0.00 0.01 0.02 0.03 0.05 0.07 0.08 0.11 0.14 0.19 0.27 0.33 0.37 0.39 0.38 0.38 0.37 0.33 0.30 0.32 0.34 0.33 0.30 0.29 0.31 0.33 0.36 0.42 0.48 0.51 0.44 0.32 0.23 0.17 0.15 0.13 0.11 0.07
0.00 0.00 0.00 0.00 0.00 0.00 0.01 0.01 0.02 0.03 0.04 0.07 0.09 0.13 0.18 0.25 0.32 0.39 0.43 0.41 0.39 0.38 0.35 0.33 0.32 0.31 0.27 0.23 0.21 0.20 0.21 0.26 0.35 0.43 0.43 0.40 0.30 0.21 0.14 0.12 0.11 0.09 0.08
0.00 0.00 0.00 0.00 0.00 0.00 0.01 0.01 0.01 0.02 0.02 0.04 0.06 0.08 0.12 0.16 0.22 0.30 0.38 0.43 0.43 0.43 0.39 0.37 0.36 0.32 0.26 0.19 0.14 0.12 0.17 0.24 0.29 0.33 0.37 0.35 0.26 0.20 0.15 0.13 0.10 0.06 0.06
0.00 0.00 0.00 0.00 0.00 0.00 0.00 0.01 0.01 0.01 0.01 0.02 0.03 0.04 0.05 0.08 0.12 0.18 0.25 0.32 0.37 0.42 0.46 0.49 0.46 0.36 0.26 0.19 0.17 0.17 0.18 0.19 0.19 0.20 0.25 0.28 0.21 0.17 0.15 0.13 0.07 0.05 0.05

GEFSGL_prec_meanprecacc_108.txt.gz
Total_Precipitation_Accumulation
0.63 0.64 0.62 0.62 0.64 0.66 0.62 0.58 0.53 0.51 0.50 0.48 0.45 0.42 0.41 0.40 0.38 0.37 0.35 0.31 0.29 0.27 0.23 0.22 0.21 0.20 0.21 0.21 0.23 0.27 0.32 0.43 0.50 0.33 0.25 0.28 0.34 0.36 0.39 0.44 0.44 0.47 0.59
0.50 0.49 0.45 0.43 0.41 0.42 0.44 0.46 0.43 0.42 0.42 0.40 0.36 0.34 0.31 0.28 0.26 0.24 0.22 0.20 0.20 0.19 0.19 0.21 0.20 0.20 0.21 0.22 0.26 0.29 0.34 0.44 0.57 0.50 0.38 0.41 0.44 0.47 0.57 0.59 0.52 0.47 0.54
0.45 0.43 0.38 0.36 0.32 0.32 0.32 0.32 0.31 0.30 0.30 0.29 0.27 0.27 0.25 0.23 0.21 0.20 0.19 0.16 0.16 0.17 0.18 0.20 0.20 0.23 0.26 0.29 0.37 0.41 0.44 0.48 0.62 0.65 0.53 0.55 0.59 0.65 0.78 0.72 0.61 0.58 0.47
0.42 0.39 0.36 0.34 0.32 0.29 0.27 0.25 0.24 0.24 0.24 0.24 0.22 0.20 0.18 0.16 0.14 0.14 0.12 0.12 0.13 0.16 0.19 0.23 0.26 0.32 0.37 0.42 0.44 0.46 0.50 0.56 0.62 0.69 0.66 0.69 0.74 0.78 0.84 0.84 0.69 0.60 0.55
0.37 0.36 0.37 0.37 0.36 0.33 0.31 0.28 0.27 0.27 0.24 0.23 0.20 0.17 0.15 0.12 0.08 0.06 0.06 0.08 0.13 0.16 0.18 0.21 0.26 0.34 0.41 0.40 0.38 0.41 0.52 0.64 0.67 0.75 0.76 0.73 0.71 0.81 0.83 0.72 0.62 0.53 0.48
0.44 0.45 0.45 0.43 0.39 0.37 0.35 0.33 0.32 0.29 0.25 0.20 0.16 0.13 0.11 0.06 0.05 0.06 0.05 0.08 0.14 0.19 0.22 0.23 0.21 0.24 0.23 0.24 0.30 0.36 0.47 0.65 0.87 0.98 0.89 0.79 0.67 0.67 0.69 0.64 0.64 0.59 0.50
0.57 0.53 0.47 0.42 0.39 0.36 0.32 0.33 0.31 0.26 0.20 0.17 0.13 0.09 0.09 0.06 0.04 0.04 0.05 0.08 0.15 0.23 0.27 0.25 0.20 0.16 0.18 0.23 0.27 0.31 0.43 0.59 0.82 1.08 1.10 0.84 0.75 0.69 0.71 0.70 0.70 0.72 0.64
0.57 0.52 0.43 0.35 0.31 0.30 0.30 0.28 0.22 0.18 0.16 0.14 0.11 0.08 0.10 0.05 0.02 0.02 0.03 0.07 0.15 0.20 0.23 0.23 0.25 0.25 0.22 0.24 0.26 0.32 0.45 0.62 0.73 0.81 1.05 0.88 0.70 0.67 0.69 0.68 0.70 0.67 0.57
0.51 0.41 0.31 0.25 0.24 0.23 0.21 0.18 0.16 0.16 0.15 0.10 0.07 0.07 0.10 0.08 0.02 0.02 0.02 0.06 0.11 0.15 0.18 0.18 0.17 0.21 0.22 0.32 0.42 0.55 0.68 0.85 0.85 0.97 1.12 1.08 0.96 0.87 0.73 0.68 0.73 0.67 0.59
0.33 0.26 0.21 0.19 0.15 0.13 0.13 0.14 0.14 0.14 0.12 0.07 0.05 0.07 0.10 0.10 0.02 0.00 0.01 0.04 0.08 0.11 0.16 0.21 0.18 0.17 0.25 0.42 0.58 0.75 0.88 1.00 0.93 1.02 1.24 1.29 1.14 1.11 1.06 0.90 0.81 0.70 0.63
0.21 0.18 0.15 0.11 0.09 0.08 0.11 0.13 0.12 0.11 0.11 0.09 0.08 0.10 0.10 0.06 0.03 0.00 0.01 0.03 0.05 0.09 0.17 0.27 0.31 0.25 0.32 0.52 0.71 0.82 0.98 1.05 1.03 1.03 1.02 1.03 1.09 1.09 1.03 0.96 0.82 0.67 0.60
0.15 0.12 0.10 0.07 0.04 0.05 0.11 0.12 0.12 0.13 0.12 0.10 0.10 0.10 0.10 0.10 0.05 0.02 0.00 0.01 0.04 0.12 0.26 0.32 0.37 0.35 0.41 0.61 0.77 0.97 1.16 1.25 1.16 1.09 0.91 0.81 0.77 0.78 0.79 0.74 0.66 0.57 0.51
0.13 0.12 0.09 0.06 0.06 0.06 0.10 0.12 0.11 0.11 0.10 0.08 0.09 0.10 0.10 0.12 0.09 0.02 0.01 0.02 0.04 0.13 0.27 0.35 0.40 0.42 0.58 0.88 1.07 1.21 1.34 1.36 1.28 1.08 0.87 0.78 0.68 0.61 0.61 0.64 0.63 0.54 0.48
0.16 0.13 0.11 0.12 0.11 0.09 0.09 0.07 0.07 0.08 0.07 0.08 0.09 0.11 0.13 0.14 0.09 0.05 0.05 0.07 0.09 0.15 0.28 0.42 0.53 0.60 0.77 1.05 1.25 1.41 1.45 1.33 1.12 0.97 0.85 0.79 0.69 0.61 0.60 0.53 0.50 0.47 0.48
0.14 0.11 0.10 0.11 0.11 0.11 0.10 0.04 0.03 0.04 0.02 0.04 0.08 0.09 0.12 0.12 0.07 0.07 0.09 0.10 0.12 0.16 0.27 0.42 0.57 0.70 0.89 1.08 1.24 1.31 1.31 1.20 1.06 0.85 0.74 0.76 0.75 0.68 0.62 0.52 0.43 0.37 0.41
0.13 0.10 0.07 0.07 0.07 0.09 0.13 0.11 0.03 0.01 0.01 0.02 0.03 0.05 0.06 0.07 0.05 0.07 0.10 0.13 0.17 0.23 0.32 0.45 0.56 0.68 0.86 1.05 1.17 1.16 1.08 1.00 0.89 0.75 0.68 0.65 0.65 0.63 0.59 0.51 0.41 0.37 0.38
0.10 0.08 0.06 0.05 0.06 0.07 0.12 0.18 0.16 0.09 0.04 0.04 0.03 0.04 0.04 0.04 0.05 0.07 0.11 0.17 0.19 0.25 0.32 0.49 0.60 0.71 0.87 1.00 1.05 1.04 1.00 0.91 0.80 0.71 0.66 0.60 0.54 0.51 0.47 0.42 0.37 0.35 0.34
0.07 0.04 0.03 0.05 0.05 0.07 0.09 0.11 0.14 0.17 0.19 0.18 0.09 0.04 0.04 0.06 0.07 0.08 0.11 0.16 0.21 0.25 0.38 0.53 0.64 0.70 0.78 0.84 0.91 0.95 0.96 0.87 0.76 0.69 0.66 0.60 0.53 0.45 0.37 0.34 0.32 0.28 0.28
0.05 0.07 0.06 0.04 0.04 0.05 0.06 0.08 0.09 0.12 0.15 0.17 0.15 0.11 0.08 0.10 0.12 0.15 0.17 0.20 0.27 0.35 0.44 0.55 0.62 0.67 0.69 0.69 0.74 0.80 0.82 0.79 0.72 0.66 0.63 0.60 0.53 0.44 0.35 0.28 0.23 0.15 0.17
0.03 0.01 0.02 0.03 0.02 0.03 0.04 0.06 0.07 0.10 0.14 0.17 0.17 0.15 0.15 0.22 0.27 0.28 0.25 0.23 0.27 0.35 0.43 0.50 0.55 0.59 0.57 0.57 0.58 0.61 0.64 0.64 0.61 0.58 0.55 0.53 0.45 0.35 0.28 0.23 0.19 0.17 0.18
0.03 0.01 0.01 0.01 0.02 0.03 0.03 0.03 0.05 0.08 0.12 0.17 0.17 0.13 0.20 0.27 0.33 0.34 0.33 0.31 0.33 0.37 0.40 0.42 0.44 0.46 0.45 0.44 0.44 0.45 0.49 0.53 0.54 0.55 0.52 0.46 0.37 0.29 0.23 0.18 0.14 0.12 0.12
0.01 0.01 0.01 0.01 0.01 0.01 0.01 0.02 0.04 0.06 0.09 0.12 0.14 0.15 0.22 0.26 0.30 0.34 0.36 0.38 0.38 0.38 0.37 0.36 0.37 0.38 0.37 0.37 0.36 0.36 0.39 0.42 0.48 0.52 0.52 0.45 0.34 0.25 0.19 0.14 0.12 0.10 0.09
0.00 0.00 0.00 0.01 0.00 0.00 0.01 0.02 0.03 0.05 0.07 0.09 0.11 0.14 0.20 0.27 0.33 0.37 0.39 0.38 0.38 0.37 0.33 0.30 0.32 0.34 0.33 0.30 0.29 0.31 0.33 0.36 0.42 0.48 0.51 0.44 0.32 0.23 0.17 0.15 0.13 0.12 0.08
0.00 0.00 0.00 0.00 0.00 0.00 0.01 0.01 0.02 0.03 0.04 0.07 0.09 0.13 0.18 0.25 0.32 0.39 0.43 0.41 0.39 0.38 0.35 0.33 0.32 0.31 0.27 0.23 0.21 0.20 0.21 0.26 0.35 0.43 0.43 0.40 0.30 0.21 0.14 0.13 0.12 0.09 0.08
0.00 0.00 0.00 0.00 0.00 0.00 0.01 0.01 0.01 0.02 0.02 0.04 0.06 0.08 0.12 0.16 0.22 0.30 0.39 0.43 0.43 0.43 0.39 0.37 0.36 0.32 0.26 0.19 0.14 0.12 0.17 0.24 0.29 0.33 0.37 0.35 0.26 0.20 0.15 0.13 0.10 0.06 0.06
0.00 0.00 0.00 0.00 0.00 0.00 0.00 0.01 0.01 0.01 0.01 0.02 0.03 0.04 0.05 0.08 0.12 0.18 0.25 0.32 0.37 0.42 0.46 0.49 0.46 0.36 0.26 0.19 0.17 0.17 0.18 0.19 0.19 0.20 0.25 0.28 0.21 0.17 0.15 0.13 0.07 0.05 0.05

GEFSGL_prec_meanprecacc_114.txt.gz
Total_Precipitation_Accumulation
0.69 0.71 0.70 0.71 0.75 0.77 0.73 0.66 0.61 0.58 0.55 0.53 0.49 0.47 0.45 0.44 0.42 0.41 0.38 0.34 0.32 0.30 0.27 0.24 0.23 0.23 0.24 0.23 0.25 0.30 0.35 0.47 0.55 0.38 0.29 0.32 0.37 0.39 0.41 0.45 0.44 0.48 0.59
0.55 0.55 0.53 0.52 0.51 0.53 0.55 0.56 0.51 0.51 0.50 0.46 0.41 0.38 0.36 0.32 0.29 0.27 0.24 0.22 0.22 0.22 0.22 0.23 0.22 0.22 0.24 0.24 0.28 0.31 0.36 0.47 0.61 0.55 0.43 0.45 0.47 0.49 0.59 0.61 0.54 0.47 0.55
0.48 0.48 0.46 0.45 0.42 0.42 0.43 0.42 0.40 0.39 0.39 0.36 0.32 0.32 0.29 0.27 0.25 0.22 0.21 0.19 0.18 0.19 0.21 0.22 0.22 0.25 0.27 0.31 0.39 0.43 0.46 0.49 0.64 0.68 0.56 0.58 0.63 0.69 0.81 0.75 0.63 0.60 0.47
0.46 0.45 0.43 0.44 0.43 0.40 0.37 0.34 0.33 0.32 0.32 0.33 0.31 0.27 0.23 0.20 0.18 0.17 0.16 0.15 0.16 0.17 0.20 0.24 0.27 0.33 0.38 0.43 0.46 0.48 0.52 0.58 0.64 0.71 0.68 0.71 0.77 0.82 0.88 0.87 0.72 0.63 0.56
0.42 0.43 0.47 0.48 0.48 0.45 0.42 0.39 0.39 0.37 0.32 0.31 0.29 0.25 0.21 0.17 0.13 0.10 0.08 0.10 0.15 0.18 0.20 0.22 0.27 0.35 0.41 0.41 0.39 0.42 0.53 0.66 0.69 0.77 0.78 0.75 0.75 0.85 0.87 0.76 0.66 0.56 0.50
0.51 0.53 0.54 0.51 0.48 0.46 0.44 0.41 0.41 0.38 0.32 0.27 0.23 0.19 0.16 0.09 0.08 0.08 0.07 0.10 0.15 0.21 0.24 0.24 0.22 0.24 0.23 0.24 0.31 0.37 0.48 0.66 0.89 1.01 0.92 0.83 0.71 0.71 0.73 0.68 0.68 0.63 0.55
0.64 0.60 0.54 0.49 0.46 0.43 0.38 0.39 0.37 0.31 0.26 0.23 0.18 0.14 0.13 0.08 0.05 0.05 0.06 0.10 0.18 0.25 0.29 0.28 0.21 0.16 0.19 0.24 0.27 0.32 0.44 0.60 0.82 1.09 1.12 0.88 0.79 0.74 0.75 0.74 0.76 0.77 0.70
0.64 0.58 0.49 0.41 0.38 0.38 0.38 0.34 0.28 0.24 0.22 0.20 0.16 0.13 0.13 0.07 0.03 0.03 0.04 0.09 0.18 0.23 0.25 0.26 0.28 0.27 0.23 0.25 0.27 0.33 0.47 0.63 0.74 0.81 1.07 0.91 0.73 0.69 0.71 0.70 0.74 0.72 0.65
0.57 0.46 0.36 0.30 0.29 0.29 0.27 0.24 0.22 0.22 0.21 0.16 0.12 0.12 0.14 0.10 0.02 0.02 0.03 0.08 0.14 0.18 0.20 0.19 0.18 0.23 0.23 0.33 0.43 0.59 0.73 0.88 0.86 0.97 1.12 1.09 0.96 0.87 0.73 0.69 0.76 0.73 0.67
0.38 0.30 0.25 0.22 0.18 0.16 0.17 0.18 0.19 0.19 0.17 0.12 0.10 0.12 0.14 0.11 0.02 0.00 0.02 0.06 0.12 0.15 0.20 0.23 0.18 0.17 0.25 0.42 0.60 0.80 0.93 1.05 0.97 1.05 1.27 1.31 1.16 1.12 1.07 0.92 0.87 0.77 0.71
0.25 0.20 0.17 0.13 0.10 0.10 0.14 0.16 0.16 0.14 0.14 0.13 0.13 0.15 0.13 0.07 0.03 0.00 0.01 0.04 0.08 0.13 0.21 0.30 0.32 0.25 0.32 0.52 0.72 0.84 1.00 1.07 1.07 1.10 1.09 1.09 1.14 1.14 1.07 1.00 0.89 0.74 0.67
0.18 0.16 0.12 0.09 0.05 0.06 0.13 0.16 0.15 0.16 0.16 0.15 0.15 0.15 0.14 0.12 0.05 0.02 0.00 0.01 0.04 0.16 0.31 0.35 0.38 0.35 0.41 0.61 0.77 0.97 1.16 1.26 1.19 1.15 0.97 0.86 0.82 0.83 0.84 0.78 0.70 0.62 0.57
0.18 0.17 0.13 0.09 0.08 0.07 0.12 0.14 0.14 0.15 0.13 0.11 0.12 0.14 0.14 0.16 0.11 0.02 0.01 0.02 0.05 0.15 0.29 0.36 0.40 0.42 0.58 0.90 1.08 1.21 1.34 1.39 1.33 1.14 0.93 0.83 0.71 0.64 0.64 0.67 0.65 0.57 0.51
0.21 0.18 0.15 0.15 0.13 0.11 0.11 0.09 0.10 0.10 0.10 0.10 0.12 0.15 0.17 0.17 0.11 0.07 0.08 0.09 0.10 0.17 0.31 0.44 0.54 0.61 0.78 1.07 1.28 1.44 1.48 1.36 1.15 1.01 0.89 0.83 0.72 0.63 0.62 0.55 0.52 0.49 0.51
0.19 0.15 0.13 0.13 0.13 0.13 0.11 0.05 0.04 0.05 0.03 0.06 0.10 0.12 0.15 0.13 0.07 0.07 0.10 0.11 0.13 0.17 0.29 0.46 0.61 0.73 0.92 1.11 1.27 1.34 1.34 1.23 1.09 0.89 0.78 0.79 0.78 0.71 0.65 0.54 0.46 0.40 0.45
0.17 0.13 0.10 0.08 0.08 0.09 0.15 0.12 0.03 0.01 0.01 0.02 0.03 0.05 0.06 0.07 0.05 0.07 0.10 0.13 0.17 0.23 0.33 0.48 0.60 0.71 0.88 1.07 1.19 1.19 1.11 1.04 0.93 0.79 0.72 0.69 0.68 0.65 0.62 0.53 0.43 0.40 0.43
0.14 0.11 0.07 0.06 0.06 0.08 0.13 0.20 0.18 0.10 0.04 0.04 0.03 0.04 0.04 0.04 0.05 0.07 0.11 0.17 0.19 0.25 0.34 0.50 0.61 0.72 0.88 1.02 1.07 1.06 1.02 0.93 0.82 0.74 0.68 0.62 0.56 0.53 0.48 0.43 0.39 0.38 0.37
0.08 0.05 0.04 0.06 0.06 0.07 0.10 0.12 0.16 0.20 0.22 0.19 0.09 0.04 0.04 0.06 0.07 0.08 0.11 0.16 0.22 0.26 0.39 0.54 0.64 0.71 0.78 0.85 0.91 0.96 0.97 0.88 0.77 0.70 0.67 0.62 0.54 0.47 0.39 0.36 0.33 0.30 0.30
0.06 0.08 0.07 0.05 0.05 0.05 0.06 0.08 0.09 0.13 0.17 0.19 0.17 0.11 0.08 0.10 0.12 0.15 0.17 0.21 0.28 0.35 0.44 0.55 0.62 0.67 0.69 0.69 0.74 0.80 0.82 0.80 0.72 0.66 0.63 0.60 0.54 0.46 0.37 0.29 0.25 0.15 0.18
0.04 0.02 0.03 0.03 0.03 0.03 0.04 0.06 0.07 0.10 0.14 0.18 0.18 0.16 0.16 0.23 0.28 0.29 0.25 0.23 0.27 0.35 0.43 0.50 0.55 0.59 0.57 0.57 0.58 0.62 0.64 0.64 0.61 0.58 0.55 0.53 0.45 0.35 0.29 0.23 0.20 0.18 0.19
0.03 0.01 0.01 0.02 0.03 0.03 0.03 0.04 0.06 0.08 0.13 0.17 0.17 0.14 0.20 0.28 0.34 0.34 0.33 0.31 0.33 0.37 0.40 0.42 0.44 0.46 0.45 0.44 0.44 0.45 0.49 0.53 0.54 0.55 0.52 0.46 0.37 0.29 0.23 0.18 0.15 0.13 0.13
0.01 0.01 0.01 0.02 0.02 0.01 0.01 0.03 0.05 0.07 0.09 0.12 0.15 0.15 0.22 0.26 0.30 0.34 0.36 0.38 0.38 0.38 0.37 0.36 0.37 0.38 0.37 0.37 0.36 0.36 0.39 0.42 0.48 0.52 0.52 0.45 0.34 0.25 0.19 0.14 0.12 0.11 0.10
0.00 0.00 0.00 0.01 0.00 0.00 0.01 0.02 0.04 0.05 0.07 0.09 0.11 0.14 0.20 0.27 0.33 0.37 0.39 0.38 0.38 0.37 0.33 0.30 0.32 0.34 0.33 0.30 0.29 0.31 0.33 0.36 0.42 0.48 0.51 0.44 0.32 0.23 0.17 0.15 0.13 0.12 0.08
0.00 0.00 0.00 0.00 0.00 0.00 0.01 0.01 0.02 0.03 0.05 0.07 0.09 0.13 0.18 0.26 0.33 0.40 0.43 0.41 0.39 0.38 0.35 0.33 0.32 0.31 0.27 0.23 0.21 0.20 0.21 0.26 0.35 0.43 0.43 0.40 0.30 0.21 0.14 0.13 0.12 0.09 0.08
0.00 0.00 0.00 0.00 0.00 0.00 0.01 0.01 0.01 0.02 0.02 0.04 0.06 0.08 0.12 0.16 0.22 0.30 0.39 0.43 0.43 0.43 0.39 0.37 0.36 0.32 0.26 0.19 0.14 0.12 0.17 0.24 0.29 0.33 0.37 0.35 0.26 0.20 0.15 0.13 0.10 0.06 0.06
0.00 0.00 0.00 0.00 0.00 0.00 0.00 0.01 0.01 0.01 0.01 0.02 0.03 0.04 0.05 0.08 0.12 0.18 0.26 0.32 0.37 0.42 0.46 0.49 0.46 0.36 0.26 0.19 0.17 0.17 0.18 0.19 0.19 0.20 0.25 0.28 0.21 0.17 0.15 0.13 0.07 0.05 0.05

GEFSGL_prec_meanprecacc_120.txt.gz
Total_Precipitation_Accumulation
0.71 0.73 0.73 0.74 0.78 0.79 0.76 0.70 0.66 0.62 0.58 0.56 0.52 0.49 0.47 0.46 0.45 0.44 0.42 0.38 0.34 0.32 0.29 0.26 0.25 0.25 0.25 0.24 0.26 0.31 0.36 0.48 0.57 0.41 0.32 0.35 0.40 0.41 0.44 0.47 0.46 0.49 0.61
0.58 0.58 0.57 0.56 0.54 0.57 0.59 0.60 0.56 0.55 0.53 0.49 0.44 0.41 0.39 0.35 0.32 0.29 0.27 0.24 0.23 0.23 0.24 0.24 0.24 0.24 0.25 0.25 0.29 0.32 0.36 0.47 0.62 0.56 0.44 0.47 0.49 0.51 0.60 0.63 0.55 0.48 0.55
0.50 0.50 0.48 0.48 0.46 0.47 0.47 0.47 0.45 0.44 0.44 0.40 0.35 0.34 0.32 0.30 0.27 0.24 0.23 0.20 0.19 0.21 0.22 0.24 0.24 0.26 0.29 0.32 0.40 0.44 0.46 0.50 0.64 0.69 0.57 0.59 0.65 0.71 0.82 0.76 0.65 0.61 0.49
0.48 0.47 0.45 0.47 0.46 0.44 0.41 0.39 0.38 0.37 0.37 0.37 0.35 0.29 0.25 0.22 0.21 0.19 0.17 0.17 0.18 0.19 0.22 0.26 0.28 0.34 0.39 0.44 0.47 0.50 0.53 0.59 0.65 0.72 0.69 0.73 0.79 0.84 0.90 0.89 0.74 0.65 0.58
0.45 0.45 0.49 0.50 0.50 0.47 0.45 0.42 0.42 0.41 0.37 0.36 0.33 0.29 0.25 0.20 0.16 0.13 0.11 0.13 0.17 0.21 0.23 0.25 0.28 0.36 0.43 0.42 0.40 0.44 0.55 0.68 0.70 0.78 0.79 0.77 0.76 0.86 0.89 0.77 0.67 0.58 0.52
0.53 0.55 0.55 0.53 0.50 0.48 0.46 0.44 0.45 0.43 0.38 0.33 0.30 0.25 0.21 0.14 0.12 0.11 0.10 0.13 0.19 0.24 0.27 0.26 0.24 0.25 0.24 0.25 0.32 0.38 0.49 0.68 0.90 1.02 0.94 0.84 0.73 0.73 0.76 0.70 0.69 0.65 0.57
0.66 0.62 0.56 0.51 0.48 0.44 0.41 0.42 0.41 0.36 0.31 0.28 0.23 0.19 0.17 0.12 0.08 0.08 0.09 0.13 0.21 0.28 0.31 0.29 0.22 0.17 0.19 0.24 0.28 0.32 0.45 0.61 0.83 1.10 1.14 0.89 0.80 0.76 0.78 0.76 0.78 0.80 0.72
0.65 0.60 0.51 0.43 0.40 0.40 0.40 0.37 0.32 0.28 0.26 0.24 0.20 0.17 0.17 0.11 0.06 0.05 0.06 0.11 0.20 0.25 0.27 0.27 0.28 0.28 0.24 0.25 0.27 0.34 0.47 0.63 0.74 0.82 1.08 0.92 0.74 0.71 0.72 0.72 0.77 0.77 0.69
0.59 0.49 0.38 0.33 0.32 0.31 0.30 0.27 0.26 0.25 0.24 0.19 0.15 0.15 0.17 0.13 0.06 0.04 0.04 0.09 0.15 0.19 0.20 0.20 0.18 0.23 0.23 0.33 0.43 0.59 0.73 0.89 0.87 0.98 1.13 1.09 0.97 0.88 0.74 0.70 0.78 0.77 0.71
0.41 0.33 0.28 0.25 0.21 0.19 0.19 0.20 0.21 0.21 0.20 0.15 0.12 0.14 0.16 0.13 0.04 0.02 0.03 0.07 0.13 0.15 0.20 0.23 0.18 0.17 0.25 0.42 0.60 0.80 0.93 1.05 0.97 1.05 1.27 1.32 1.17 1.13 1.08 0.93 0.88 0.80 0.74
0.27 0.22 0.19 0.15 0.12 0.11 0.15 0.17 0.17 0.16 0.16 0.16 0.15 0.17 0.15 0.08 0.04 0.02 0.02 0.04 0.08 0.13 0.21 0.30 0.32 0.25 0.33 0.52 0.72 0.84 1.00 1.07 1.07 1.10 1.10 1.09 1.15 1.15 1.08 1.01 0.90 0.76 0.69
0.20 0.17 0.14 0.10 0.06 0.07 0.14 0.17 0.16 0.17 0.17 0.16 0.16 0.16 0.15 0.13 0.05 0.02 0.01 0.01 0.05 0.16 0.31 0.35 0.38 0.36 0.41 0.61 0.78 0.97 1.16 1.26 1.19 1.15 0.98 0.87 0.83 0.83 0.84 0.78 0.71 0.63 0.58
0.21 0.20 0.16 0.11 0.09 0.08 0.13 0.15 0.14 0.15 0.13 0.11 0.12 0.14 0.14 0.16 0.11 0.02 0.01 0.02 0.05 0.15 0.29 0.36 0.40 0.42 0.58 0.90 1.08 1.22 1.35 1.39 1.33 1.15 0.94 0.84 0.73 0.65 0.64 0.67 0.66 0.58 0.52
0.24 0.21 0.18 0.17 0.14 0.11 0.12 0.09 0.10 0.11 0.10 0.11 0.13 0.15 0.17 0.17 0.11 0.07 0.08 0.09 0.11 0.17 0.31 0.44 0.54 0.61 0.78 1.07 1.28 1.44 1.48 1.37 1.16 1.02 0.90 0.84 0.72 0.64 0.62 0.56 0.53 0.50 0.52
0.21 0.16 0.15 0.13 0.13 0.14 0.11 0.05 0.04 0.05 0.03 0.06 0.10 0.12 0.15 0.13 0.07 0.07 0.10 0.11 0.13 0.17 0.29 0.46 0.62 0.74 0.93 1.12 1.28 1.35 1.35 1.23 1.09 0.89 0.78 0.80 0.79 0.71 0.66 0.54 0.46 0.41 0.46
0.18 0.14 0.10 0.08 0.08 0.10 0.15 0.12 0.03 0.01 0.01 0.02 0.03 0.05 0.06 0.07 0.05 0.07 0.10 0.13 0.17 0.23 0.33 0.48 0.60 0.71 0.89 1.10 1.22 1.21 1.13 1.06 0.94 0.81 0.73 0.70 0.70 0.66 0.62 0.54 0.43 0.41 0.43
0.14 0.12 0.08 0.06 0.07 0.08 0.13 0.20 0.18 0.10 0.05 0.04 0.03 0.04 0.04 0.04 0.05 0.07 0.11 0.17 0.19 0.25 0.34 0.50 0.62 0.72 0.88 1.02 1.09 1.07 1.04 0.94 0.84 0.76 0.70 0.64 0.57 0.54 0.49 0.44 0.39 0.38 0.37
0.08 0.05 0.05 0.07 0.06 0.07 0.10 0.12 0.16 0.20 0.22 0.20 0.10 0.05 0.04 0.06 0.07 0.08 0.11 0.16 0.22 0.26 0.39 0.54 0.64 0.71 0.78 0.85 0.91 0.96 0.97 0.89 0.77 0.71 0.69 0.63 0.55 0.48 0.40 0.36 0.33 0.30 0.30
0.06 0.08 0.07 0.05 0.05 0.05 0.06 0.08 0.10 0.13 0.17 0.20 0.17 0.11 0.08 0.10 0.12 0.15 0.17 0.21 0.28 0.35 0.44 0.55 0.62 0.67 0.69 0.69 0.74 0.80 0.82 0.80 0.72 0.66 0.64 0.61 0.55 0.47 0.37 0.30 0.25 0.15 0.19
0.04 0.02 0.03 0.04 0.03 0.03 0.04 0.06 0.07 0.10 0.14 0.18 0.19 0.16 0.16 0.23 0.28 0.29 0.25 0.23 0.27 0.35 0.43 0.50 0.55 0.59 0.57 0.57 0.58 0.62 0.64 0.65 0.61 0.58 0.56 0.53 0.46 0.36 0.29 0.23 0.20 0.18 0.19
0.03 0.01 0.01 0.02 0.03 0.03 0.03 0.04 0.06 0.08 0.13 0.17 0.17 0.14 0.20 0.28 0.34 0.34 0.33 0.31 0.33 0.37 0.40 0.42 0.44 0.46 0.45 0.44 0.44 0.45 0.49 0.53 0.54 0.55 0.52 0.46 0.37 0.29 0.23 0.18 0.15 0.13 0.13
0.01 0.01 0.01 0.02 0.02 0.01 0.01 0.03 0.05 0.07 0.09 0.12 0.15 0.15 0.22 0.26 0.30 0.34 0.36 0.38 0.38 0.38 0.37 0.36 0.37 0.38 0.37 0.37 0.36 0.36 0.39 0.42 0.48 0.52 0.52 0.45 0.34 0.25 0.19 0.14 0.12 0.11 0.10
0.00 0.00 0.00 0.01 0.00 0.00 0.01 0.02 0.04 0.05 0.07 0.09 0.11 0.14 0.20 0.27 0.33 0.37 0.39 0.38 0.38 0.37 0.33 0.30 0.32 0.34 0.33 0.30 0.29 0.31 0.33 0.36 0.42 0.48 0.51 0.44 0.32 0.23 0.17 0.15 0.13 0.12 0.08
0.00 0.00 0.00 0.00 0.00 0.00 0.01 0.01 0.02 0.03 0.05 0.07 0.10 0.13 0.18 0.26 0.33 0.40 0.43 0.41 0.39 0.38 0.35 0.33 0.32 0.31 0.27 0.23 0.21 0.20 0.21 0.26 0.35 0.43 0.43 0.40 0.30 0.21 0.14 0.13 0.12 0.09 0.08
0.00 0.00 0.00 0.00 0.00 0.00 0.01 0.01 0.01 0.02 0.02 0.04 0.06 0.08 0.12 0.16 0.22 0.30 0.39 0.43 0.43 0.43 0.39 0.37 0.36 0.32 0.26 0.19 0.14 0.12 0.17 0.24 0.29 0.33 0.37 0.35 0.26 0.20 0.15 0.13 0.10 0.06 0.06
0.00 0.00 0.00 0.00 0.00 0.00 0.00 0.01 0.01 0.01 0.01 0.02 0.03 0.04 0.05 0.08 0.12 0.18 0.26 0.32 0.37 0.42 0.46 0.49 0.46 0.36 0.26 0.19 0.17 0.17 0.18 0.19 0.19 0.20 0.25 0.28 0.21 0.17 0.15 0.13 0.07 0.05 0.05

GEFSGL_prec_meanprecacc_126.txt.gz
Total_Precipitation_Accumulation
0.72 0.74 0.74 0.76 0.80 0.82 0.78 0.73 0.68 0.64 0.60 0.59 0.55 0.53 0.51 0.49 0.49 0.48 0.45 0.41 0.37 0.34 0.30 0.28 0.28 0.28 0.29 0.28 0.31 0.37 0.44 0.55 0.63 0.46 0.36 0.38 0.44 0.44 0.47 0.50 0.50 0.53 0.65
0.58 0.59 0.58 0.57 0.57 0.59 0.62 0.62 0.58 0.57 0.55 0.52 0.46 0.44 0.42 0.38 0.34 0.32 0.30 0.26 0.26 0.25 0.25 0.26 0.25 0.26 0.27 0.28 0.32 0.37 0.42 0.53 0.69 0.64 0.50 0.51 0.53 0.53 0.62 0.65 0.57 0.50 0.57
0.50 0.51 0.49 0.50 0.48 0.49 0.50 0.49 0.46 0.45 0.45 0.41 0.37 0.36 0.34 0.32 0.29 0.27 0.25 0.23 0.22 0.23 0.24 0.25 0.25 0.27 0.30 0.34 0.42 0.47 0.49 0.54 0.69 0.75 0.64 0.64 0.69 0.74 0.85 0.78 0.67 0.64 0.52
0.49 0.47 0.46 0.48 0.48 0.46 0.44 0.42 0.40 0.39 0.40 0.41 0.38 0.32 0.27 0.24 0.22 0.21 0.19 0.18 0.20 0.21 0.23 0.27 0.30 0.35 0.40 0.46 0.49 0.53 0.57 0.63 0.68 0.76 0.73 0.76 0.81 0.86 0.92 0.91 0.77 0.68 0.61
0.47 0.47 0.50 0.52 0.53 0.50 0.48 0.46 0.45 0.43 0.40 0.39 0.37 0.33 0.28 0.23 0.19 0.15 0.13 0.15 0.19 0.22 0.25 0.27 0.30 0.38 0.45 0.44 0.42 0.46 0.57 0.70 0.73 0.81 0.82 0.79 0.78 0.88 0.91 0.79 0.70 0.61 0.55
0.56 0.57 0.57 0.55 0.52 0.51 0.49 0.47 0.48 0.45 0.41 0.36 0.33 0.29 0.26 0.19 0.17 0.15 0.13 0.15 0.21 0.26 0.29 0.28 0.25 0.26 0.25 0.27 0.34 0.40 0.50 0.69 0.92 1.04 0.96 0.86 0.74 0.75 0.78 0.73 0.72 0.67 0.60
0.69 0.65 0.58 0.53 0.50 0.47 0.43 0.44 0.44 0.39 0.33 0.30 0.26 0.22 0.21 0.17 0.14 0.12 0.12 0.15 0.23 0.31 0.33 0.30 0.23 0.18 0.21 0.25 0.29 0.34 0.45 0.61 0.84 1.11 1.15 0.91 0.82 0.78 0.81 0.81 0.82 0.83 0.75
0.68 0.63 0.53 0.45 0.43 0.43 0.43 0.40 0.35 0.31 0.28 0.27 0.23 0.20 0.20 0.14 0.10 0.10 0.10 0.13 0.21 0.26 0.29 0.28 0.30 0.29 0.25 0.26 0.28 0.35 0.48 0.64 0.75 0.82 1.08 0.94 0.76 0.73 0.76 0.76 0.81 0.81 0.72
0.62 0.52 0.41 0.35 0.35 0.35 0.33 0.30 0.29 0.28 0.27 0.23 0.18 0.18 0.20 0.16 0.08 0.07 0.07 0.11 0.17 0.20 0.22 0.21 0.20 0.24 0.24 0.34 0.44 0.60 0.74 0.90 0.88 0.98 1.14 1.10 0.98 0.89 0.76 0.72 0.81 0.80 0.75
0.43 0.36 0.31 0.28 0.24 0.21 0.22 0.23 0.24 0.25 0.23 0.18 0.14 0.16 0.18 0.16 0.07 0.05 0.05 0.09 0.14 0.17 0.21 0.25 0.19 0.18 0.26 0.43 0.61 0.81 0.94 1.05 0.97 1.06 1.27 1.33 1.17 1.14 1.09 0.94 0.91 0.83 0.78
0.29 0.25 0.22 0.18 0.15 0.14 0.16 0.19 0.19 0.18 0.18 0.17 0.17 0.18 0.16 0.10 0.06 0.04 0.04 0.05 0.09 0.14 0.22 0.31 0.32 0.26 0.33 0.52 0.72 0.84 1.00 1.07 1.07 1.10 1.10 1.09 1.15 1.16 1.09 1.02 0.92 0.80 0.72
0.22 0.20 0.17 0.13 0.09 0.09 0.16 0.18 0.17 0.18 0.18 0.17 0.17 0.17 0.16 0.13 0.06 0.03 0.02 0.03 0.05 0.17 0.31 0.36 0.38 0.36 0.42 0.62 0.78 0.98 1.17 1.27 1.19 1.15 0.98 0.87 0.83 0.84 0.85 0.80 0.72 0.64 0.59
0.22 0.22 0.19 0.15 0.12 0.10 0.14 0.15 0.15 0.16 0.14 0.12 0.13 0.15 0.15 0.16 0.11 0.02 0.02 0.02 0.05 0.15 0.30 0.36 0.40 0.42 0.58 0.90 1.08 1.22 1.35 1.39 1.34 1.15 0.94 0.84 0.73 0.66 0.65 0.68 0.66 0.58 0.52
0.26 0.24 0.22 0.21 0.17 0.12 0.12 0.09 0.10 0.11 0.10 0.11 0.13 0.15 0.17 0.17 0.11 0.07 0.08 0.09 0.11 0.17 0.31 0.44 0.54 0.61 0.78 1.08 1.28 1.45 1.48 1.37 1.16 1.02 0.90 0.84 0.73 0.64 0.63 0.56 0.53 0.50 0.52
0.24 0.19 0.17 0.15 0.15 0.15 0.12 0.05 0.05 0.06 0.03 0.06 0.10 0.12 0.15 0.13 0.07 0.07 0.10 0.11 0.13 0.17 0.29 0.46 0.62 0.75 0.94 1.13 1.29 1.36 1.35 1.24 1.09 0.89 0.78 0.80 0.79 0.72 0.66 0.55 0.47 0.41 0.46
0.20 0.16 0.11 0.09 0.09 0.10 0.15 0.12 0.03 0.02 0.02 0.02 0.03 0.05 0.06 0.07 0.05 0.07 0.10 0.13 0.17 0.23 0.33 0.48 0.60 0.71 0.90 1.11 1.23 1.22 1.14 1.06 0.95 0.81 0.73 0.70 0.70 0.67 0.63 0.54 0.44 0.41 0.43
0.15 0.12 0.08 0.07 0.07 0.08 0.13 0.20 0.18 0.10 0.05 0.05 0.03 0.04 0.04 0.04 0.05 0.07 0.11 0.17 0.19 0.25 0.34 0.50 0.62 0.72 0.88 1.04 1.10 1.09 1.05 0.95 0.85 0.76 0.71 0.65 0.59 0.55 0.50 0.44 0.39 0.38 0.37
0.08 0.05 0.05 0.07 0.06 0.07 0.10 0.12 0.16 0.20 0.23 0.20 0.10 0.05 0.04 0.06 0.07 0.08 0.11 0.16 0.22 0.26 0.39 0.54 0.64 0.71 0.78 0.85 0.92 0.97 0.99 0.91 0.79 0.72 0.70 0.65 0.57 0.49 0.41 0.36 0.34 0.30 0.30
0.06 0.08 0.07 0.06 0.05 0.05 0.06 0.08 0.10 0.13 0.17 0.20 0.17 0.11 0.08 0.10 0.12 0.15 0.17 0.21 0.28 0.35 0.44 0.55 0.62 0.67 0.69 0.69 0.74 0.81 0.83 0.81 0.74 0.68 0.66 0.63 0.56 0.47 0.37 0.30 0.25 0.16 0.19
0.04 0.02 0.03 0.04 0.03 0.03 0.04 0.06 0.07 0.10 0.14 0.18 0.19 0.16 0.16 0.23 0.28 0.29 0.25 0.23 0.27 0.35 0.43 0.50 0.55 0.59 0.57 0.57 0.58 0.62 0.64 0.65 0.61 0.59 0.56 0.53 0.46 0.36 0.29 0.23 0.20 0.18 0.20
0.03 0.01 0.01 0.02 0.03 0.03 0.03 0.04 0.06 0.08 0.13 0.18 0.17 0.14 0.20 0.28 0.34 0.34 0.33 0.31 0.33 0.37 0.40 0.42 0.44 0.46 0.45 0.44 0.44 0.45 0.49 0.53 0.54 0.55 0.52 0.46 0.37 0.29 0.23 0.18 0.15 0.13 0.13
0.01 0.01 0.01 0.02 0.02 0.01 0.01 0.03 0.05 0.07 0.09 0.12 0.15 0.15 0.22 0.26 0.30 0.34 0.36 0.38 0.38 0.38 0.37 0.36 0.37 0.38 0.37 0.37 0.36 0.36 0.39 0.42 0.48 0.52 0.52 0.45 0.34 0.25 0.19 0.14 0.12 0.11 0.10
0.00 0.00 0.00 0.01 0.00 0.00 0.01 0.02 0.04 0.05 0.07 0.09 0.11 0.14 0.20 0.27 0.33 0.37 0.39 0.38 0.38 0.37 0.33 0.30 0.32 0.34 0.33 0.30 0.29 0.31 0.33 0.36 0.42 0.48 0.51 0.44 0.32 0.23 0.17 0.15 0.13 0.12 0.08
0.00 0.00 0.00 0.00 0.00 0.00 0.01 0.02 0.02 0.03 0.05 0.07 0.10 0.13 0.18 0.26 0.33 0.40 0.43 0.41 0.39 0.38 0.35 0.33 0.32 0.31 0.27 0.23 0.21 0.20 0.21 0.26 0.35 0.43 0.43 0.40 0.30 0.21 0.14 0.13 0.12 0.09 0.08
0.00 0.00 0.00 0.00 0.00 0.00 0.01 0.01 0.01 0.02 0.03 0.04 0.06 0.08 0.12 0.16 0.22 0.30 0.39 0.43 0.43 0.43 0.39 0.37 0.36 0.32 0.26 0.19 0.14 0.12 0.17 0.24 0.29 0.33 0.37 0.35 0.26 0.20 0.15 0.13 0.10 0.06 0.06
0.00 0.00 0.00 0.00 0.00 0.00 0.00 0.01 0.01 0.01 0.01 0.02 0.03 0.04 0.05 0.08 0.12 0.18 0.26 0.32 0.37 0.42 0.46 0.49 0.46 0.36 0.26 0.19 0.17 0.17 0.18 0.19 0.19 0.20 0.25 0.28 0.21 0.17 0.15 0.13 0.07 0.05 0.05

GEFSGL_prec_meanprecacc_132.txt.gz
Total_Precipitation_Accumulation
0.72 0.75 0.75 0.78 0.82 0.83 0.80 0.74 0.70 0.65 0.63 0.62 0.58 0.56 0.54 0.53 0.52 0.51 0.49 0.45 0.42 0.39 0.37 0.36 0.36 0.34 0.34 0.36 0.40 0.50 0.61 0.72 0.80 0.62 0.51 0.53 0.58 0.55 0.54 0.56 0.55 0.58 0.69
0.58 0.60 0.59 0.59 0.58 0.60 0.63 0.64 0.60 0.59 0.58 0.55 0.50 0.47 0.45 0.41 0.38 0.35 0.32 0.30 0.30 0.30 0.30 0.32 0.32 0.33 0.32 0.33 0.38 0.46 0.56 0.69 0.84 0.77 0.63 0.64 0.64 0.62 0.68 0.69 0.60 0.53 0.60
0.51 0.51 0.50 0.51 0.50 0.50 0.51 0.50 0.49 0.48 0.49 0.46 0.42 0.40 0.37 0.36 0.33 0.29 0.28 0.26 0.25 0.26 0.28 0.29 0.30 0.34 0.37 0.39 0.46 0.52 0.57 0.64 0.80 0.85 0.75 0.75 0.79 0.82 0.92 0.84 0.71 0.67 0.54
0.49 0.48 0.48 0.50 0.50 0.47 0.45 0.44 0.42 0.42 0.43 0.45 0.43 0.36 0.30 0.26 0.25 0.24 0.21 0.21 0.22 0.24 0.26 0.30 0.32 0.38 0.44 0.50 0.52 0.56 0.62 0.69 0.75 0.84 0.83 0.86 0.90 0.95 1.00 0.98 0.82 0.72 0.64
0.48 0.48 0.52 0.54 0.54 0.52 0.50 0.48 0.47 0.45 0.41 0.41 0.39 0.36 0.30 0.24 0.20 0.16 0.14 0.16 0.21 0.25 0.28 0.29 0.32 0.40 0.47 0.47 0.44 0.48 0.61 0.75 0.79 0.88 0.90 0.88 0.86 0.95 0.97 0.84 0.74 0.65 0.59
0.57 0.58 0.59 0.57 0.54 0.53 0.51 0.50 0.51 0.49 0.43 0.38 0.36 0.32 0.28 0.20 0.18 0.16 0.14 0.17 0.22 0.28 0.31 0.30 0.27 0.28 0.27 0.29 0.36 0.43 0.54 0.73 0.97 1.10 1.02 0.93 0.80 0.81 0.83 0.77 0.75 0.70 0.64
0.71 0.67 0.60 0.54 0.53 0.51 0.46 0.47 0.47 0.43 0.38 0.34 0.30 0.27 0.26 0.20 0.15 0.13 0.13 0.17 0.25 0.33 0.35 0.33 0.25 0.19 0.23 0.27 0.31 0.36 0.47 0.63 0.87 1.16 1.21 0.97 0.88 0.83 0.85 0.85 0.86 0.87 0.80
0.70 0.65 0.55 0.47 0.47 0.48 0.46 0.43 0.39 0.35 0.33 0.33 0.30 0.26 0.25 0.17 0.12 0.11 0.12 0.16 0.25 0.29 0.31 0.31 0.32 0.30 0.26 0.27 0.30 0.37 0.50 0.66 0.76 0.84 1.11 0.97 0.78 0.76 0.79 0.80 0.85 0.86 0.78
0.66 0.54 0.43 0.37 0.39 0.39 0.37 0.35 0.34 0.33 0.32 0.28 0.23 0.23 0.24 0.20 0.11 0.09 0.10 0.16 0.21 0.23 0.25 0.24 0.22 0.26 0.25 0.35 0.46 0.63 0.76 0.91 0.89 1.00 1.15 1.12 1.00 0.91 0.78 0.75 0.86 0.86 0.82
0.47 0.39 0.34 0.31 0.28 0.26 0.26 0.28 0.29 0.30 0.27 0.22 0.19 0.21 0.21 0.18 0.09 0.06 0.07 0.13 0.20 0.22 0.25 0.28 0.23 0.21 0.28 0.44 0.64 0.85 0.97 1.08 0.99 1.07 1.29 1.34 1.19 1.15 1.10 0.97 0.95 0.88 0.83
0.31 0.27 0.25 0.21 0.18 0.18 0.21 0.24 0.24 0.22 0.23 0.22 0.21 0.21 0.18 0.11 0.08 0.06 0.06 0.09 0.15 0.21 0.28 0.35 0.35 0.28 0.35 0.53 0.73 0.87 1.02 1.08 1.10 1.14 1.14 1.12 1.18 1.19 1.12 1.04 0.95 0.83 0.77
0.24 0.22 0.19 0.15 0.11 0.12 0.19 0.21 0.20 0.22 0.22 0.20 0.21 0.20 0.17 0.14 0.07 0.04 0.04 0.05 0.08 0.21 0.37 0.40 0.41 0.37 0.43 0.62 0.78 0.98 1.17 1.27 1.22 1.19 1.02 0.91 0.87 0.87 0.89 0.82 0.74 0.66 0.62
0.24 0.24 0.21 0.17 0.15 0.13 0.16 0.18 0.18 0.19 0.17 0.15 0.16 0.17 0.16 0.17 0.11 0.03 0.03 0.04 0.07 0.17 0.32 0.38 0.41 0.43 0.60 0.92 1.08 1.22 1.35 1.42 1.38 1.19 0.99 0.88 0.76 0.67 0.66 0.69 0.67 0.59 0.54
0.29 0.26 0.25 0.24 0.20 0.15 0.14 0.11 0.12 0.13 0.14 0.14 0.16 0.17 0.18 0.18 0.12 0.08 0.09 0.11 0.12 0.18 0.32 0.45 0.55 0.62 0.80 1.09 1.30 1.46 1.50 1.38 1.18 1.05 0.93 0.86 0.74 0.65 0.64 0.58 0.55 0.53 0.55
0.26 0.21 0.19 0.17 0.17 0.16 0.13 0.06 0.05 0.07 0.05 0.08 0.11 0.12 0.15 0.14 0.08 0.08 0.10 0.12 0.14 0.18 0.30 0.48 0.64 0.77 0.97 1.16 1.32 1.38 1.36 1.25 1.11 0.91 0.81 0.83 0.81 0.73 0.67 0.56 0.48 0.44 0.48
0.22 0.18 0.13 0.10 0.10 0.11 0.16 0.12 0.03 0.02 0.02 0.02 0.04 0.05 0.07 0.07 0.06 0.07 0.10 0.13 0.17 0.24 0.34 0.51 0.62 0.73 0.91 1.13 1.25 1.23 1.14 1.06 0.95 0.82 0.75 0.72 0.72 0.68 0.64 0.55 0.45 0.42 0.46
0.17 0.14 0.08 0.07 0.08 0.09 0.14 0.20 0.18 0.10 0.05 0.05 0.03 0.04 0.04 0.04 0.05 0.07 0.11 0.17 0.19 0.25 0.35 0.51 0.62 0.73 0.89 1.04 1.11 1.09 1.05 0.95 0.85 0.77 0.72 0.65 0.60 0.56 0.50 0.45 0.41 0.41 0.40
0.09 0.06 0.05 0.07 0.07 0.08 0.11 0.13 0.16 0.20 0.23 0.20 0.10 0.05 0.04 0.06 0.07 0.08 0.11 0.16 0.22 0.26 0.39 0.54 0.64 0.71 0.78 0.85 0.92 0.97 0.99 0.91 0.79 0.73 0.71 0.66 0.58 0.50 0.42 0.37 0.36 0.32 0.32
0.06 0.09 0.08 0.06 0.05 0.06 0.07 0.09 0.10 0.13 0.17 0.20 0.17 0.11 0.08 0.10 0.12 0.15 0.17 0.21 0.28 0.35 0.44 0.55 0.62 0.67 0.69 0.69 0.75 0.81 0.83 0.82 0.74 0.69 0.67 0.64 0.57 0.49 0.39 0.31 0.26 0.16 0.20
0.04 0.02 0.03 0.04 0.03 0.04 0.04 0.06 0.07 0.10 0.14 0.18 0.19 0.16 0.16 0.23 0.28 0.29 0.25 0.23 0.27 0.35 0.43 0.50 0.55 0.59 0.57 0.57 0.58 0.62 0.65 0.65 0.62 0.59 0.56 0.54 0.46 0.36 0.30 0.24 0.21 0.20 0.21
0.03 0.01 0.01 0.02 0.03 0.03 0.03 0.04 0.06 0.08 0.13 0.18 0.17 0.14 0.20 0.28 0.34 0.34 0.33 0.31 0.33 0.37 0.40 0.42 0.44 0.46 0.45 0.44 0.44 0.45 0.49 0.53 0.54 0.55 0.52 0.46 0.37 0.29 0.23 0.19 0.15 0.13 0.14
0.01 0.01 0.01 0.02 0.02 0.01 0.01 0.03 0.05 0.07 0.09 0.13 0.15 0.15 0.22 0.26 0.30 0.34 0.36 0.38 0.38 0.38 0.37 0.36 0.37 0.38 0.37 0.37 0.36 0.36 0.39 0.42 0.48 0.52 0.52 0.45 0.34 0.25 0.19 0.14 0.12 0.11 0.10
0.00 0.01 0.01 0.01 0.01 0.00 0.01 0.02 0.04 0.05 0.07 0.09 0.11 0.14 0.20 0.27 0.33 0.37 0.39 0.38 0.38 0.37 0.33 0.30 0.32 0.34 0.33 0.30 0.29 0.31 0.33 0.36 0.42 0.48 0.51 0.44 0.32 0.23 0.17 0.15 0.13 0.12 0.08
0.00 0.00 0.00 0.00 0.00 0.00 0.01 0.02 0.02 0.03 0.05 0.07 0.10 0.13 0.18 0.26 0.33 0.40 0.43 0.41 0.39 0.38 0.35 0.33 0.32 0.31 0.27 0.23 0.21 0.20 0.21 0.26 0.35 0.43 0.43 0.40 0.30 0.21 0.14 0.13 0.12 0.09 0.08
0.00 0.01 0.00 0.00 0.00 0.00 0.01 0.01 0.01 0.02 0.03 0.04 0.06 0.08 0.12 0.16 0.22 0.30 0.39 0.43 0.43 0.43 0.39 0.37 0.36 0.32 0.26 0.19 0.14 0.12 0.17 0.24 0.29 0.33 0.37 0.35 0.26 0.20 0.15 0.13 0.10 0.06 0.06
0.00 0.00 0.00 0.00 0.00 0.00 0.00 0.01 0.01 0.01 0.01 0.02 0.03 0.04 0.05 0.08 0.12 0.18 0.26 0.32 0.37 0.42 0.46 0.49 0.46 0.36 0.26 0.19 0.17 0.17 0.18 0.19 0.19 0.20 0.25 0.28 0.21 0.17 0.15 0.13 0.07 0.05 0.05

GEFSGL_prec_meanprecacc_138.txt.gz
Total_Precipitation_Accumulation
0.73 0.76 0.77 0.80 0.85 0.86 0.83 0.77 0.72 0.68 0.65 0.63 0.60 0.58 0.57 0.56 0.55 0.55 0.52 0.49 0.46 0.45 0.43 0.43 0.44 0.42 0.42 0.42 0.46 0.57 0.68 0.80 0.90 0.74 0.64 0.65 0.71 0.69 0.69 0.68 0.65 0.66 0.76
0.59 0.61 0.62 0.62 0.62 0.64 0.66 0.66 0.62 0.60 0.59 0.57 0.51 0.49 0.46 0.43 0.40 0.37 0.35 0.33 0.35 0.37 0.38 0.40 0.41 0.40 0.39 0.39 0.44 0.52 0.62 0.77 0.93 0.89 0.75 0.75 0.76 0.73 0.80 0.80 0.70 0.60 0.67
0.51 0.53 0.53 0.53 0.52 0.53 0.54 0.52 0.50 0.49 0.51 0.48 0.45 0.43 0.40 0.39 0.35 0.31 0.30 0.29 0.31 0.34 0.36 0.39 0.40 0.46 0.46 0.46 0.52 0.58 0.63 0.71 0.88 0.93 0.85 0.86 0.90 0.93 1.04 0.95 0.81 0.76 0.60
0.51 0.50 0.50 0.52 0.52 0.50 0.48 0.46 0.43 0.43 0.45 0.48 0.48 0.40 0.33 0.30 0.30 0.28 0.25 0.26 0.28 0.30 0.33 0.38 0.41 0.49 0.54 0.56 0.57 0.61 0.67 0.76 0.83 0.93 0.93 0.97 1.01 1.06 1.12 1.09 0.92 0.79 0.69
0.50 0.50 0.53 0.56 0.56 0.54 0.53 0.51 0.49 0.46 0.43 0.43 0.44 0.41 0.36 0.30 0.26 0.23 0.20 0.23 0.28 0.32 0.33 0.34 0.38 0.46 0.54 0.51 0.48 0.51 0.64 0.81 0.86 0.95 0.98 0.96 0.94 1.04 1.06 0.92 0.82 0.72 0.64
0.59 0.60 0.60 0.59 0.56 0.55 0.54 0.53 0.53 0.51 0.46 0.42 0.41 0.39 0.36 0.27 0.25 0.21 0.18 0.23 0.29 0.34 0.36 0.35 0.31 0.33 0.32 0.34 0.39 0.45 0.56 0.77 1.03 1.16 1.08 1.00 0.88 0.88 0.90 0.85 0.83 0.78 0.72
0.72 0.68 0.61 0.56 0.55 0.52 0.48 0.49 0.50 0.48 0.44 0.40 0.36 0.34 0.32 0.26 0.21 0.18 0.17 0.21 0.30 0.38 0.40 0.37 0.28 0.21 0.26 0.32 0.35 0.38 0.50 0.66 0.90 1.20 1.27 1.02 0.93 0.88 0.90 0.91 0.92 0.94 0.87
0.72 0.66 0.56 0.49 0.50 0.51 0.50 0.49 0.45 0.41 0.40 0.40 0.37 0.34 0.31 0.21 0.16 0.14 0.15 0.21 0.30 0.34 0.35 0.36 0.36 0.33 0.27 0.29 0.33 0.41 0.55 0.69 0.78 0.87 1.15 1.00 0.81 0.79 0.83 0.84 0.89 0.91 0.84
0.69 0.57 0.45 0.40 0.42 0.43 0.43 0.43 0.42 0.40 0.39 0.35 0.30 0.30 0.30 0.24 0.15 0.12 0.13 0.21 0.26 0.27 0.28 0.27 0.25 0.27 0.26 0.35 0.50 0.68 0.82 0.95 0.90 1.01 1.17 1.13 1.02 0.93 0.80 0.79 0.91 0.92 0.89
0.50 0.41 0.37 0.34 0.32 0.31 0.32 0.35 0.36 0.37 0.35 0.28 0.24 0.26 0.27 0.24 0.13 0.10 0.11 0.18 0.25 0.27 0.30 0.31 0.24 0.22 0.30 0.45 0.68 0.91 1.03 1.12 1.03 1.10 1.31 1.36 1.20 1.16 1.12 1.00 1.00 0.95 0.90
0.34 0.30 0.28 0.26 0.23 0.23 0.28 0.32 0.33 0.31 0.30 0.27 0.27 0.26 0.21 0.13 0.09 0.08 0.08 0.12 0.20 0.28 0.33 0.40 0.38 0.30 0.37 0.55 0.76 0.91 1.04 1.11 1.16 1.20 1.20 1.18 1.23 1.24 1.16 1.07 0.99 0.88 0.83
0.27 0.25 0.22 0.20 0.14 0.15 0.25 0.28 0.27 0.30 0.29 0.27 0.27 0.25 0.20 0.15 0.08 0.05 0.05 0.06 0.11 0.27 0.42 0.44 0.44 0.39 0.44 0.64 0.80 0.99 1.18 1.30 1.27 1.26 1.08 0.98 0.93 0.93 0.94 0.86 0.77 0.68 0.66
0.27 0.28 0.25 0.21 0.18 0.16 0.20 0.23 0.23 0.25 0.23 0.20 0.21 0.21 0.18 0.18 0.12 0.03 0.03 0.04 0.08 0.20 0.34 0.39 0.43 0.45 0.61 0.93 1.10 1.24 1.38 1.45 1.44 1.26 1.04 0.94 0.81 0.72 0.70 0.72 0.69 0.62 0.56
0.32 0.30 0.29 0.28 0.24 0.18 0.17 0.14 0.15 0.17 0.18 0.19 0.20 0.21 0.20 0.19 0.13 0.09 0.11 0.12 0.13 0.20 0.35 0.47 0.57 0.64 0.83 1.12 1.33 1.50 1.54 1.41 1.21 1.09 0.97 0.90 0.76 0.67 0.66 0.60 0.57 0.56 0.58
0.29 0.24 0.22 0.21 0.20 0.19 0.16 0.09 0.08 0.09 0.08 0.11 0.14 0.14 0.17 0.15 0.08 0.08 0.11 0.12 0.15 0.19 0.32 0.51 0.68 0.81 1.00 1.20 1.36 1.42 1.40 1.28 1.14 0.94 0.83 0.85 0.82 0.74 0.68 0.57 0.49 0.45 0.52
0.25 0.20 0.15 0.12 0.12 0.13 0.17 0.13 0.05 0.03 0.03 0.03 0.05 0.06 0.07 0.07 0.06 0.07 0.10 0.14 0.17 0.24 0.35 0.53 0.65 0.76 0.94 1.16 1.28 1.25 1.15 1.08 0.98 0.84 0.77 0.73 0.73 0.69 0.65 0.55 0.46 0.45 0.51
0.20 0.16 0.10 0.08 0.09 0.10 0.15 0.22 0.19 0.11 0.05 0.05 0.04 0.04 0.04 0.04 0.05 0.07 0.11 0.17 0.19 0.26 0.35 0.53 0.64 0.74 0.90 1.06 1.12 1.10 1.06 0.96 0.86 0.78 0.73 0.67 0.61 0.57 0.51 0.45 0.42 0.44 0.43
0.11 0.07 0.06 0.09 0.08 0.09 0.12 0.13 0.16 0.20 0.23 0.20 0.10 0.05 0.04 0.06 0.07 0.08 0.11 0.16 0.22 0.26 0.39 0.54 0.64 0.71 0.79 0.86 0.93 0.98 0.99 0.91 0.80 0.73 0.72 0.67 0.60 0.52 0.43 0.39 0.38 0.34 0.34
0.07 0.09 0.08 0.07 0.07 0.07 0.08 0.09 0.10 0.14 0.18 0.20 0.17 0.11 0.08 0.10 0.12 0.15 0.17 0.21 0.28 0.35 0.44 0.55 0.62 0.67 0.69 0.69 0.75 0.81 0.84 0.82 0.74 0.69 0.67 0.65 0.58 0.50 0.40 0.32 0.27 0.17 0.20
0.05 0.02 0.03 0.04 0.03 0.04 0.05 0.07 0.07 0.10 0.14 0.18 0.19 0.16 0.16 0.23 0.28 0.29 0.25 0.23 0.27 0.35 0.43 0.50 0.55 0.59 0.57 0.57 0.58 0.62 0.65 0.65 0.62 0.59 0.56 0.54 0.47 0.37 0.30 0.24 0.21 0.20 0.22
0.03 0.01 0.01 0.02 0.03 0.03 0.03 0.04 0.06 0.08 0.13 0.18 0.17 0.14 0.20 0.28 0.34 0.34 0.33 0.31 0.33 0.37 0.40 0.42 0.44 0.46 0.45 0.44 0.44 0.45 0.49 0.53 0.54 0.55 0.52 0.47 0.37 0.29 0.23 0.19 0.15 0.14 0.14
0.01 0.01 0.01 0.02 0.02 0.01 0.02 0.03 0.05 0.07 0.09 0.13 0.15 0.15 0.22 0.26 0.30 0.34 0.36 0.38 0.38 0.38 0.37 0.36 0.37 0.38 0.37 0.37 0.36 0.36 0.39 0.42 0.48 0.52 0.52 0.45 0.34 0.25 0.19 0.15 0.12 0.11 0.10
0.01 0.01 0.01 0.01 0.01 0.00 0.01 0.02 0.04 0.05 0.07 0.09 0.11 0.14 0.20 0.27 0.33 0.37 0.39 0.38 0.38 0.37 0.33 0.30 0.32 0.34 0.33 0.30 0.29 0.31 0.33 0.37 0.42 0.49 0.51 0.44 0.32 0.23 0.18 0.15 0.14 0.12 0.09
0.00 0.01 0.00 0.01 0.00 0.00 0.01 0.02 0.02 0.03 0.05 0.07 0.10 0.13 0.18 0.26 0.33 0.40 0.43 0.41 0.39 0.38 0.35 0.33 0.32 0.31 0.27 0.23 0.21 0.20 0.21 0.26 0.35 0.43 0.44 0.41 0.31 0.22 0.15 0.13 0.12 0.10 0.09
0.00 0.01 0.01 0.00 0.00 0.00 0.01 0.01 0.01 0.02 0.03 0.04 0.06 0.08 0.12 0.16 0.22 0.30 0.39 0.43 0.43 0.43 0.39 0.37 0.36 0.32 0.26 0.19 0.15 0.13 0.17 0.24 0.30 0.33 0.37 0.35 0.26 0.20 0.16 0.14 0.11 0.07 0.07
0.01 0.00 0.00 0.00 0.00 0.00 0.00 0.01 0.01 0.01 0.01 0.02 0.03 0.04 0.05 0.08 0.12 0.18 0.26 0.32 0.37 0.42 0.46 0.49 0.46 0.36 0.26 0.20 0.17 0.17 0.19 0.19 0.19 0.20 0.26 0.28 0.21 0.17 0.16 0.14 0.08 0.05 0.06